GFSSW_250_rhum_000.txt.gz
RH
42 35 28 28 30 32 28 27 27 25 17 12 10 13 11 10 13 16 22 31 35 34 35 32 37 42 44 48 45 49 61 69 73 62 53 47 36 26 25 24 23 22 20 28 36
51 36 37 44 47 57 59 44 27 22 17 16 12 8 12 10 10 15 27 30 27 30 33 34 36 40 41 41 42 39 37 38 46 41 32 29 29 27 24 21 24 24 25 26 23
43 43 64 55 79 74 91 85 51 31 17 10 12 10 8 11 9 15 16 27 27 26 28 30 36 39 34 34 41 39 38 33 30 29 28 28 29 30 21 22 28 28 25 22 23
49 55 66 76 72 94 93 100 51 28 13 10 6 10 8 9 9 12 16 21 30 23 23 26 30 35 29 36 40 36 34 27 21 23 26 27 29 24 27 27 26 25 26 27 27
56 76 72 100 71 88 100 100 56 14 4 4 5 6 6 7 11 12 16 21 24 21 21 23 26 30 27 33 35 30 26 21 19 20 19 24 25 26 27 24 27 29 25 25 31
66 85 81 89 82 100 100 89 36 5 3 3 3 5 6 8 12 10 14 21 16 22 23 23 26 29 24 25 28 26 21 22 23 18 15 17 19 22 22 23 31 35 27 27 33
56 87 79 89 92 100 98 70 18 4 2 3 3 4 5 11 8 10 14 18 14 23 22 27 26 30 25 24 24 23 19 26 20 17 17 17 16 16 19 24 30 37 28 31 40
83 73 73 68 77 94 82 49 11 3 2 3 3 3 5 8 7 11 12 16 16 22 21 25 25 28 26 23 22 30 20 28 15 23 18 18 15 17 18 21 25 29 33 40 74
63 69 85 58 78 98 81 55 12 3 2 2 2 2 4 7 7 12 12 15 17 19 21 23 25 27 28 21 26 26 28 37 20 21 22 18 15 16 19 20 24 30 34 56 100
67 85 100 63 100 96 100 66 18 3 2 2 2 3 5 7 7 11 13 14 18 18 22 20 23 26 29 23 24 40 54 36 28 21 24 20 18 20 18 22 28 33 41 98 100
74 91 65 79 100 100 100 85 18 4 2 2 3 3 5 7 6 11 13 14 18 17 21 19 20 25 30 33 35 37 40 33 43 25 25 26 26 23 19 21 31 46 94 100 100
79 67 92 77 100 100 100 98 31 8 2 2 3 4 5 5 6 11 12 14 18 16 21 18 18 29 31 32 31 31 33 47 42 30 22 23 24 23 17 19 30 45 89 100 98
70 67 62 84 100 100 100 66 28 8 4 4 4 4 5 5 6 8 12 14 18 17 21 18 20 29 29 33 36 33 39 40 41 37 20 24 25 24 19 17 28 40 95 100 100
87 61 80 82 100 100 100 70 23 8 6 5 4 4 6 6 7 8 12 14 18 19 20 18 19 27 27 34 34 36 41 41 40 38 20 30 28 26 22 18 27 34 75 100 100
90 68 100 100 100 100 100 74 23 9 8 6 5 7 5 6 8 8 12 14 19 23 19 18 18 25 24 32 33 39 36 37 38 38 25 29 29 26 23 18 27 36 39 100 100
74 76 100 100 100 100 100 86 23 14 10 7 8 8 5 6 8 9 11 14 17 21 20 20 20 21 23 32 33 33 33 32 36 36 31 28 34 24 24 20 23 29 29 56 100
84 78 99 100 100 100 100 100 23 22 9 7 10 8 7 8 9 9 10 13 14 18 19 19 20 21 24 25 26 28 27 31 37 38 36 28 31 28 24 21 27 29 27 45 100
93 67 81 100 100 100 100 100 32 17 12 11 11 9 8 8 9 9 10 12 14 16 23 21 17 20 20 22 26 27 30 34 37 38 33 24 30 32 25 22 24 33 23 34 100
86 69 72 100 100 100 100 94 46 22 17 16 12 8 9 8 8 8 10 13 13 15 17 20 28 25 25 24 25 26 27 30 34 34 31 28 30 33 26 22 21 27 28 39 78
64 83 77 100 100 100 100 97 62 33 20 14 12 14 12 11 10 9 9 12 14 14 16 20 25 27 27 24 24 26 27 27 32 33 32 30 29 28 25 21 21 26 32 45 49
61 78 63 100 100 100 100 83 72 41 23 15 18 20 16 17 18 15 12 11 14 15 15 17 20 22 24 25 25 26 26 27 31 34 32 30 27 25 24 22 22 24 32 39 50
72 85 64 100 100 98 100 100 72 56 26 20 18 17 18 20 19 18 16 13 13 15 17 16 16 17 20 24 25 26 25 23 30 30 26 26 26 23 22 19 25 28 31 34 33
77 82 69 100 100 86 100 100 83 77 40 26 23 21 20 20 19 17 15 15 14 14 16 16 16 17 18 20 21 22 22 25 29 26 24 23 24 20 19 21 29 30 32 31 29
69 83 100 81 100 81 100 100 100 64 58 34 29 26 26 28 26 23 21 20 18 17 17 16 17 18 20 23 24 26 26 26 26 23 21 21 21 19 21 23 32 33 33 34 36
62 85 89 100 92 90 100 100 100 100 66 60 39 26 27 32 28 27 27 22 20 20 19 20 19 18 18 19 18 18 18 17 18 19 19 21 22 22 24 29 34 34 34 37 37
85 72 64 100 98 100 100 100 100 100 100 69 51 32 34 38 42 40 40 31 27 27 23 20 19 18 17 16 15 15 15 16 18 19 21 20 19 24 30 36 38 37 41 44 68
95 54 83 89 100 88 99 100 100 100 100 100 87 56 47 30 33 38 36 36 37 36 29 25 23 21 22 20 18 18 19 20 20 20 22 26 26 26 38 43 41 49 64 75 76

GFSSW_250_rhum_003.txt.gz
RH
51 48 37 37 41 34 28 27 29 30 28 25 23 20 22 14 12 18 16 15 19 22 25 28 34 37 40 41 81 93 81 75 85 78 62 64 69 73 69 86 80 60 69 64 44
64 55 44 42 39 30 34 38 37 37 46 51 30 21 19 19 14 11 18 13 15 20 24 26 35 38 43 40 57 83 91 93 79 81 86 100 85 78 70 70 66 66 58 32 27
75 62 52 52 38 41 56 80 62 64 69 80 71 36 17 16 16 16 12 16 14 17 24 24 33 34 39 46 51 54 69 75 81 78 78 82 79 75 68 63 53 36 31 28 29
77 70 69 63 48 73 86 86 89 100 100 94 76 46 18 14 13 16 14 15 13 14 23 22 26 30 37 47 55 51 49 55 58 48 48 46 43 44 42 37 30 31 32 31 31
83 74 74 66 53 78 91 64 76 96 97 90 70 40 22 17 14 13 12 13 12 12 20 24 23 28 36 50 51 50 43 41 48 43 37 36 34 35 33 27 29 33 31 28 25
86 78 82 68 70 81 54 63 100 98 100 87 63 30 11 7 8 8 9 10 11 11 18 22 24 26 38 46 46 48 39 34 33 37 34 26 27 32 24 30 32 31 27 24 23
83 81 85 62 74 59 59 82 82 98 87 69 34 12 4 2 4 5 10 8 12 11 19 21 26 25 34 42 46 45 32 31 36 35 28 25 22 20 23 23 23 25 23 22 24
85 83 86 65 77 82 78 92 100 100 82 39 14 3 2 2 3 4 10 8 11 10 18 18 23 24 30 36 40 44 24 32 33 29 23 31 17 28 18 18 18 18 20 21 23
89 90 81 69 92 58 70 99 98 88 58 24 9 2 2 2 3 4 9 7 11 11 17 18 20 24 27 34 34 29 26 28 25 24 38 27 17 32 19 17 16 18 20 23 28
91 90 63 85 62 62 91 96 100 86 48 15 6 2 2 2 4 6 9 7 10 11 15 17 18 22 24 31 25 25 28 28 23 39 31 21 17 34 21 17 16 18 20 28 35
92 84 57 88 69 69 100 100 100 75 33 9 5 3 2 2 3 7 10 7 10 10 14 16 18 20 24 29 25 34 31 24 21 46 43 26 20 29 23 19 20 17 20 27 38
94 75 58 89 50 71 100 100 99 52 50 10 4 2 2 2 3 7 9 7 10 11 13 16 17 21 26 29 27 30 33 21 28 53 45 35 20 23 27 21 18 18 20 32 36
97 74 76 66 57 95 100 100 99 63 43 9 5 2 2 3 4 7 9 8 12 11 13 17 18 22 25 29 30 34 40 26 36 58 41 43 27 24 24 21 19 17 20 31 32
100 75 71 56 80 100 100 100 90 54 24 13 6 4 4 4 5 8 8 8 13 12 13 17 22 22 25 27 33 40 43 25 35 50 34 41 35 27 22 22 21 19 19 21 31
99 72 66 60 100 100 100 100 77 44 16 10 6 5 5 4 7 9 7 9 14 12 13 16 22 22 25 30 36 47 38 26 31 42 34 40 41 34 26 29 24 21 20 19 23
100 74 62 65 100 100 100 100 81 37 17 10 8 5 5 5 8 8 8 10 14 12 14 18 24 22 25 29 33 36 30 34 36 37 38 37 42 31 28 32 26 22 22 20 18
100 68 60 76 100 100 100 100 80 41 19 11 7 5 6 6 8 8 8 12 13 12 13 20 28 23 24 26 32 32 31 32 37 38 42 40 47 27 34 32 26 24 22 20 20
96 65 59 90 100 100 99 69 65 36 19 13 7 6 6 6 8 7 8 13 14 12 14 18 22 27 23 22 29 35 35 37 40 44 47 39 50 36 30 29 27 25 24 22 23
93 60 63 99 100 100 92 69 74 37 21 14 10 10 7 7 7 7 9 14 15 14 14 20 25 28 23 21 24 30 29 36 42 40 42 40 45 44 33 29 24 25 27 26 26
92 61 60 100 100 100 91 90 77 45 29 22 13 13 10 8 8 8 10 15 15 15 16 20 27 31 25 19 20 24 29 26 34 37 39 41 40 41 40 30 25 26 29 28 27
98 65 56 100 88 100 88 86 88 49 28 24 19 18 17 14 13 11 11 12 16 16 17 19 26 31 24 20 22 23 24 28 31 33 36 36 40 34 34 31 30 28 30 28 27
100 66 58 100 99 100 100 73 71 55 32 26 25 22 19 22 19 18 15 14 16 16 18 19 25 32 26 24 24 22 23 24 28 28 30 32 33 31 36 36 31 29 27 27 24
100 76 80 98 66 100 100 88 66 57 38 27 28 30 26 23 19 13 11 12 13 16 17 18 20 28 29 24 20 22 24 25 27 29 30 32 37 31 28 31 34 32 29 26 23
100 82 70 100 66 100 100 100 77 62 40 32 32 33 30 27 22 19 14 12 13 15 15 16 18 21 28 34 36 35 33 30 26 25 28 30 30 26 28 32 36 31 27 24 22
100 85 72 100 100 99 99 100 99 67 49 41 34 32 26 23 23 21 19 17 13 13 15 16 16 17 20 27 28 30 30 27 26 26 25 28 28 29 31 35 34 28 23 22 23
100 100 69 93 100 100 100 92 100 98 58 50 45 32 31 28 21 18 18 18 16 16 14 15 17 16 16 18 21 23 22 22 24 25 28 29 29 28 30 32 28 23 22 24 26
100 100 67 99 94 94 100 100 100 100 88 59 64 40 32 30 27 26 22 20 16 14 14 14 14 17 19 18 18 18 18 18 20 21 26 27 28 28 28 24 22 23 25 26 29

GFSSW_250_rhum_006.txt.gz
RH
24 37 45 47 43 42 42 45 40 36 32 28 26 25 24 24 22 24 20 20 23 16 14 16 21 24 24 28 27 39 84 100 100 100 97 90 90 91 91 85 72 57 60 54 44
31 42 44 45 45 43 44 46 43 39 38 42 42 34 35 30 27 24 23 18 19 20 16 13 17 22 24 28 30 31 41 75 98 98 90 87 85 98 86 69 60 55 50 50 45
31 49 46 43 45 45 49 53 49 42 53 57 60 52 55 50 31 25 23 20 18 16 20 13 14 20 26 30 32 33 40 37 67 89 91 80 76 81 87 88 78 70 43 62 66
29 50 52 43 45 45 52 58 46 52 72 85 81 76 90 92 56 38 24 19 18 14 20 17 12 16 25 33 40 44 47 33 35 67 86 98 91 77 66 74 72 72 83 83 68
34 39 60 47 47 51 59 62 55 66 79 75 92 100 100 96 71 31 22 19 20 16 15 21 12 14 22 36 40 47 51 42 49 90 99 100 93 89 73 54 53 66 55 45 37
41 40 69 53 49 62 69 63 66 72 76 87 96 96 94 73 71 37 28 24 18 18 15 17 16 14 19 35 37 54 54 44 46 63 80 83 76 72 63 57 46 41 38 33 28
54 47 88 58 57 67 77 60 61 87 96 100 91 88 85 94 64 44 24 17 21 17 16 15 17 12 17 32 39 48 48 49 48 54 55 54 51 50 47 36 32 33 33 29 25
67 46 89 58 71 74 71 58 61 88 100 100 99 87 94 77 46 27 9 10 13 16 15 14 14 10 15 28 37 42 42 49 50 50 49 48 46 40 32 29 29 31 29 24 21
70 48 93 58 78 80 62 62 82 85 92 97 84 96 74 40 20 8 4 3 7 11 12 11 10 11 15 26 31 38 39 50 48 46 47 48 37 35 27 26 25 23 20 19 17
71 56 92 61 83 83 65 69 76 94 100 100 100 75 28 27 12 4 2 1 3 6 8 10 9 11 14 23 24 36 39 46 44 47 50 46 36 36 28 27 21 18 17 17 17
79 70 95 73 85 80 65 65 85 89 100 90 100 41 25 18 8 2 2 1 2 5 7 10 9 9 15 24 28 37 52 43 38 44 47 45 33 45 30 27 19 18 17 17 17
85 86 94 83 88 77 62 84 80 100 68 100 62 20 16 14 5 2 2 2 3 6 8 10 9 12 19 28 30 41 46 38 29 42 46 47 27 43 30 25 19 19 19 17 18
80 99 97 85 92 70 76 91 79 96 65 94 42 18 18 10 4 2 2 2 5 7 10 9 13 12 20 28 29 37 36 30 27 40 49 50 24 34 26 22 24 22 22 19 20
86 100 100 88 97 65 90 90 92 88 72 65 35 24 15 8 4 2 2 3 6 8 13 11 13 13 20 28 29 36 35 24 28 40 51 46 29 39 29 22 26 24 22 20 20
90 100 100 91 87 64 96 86 93 97 71 39 25 18 10 7 4 3 2 4 7 11 12 12 13 14 22 28 30 37 34 20 24 38 53 39 34 37 39 34 26 21 23 22 22
95 98 99 100 74 69 98 76 95 91 70 41 21 11 7 5 4 3 3 6 10 15 12 16 15 18 28 28 31 34 28 20 24 40 49 33 40 26 39 39 33 23 24 25 24
96 96 98 100 65 78 82 76 94 77 50 27 15 7 4 4 4 4 4 9 13 12 13 16 13 19 31 27 31 31 25 21 23 37 47 31 43 25 43 40 36 29 29 30 29
98 99 100 94 64 88 79 82 82 82 45 26 15 8 5 4 4 5 6 12 15 12 16 13 14 21 36 26 28 27 26 24 26 41 48 36 52 24 39 39 38 38 32 29 32
100 99 100 83 68 89 88 70 77 69 49 22 13 7 5 4 4 5 10 14 13 13 15 12 16 22 32 25 27 24 25 27 32 46 50 45 52 30 38 44 40 39 34 30 31
100 100 100 78 75 83 95 68 61 56 49 26 17 12 11 8 7 7 12 14 11 14 15 13 16 20 24 24 28 27 28 29 32 47 52 36 44 38 39 42 43 42 38 36 33
100 100 96 77 82 78 95 64 55 46 48 41 23 14 18 15 13 14 15 12 12 14 13 11 15 20 28 25 28 28 27 31 35 44 48 39 40 42 38 36 37 42 40 38 35
95 100 92 70 87 88 100 65 58 45 40 41 38 22 20 26 19 18 16 15 18 18 17 13 17 21 30 26 24 25 24 27 31 37 44 48 40 40 40 38 35 33 35 34 36
96 100 93 66 99 93 100 64 65 41 50 46 36 40 29 24 29 26 22 19 22 21 18 16 17 21 28 22 20 23 25 26 32 36 38 41 44 41 36 31 30 29 31 34 35
100 100 97 71 96 96 99 64 59 63 55 55 40 29 33 40 36 28 22 24 24 22 17 16 17 20 24 38 35 27 25 23 26 29 33 36 36 33 25 26 29 30 32 32 31
100 100 97 71 96 81 100 66 53 63 58 47 53 38 32 26 24 23 22 20 20 21 18 16 17 18 22 27 29 31 28 22 21 22 23 24 24 24 25 29 30 31 30 30 30
100 100 91 88 94 100 89 74 64 42 60 45 44 37 32 24 17 15 14 15 16 17 21 18 18 18 20 22 27 32 34 30 26 23 29 33 34 28 28 30 32 33 31 30 30
100 99 100 83 99 98 77 83 84 60 59 53 61 33 31 30 23 17 15 12 12 14 15 18 18 18 19 20 21 28 37 37 36 33 34 32 33 32 33 32 31 29 28 28 29

GFSSW_250_rhum_009.txt.gz
RH
48 47 43 43 44 27 26 40 41 41 37 35 37 36 35 28 27 25 26 24 19 19 17 13 12 15 16 23 25 22 23 42 99 100 90 61 59 82 65 82 69 55 56 43 38
39 43 56 47 49 30 26 41 40 39 36 37 43 40 33 29 30 29 28 26 22 20 18 18 13 13 13 20 24 24 24 25 40 98 100 89 71 68 91 100 100 81 66 54 43
46 39 39 55 62 35 30 37 46 41 39 40 44 41 36 38 42 44 40 31 27 24 22 21 18 13 13 16 22 28 28 34 26 44 100 100 97 81 80 94 89 86 88 84 68
52 46 40 46 81 48 31 37 47 42 42 48 53 48 38 44 45 55 54 43 32 26 25 23 19 18 14 14 21 26 36 39 27 23 52 100 100 100 99 100 76 97 81 94 81
69 54 45 45 94 72 38 46 57 50 46 59 58 49 51 66 80 65 82 74 47 36 25 24 21 19 18 15 17 21 38 43 34 24 29 48 69 100 100 91 100 96 100 85 59
80 63 50 45 80 88 46 51 70 57 53 60 56 50 63 83 91 93 99 99 81 50 28 25 26 20 18 17 15 22 33 40 37 26 29 37 47 66 86 96 100 98 92 84 67
83 82 75 45 65 94 58 57 72 61 59 63 56 53 85 100 100 100 100 81 88 73 49 31 25 24 22 18 18 20 23 39 31 30 32 40 43 65 50 83 89 100 92 88 73
97 100 94 60 51 87 68 62 74 66 70 64 54 62 99 100 100 100 92 95 97 93 72 35 26 23 18 19 19 18 22 33 34 34 35 47 49 60 55 88 83 85 70 53 45
76 98 84 69 50 86 77 69 79 72 74 61 64 88 97 100 94 91 88 90 98 100 74 31 20 24 20 19 20 20 19 30 31 37 39 48 59 54 54 78 62 53 43 35 28
86 86 81 79 62 92 84 82 87 70 79 61 91 96 97 94 83 84 90 99 89 80 46 13 10 21 20 16 15 21 21 25 32 37 43 52 63 52 58 54 48 41 33 29 25
98 89 80 88 75 94 84 84 84 78 77 75 99 89 88 92 96 91 78 68 40 22 10 9 7 14 21 16 20 23 22 25 35 41 46 55 62 50 53 49 42 33 28 24 22
100 81 89 79 100 97 92 82 75 83 66 80 97 82 96 100 99 67 50 36 20 7 5 3 4 12 20 17 19 23 22 25 35 46 44 52 56 49 51 45 38 31 25 21 19
94 88 99 79 100 93 96 82 77 82 54 80 80 93 100 94 57 38 27 19 8 4 3 2 4 11 11 15 15 22 23 28 39 44 40 58 58 54 48 42 36 29 23 20 21
93 100 96 74 100 98 93 87 81 69 47 78 84 95 94 51 33 14 15 10 5 3 2 2 2 4 10 14 15 23 21 30 45 39 47 55 55 49 46 42 34 27 22 23 24
89 91 95 92 99 100 94 84 84 65 56 56 82 87 64 34 27 14 10 4 2 2 2 2 2 4 11 13 17 25 26 35 42 36 47 52 51 50 44 47 29 28 24 26 25
98 90 95 100 100 98 94 81 79 61 67 65 94 73 52 33 14 10 6 3 3 3 3 2 5 11 19 16 21 23 31 38 41 30 49 52 51 41 41 40 28 30 27 26 24
99 99 94 98 100 95 85 77 62 70 62 84 89 54 35 18 10 7 4 3 4 3 4 5 12 19 19 18 27 27 38 41 29 32 50 47 47 33 38 50 44 46 38 35 28
93 100 94 86 100 97 81 78 61 61 67 96 58 34 16 9 6 6 3 3 3 5 8 13 19 18 19 23 23 28 37 32 22 37 48 45 41 28 39 52 55 51 48 43 32
77 100 100 94 100 92 89 69 61 55 74 84 43 22 11 6 5 5 3 4 8 11 11 22 22 21 20 22 20 34 35 30 27 48 44 42 39 31 36 49 51 46 43 39 35
75 100 99 100 100 86 85 63 62 57 77 60 35 15 9 6 5 4 6 13 19 22 26 28 24 21 19 22 26 34 30 28 35 53 40 34 33 27 31 46 49 41 39 40 37
98 100 96 100 100 97 82 58 68 63 68 59 41 17 12 6 6 5 12 18 21 19 25 35 30 29 28 25 38 32 29 27 40 43 34 31 33 36 28 41 45 42 44 43 40
100 99 100 100 97 99 83 54 71 72 59 57 45 28 16 12 13 19 18 17 23 23 23 25 31 26 22 24 34 31 34 30 42 39 35 33 31 37 32 38 39 39 42 42 38
100 100 100 100 94 95 86 62 79 67 47 55 54 40 25 21 21 20 24 23 20 17 18 17 19 21 23 25 29 23 25 24 36 40 36 31 31 36 35 31 36 39 39 39 38
100 100 100 100 91 88 91 69 76 69 51 49 57 50 35 31 33 32 30 24 20 20 21 20 16 16 23 32 39 31 34 33 36 40 37 34 30 38 33 32 34 37 39 43 44
100 100 100 100 87 90 93 81 70 88 53 59 48 62 44 37 37 37 32 31 40 31 26 23 19 20 23 30 36 29 28 24 25 32 32 35 33 31 32 38 42 42 39 38 37
100 100 100 100 92 99 87 75 68 94 58 65 49 40 50 44 30 30 37 35 37 45 42 32 27 22 26 29 38 28 27 28 31 31 33 35 36 36 35 35 36 37 37 34 29
100 100 100 100 89 100 89 72 63 98 79 61 53 40 37 40 35 32 23 23 24 26 28 27 27 22 23 24 33 33 28 28 30 31 32 34 35 28 30 32 32 30 27 25 26

GFSSW_250_rhum_012.txt.gz
RH
100 74 59 54 46 43 36 35 30 38 27 26 38 34 33 31 32 33 33 31 28 25 21 20 20 16 13 14 15 21 19 23 21 21 84 96 100 92 100 100 87 82 66 50 65
95 90 61 67 57 48 44 39 34 38 40 25 35 41 38 36 33 34 36 28 25 25 25 21 18 18 16 14 14 17 20 27 32 22 32 95 100 93 96 100 100 100 81 43 42
89 82 68 74 71 62 53 44 41 39 44 25 25 45 44 39 37 45 41 30 24 23 22 24 22 18 19 18 15 16 18 27 33 28 22 75 100 96 97 100 100 100 94 84 52
99 93 77 61 76 67 56 51 43 54 45 33 29 46 45 40 40 44 41 32 28 28 28 27 22 20 23 19 16 12 16 21 29 31 22 34 82 99 100 95 100 91 75 69 59
99 96 77 60 69 81 65 57 43 52 55 48 41 48 51 47 46 42 42 39 34 36 38 37 28 24 25 25 17 14 16 19 25 29 24 24 39 49 89 100 100 81 88 85 91
100 87 80 75 67 87 76 63 53 52 55 58 55 52 57 56 54 50 44 42 45 51 52 60 46 31 25 25 20 20 16 18 21 26 24 22 26 30 34 74 100 100 96 97 83
96 82 80 68 69 77 74 70 81 69 55 60 64 55 64 68 58 52 46 59 78 100 100 100 95 56 33 25 25 22 17 17 16 22 25 23 25 35 29 23 64 100 100 100 97
100 100 88 93 85 76 97 98 100 75 64 53 72 63 76 71 67 58 50 65 66 79 100 100 66 50 39 27 26 24 18 18 18 18 24 25 38 46 31 22 36 57 80 98 98
100 100 100 100 96 89 86 100 86 66 64 57 74 74 83 87 72 64 61 74 90 95 84 58 55 60 52 36 25 23 18 18 19 16 21 26 46 43 30 26 36 35 54 77 87
100 100 100 100 100 99 83 92 80 61 67 68 72 81 85 97 86 82 88 86 77 76 92 98 97 92 77 50 27 26 24 22 21 17 19 26 45 36 33 33 43 44 82 93 87
43 98 100 100 100 99 85 96 90 69 70 76 76 92 89 97 88 71 73 82 92 100 100 100 85 73 94 83 50 22 22 17 21 20 18 25 44 37 33 35 46 73 91 84 64
64 40 68 100 100 100 100 99 72 71 69 80 92 100 88 82 70 68 76 97 100 100 97 80 62 95 70 58 22 16 18 18 19 21 16 28 45 35 35 42 52 73 71 66 51
90 48 40 77 100 96 100 98 74 82 60 73 100 99 87 68 63 80 96 98 98 97 88 44 52 23 17 16 11 14 17 20 18 23 21 26 39 37 34 52 52 62 62 51 45
81 55 40 64 81 82 100 100 84 88 54 80 100 100 76 59 72 92 94 78 57 56 37 14 26 19 15 12 9 17 20 20 20 22 21 27 42 40 31 47 45 59 54 47 40
73 51 43 65 87 97 100 92 92 92 63 80 88 66 54 63 79 89 67 39 24 21 14 17 14 7 4 7 6 21 23 21 21 21 27 27 37 39 26 47 67 57 50 44 35
56 50 44 52 82 100 100 79 98 75 84 79 64 44 50 72 69 52 36 24 16 13 11 8 5 5 5 4 6 30 21 21 32 25 24 34 42 37 32 59 61 54 47 41 33
40 52 40 52 92 100 99 97 91 92 86 71 54 48 60 53 37 24 16 14 12 8 6 3 4 2 2 3 10 8 17 23 21 25 22 23 38 27 42 58 60 52 46 42 32
37 49 34 68 100 94 97 100 90 92 88 67 47 61 49 30 20 12 9 8 7 5 4 4 2 2 3 6 8 14 21 23 18 21 22 21 30 30 44 62 59 50 43 42 34
41 44 38 83 100 100 100 100 96 94 77 52 58 53 32 20 9 7 7 7 4 3 4 3 2 4 12 14 17 26 28 36 50 30 45 35 41 50 51 61 56 48 44 38 38
43 35 51 82 100 100 99 100 99 90 62 64 65 43 28 10 7 6 6 4 4 5 5 4 7 12 19 27 39 36 81 99 61 36 34 43 46 49 53 57 51 47 44 47 52
38 41 80 74 98 100 100 100 88 82 61 76 71 40 28 9 8 5 4 5 7 12 10 14 19 30 35 37 42 64 70 45 48 44 43 48 48 54 53 53 46 45 49 51 53
28 57 81 71 98 100 100 100 95 67 71 81 66 43 32 23 8 8 7 10 22 29 34 51 38 44 56 56 48 75 69 34 37 32 40 48 55 58 48 52 46 43 42 48 42
35 81 74 86 100 100 100 96 80 68 84 78 59 58 42 43 28 14 14 31 43 56 54 68 67 59 61 76 50 65 52 36 40 41 44 53 53 52 44 40 40 39 41 44 39
55 76 84 100 100 100 100 96 70 67 94 72 63 69 56 52 41 19 24 57 54 59 74 94 71 100 98 80 72 44 31 36 32 44 43 51 55 55 43 32 32 35 39 42 36
62 82 96 100 100 100 100 87 71 68 100 66 65 69 76 49 57 28 22 40 71 74 69 94 71 67 42 44 34 34 24 26 41 52 45 45 55 50 36 29 28 31 36 37 36
69 81 100 100 100 100 100 72 72 94 100 59 66 64 90 59 62 38 25 23 34 45 53 57 54 36 38 28 30 28 22 31 36 32 33 40 48 47 32 30 28 28 32 35 37
80 95 93 100 100 100 98 68 70 80 99 71 57 64 58 64 54 44 57 44 26 21 22 20 20 17 20 24 25 22 32 35 36 38 44 43 46 38 32 28 29 34 38 39 40

GFSSW_250_rhum_015.txt.gz
RH
100 100 83 70 70 77 94 80 57 50 47 38 31 28 32 34 22 29 27 29 30 31 28 26 24 21 21 21 14 13 12 17 19 24 27 18 43 100 100 100 100 90 83 81 99
100 100 100 94 76 98 100 90 50 50 54 47 39 35 33 41 27 26 26 30 33 33 31 28 27 25 21 21 18 14 12 17 17 18 24 18 19 43 100 100 100 100 80 74 92
100 100 100 100 91 100 100 90 68 56 60 61 56 42 36 36 39 23 28 28 31 33 29 30 30 29 27 23 19 19 17 15 16 16 20 20 16 27 64 99 100 100 98 78 99
100 100 100 100 99 87 91 96 78 60 58 65 55 46 46 37 49 30 30 36 40 40 38 39 31 25 23 22 21 18 21 16 16 16 16 20 17 23 28 60 99 100 100 80 89
100 100 100 100 100 90 93 83 100 63 66 59 65 56 50 39 54 44 38 38 42 41 37 36 31 26 27 24 22 22 19 19 16 14 16 16 21 23 26 24 64 99 100 90 93
100 100 100 100 100 100 100 100 94 74 70 68 68 72 58 51 43 49 52 50 50 47 44 44 35 31 31 29 26 26 22 20 21 17 15 15 24 23 30 30 26 87 100 96 92
100 100 100 100 100 100 97 100 99 86 79 68 65 79 70 52 54 49 55 57 56 58 55 47 37 36 37 38 32 32 27 24 23 22 19 14 16 24 32 37 29 57 98 100 100
100 100 100 100 100 100 100 98 100 98 86 85 73 98 100 70 54 47 52 62 60 55 60 52 39 38 46 59 67 51 31 29 34 29 23 14 17 28 26 39 29 32 67 76 98
98 100 100 100 100 100 100 100 100 88 88 76 86 98 100 83 60 53 55 67 66 61 61 58 48 51 55 50 54 43 34 31 33 32 22 15 18 26 25 32 33 27 38 48 40
51 60 87 100 100 100 97 96 100 100 100 83 81 99 100 92 82 70 74 77 76 72 70 74 62 61 59 64 74 83 55 31 35 36 23 17 17 27 23 27 28 35 27 36 33
77 83 60 46 50 71 100 100 100 100 100 86 100 100 89 80 75 68 69 75 71 80 88 71 61 65 80 88 83 72 55 43 38 35 21 18 17 28 20 24 26 36 26 40 36
89 99 83 91 84 77 68 68 100 100 100 99 94 100 98 92 81 67 65 70 79 85 82 76 77 92 86 72 65 55 47 49 45 35 24 23 19 29 21 22 26 36 26 43 42
98 88 90 92 90 95 87 73 52 83 96 100 100 100 100 78 68 76 65 77 85 71 74 72 76 91 74 68 67 66 50 61 55 38 28 21 18 27 21 20 26 38 28 43 36
77 78 81 80 92 98 88 76 49 43 80 97 100 100 100 87 83 67 72 75 75 64 66 63 88 88 72 65 66 45 61 57 50 44 26 21 19 25 25 21 23 38 25 43 35
70 78 74 84 91 88 86 80 50 37 65 100 96 100 100 100 88 81 81 77 63 70 58 63 75 61 46 63 31 33 32 42 38 42 31 17 18 27 25 16 20 34 26 54 64
66 70 67 80 82 92 85 73 51 46 80 71 91 100 98 81 66 70 75 57 53 42 36 35 27 25 24 25 18 30 24 29 27 41 20 18 19 31 24 19 29 30 26 54 64
65 68 61 69 71 82 78 59 46 87 82 84 98 87 73 65 68 67 43 37 36 27 18 14 13 15 15 14 15 12 17 21 21 26 30 22 25 40 25 20 33 28 32 61 66
48 60 57 57 66 71 65 51 51 91 76 92 83 78 64 71 68 39 34 26 17 11 8 9 9 8 7 7 7 9 15 16 24 49 43 27 27 38 27 30 29 28 32 55 67
35 33 35 36 59 64 49 48 80 73 99 94 97 79 88 69 34 30 20 10 8 8 8 7 7 5 3 2 3 7 9 24 55 73 42 31 25 22 26 34 34 40 44 55 62
14 16 23 43 51 46 51 72 81 96 100 100 89 92 77 38 29 25 10 8 9 8 6 5 5 3 3 3 4 8 18 23 51 66 59 31 38 27 31 43 42 52 52 55 62
13 15 26 39 38 43 70 80 96 100 100 94 97 81 59 32 32 16 6 9 7 4 4 4 5 4 3 5 11 12 22 52 97 100 52 27 31 26 30 46 46 50 49 62 60
13 18 28 30 38 72 85 94 100 99 100 100 79 83 40 35 17 12 12 10 6 5 8 14 12 8 21 26 41 54 97 100 100 100 40 30 26 31 42 56 53 48 50 65 60
13 20 24 33 53 88 85 100 99 100 100 85 96 65 33 43 37 26 17 11 18 45 85 98 94 100 100 92 94 87 94 100 100 100 38 32 30 40 50 55 55 56 61 63 56
16 22 28 44 89 83 100 100 100 100 100 66 99 54 62 63 55 29 22 31 67 74 100 100 100 100 100 100 100 100 100 100 100 100 43 35 33 55 50 56 58 59 58 57 53
19 27 47 87 76 100 100 100 100 100 88 84 97 49 99 98 78 49 34 43 50 98 100 100 100 100 100 100 100 99 100 100 100 100 41 32 36 51 51 52 55 58 55 56 52
34 31 68 70 100 100 100 100 100 100 73 98 93 60 100 100 97 81 61 49 59 75 98 100 100 100 100 100 100 100 100 93 53 28 28 24 41 48 49 56 56 56 58 58 52
36 49 68 96 100 100 100 84 100 97 84 97 93 75 92 100 100 100 67 49 47 54 51 93 98 100 85 100 94 86 65 50 31 26 22 27 41 44 53 55 54 62 57 52 51

GFSSW_250_rhum_018.txt.gz
RH
16 19 58 96 100 100 100 99 78 54 79 91 75 64 47 38 35 32 32 30 32 29 25 24 22 20 23 22 22 20 15 16 16 16 16 13 17 16 15 15 89 100 100 100 100
16 24 70 94 100 100 100 100 98 55 61 99 94 75 55 46 39 41 30 30 31 35 23 21 21 24 23 27 23 22 22 22 17 14 14 12 15 19 18 16 31 66 100 97 100
15 29 79 100 100 100 100 100 100 76 68 100 99 85 68 55 57 50 41 38 38 35 33 21 20 22 28 26 28 26 26 23 23 18 16 12 14 20 26 17 17 31 84 100 100
18 31 82 100 100 100 100 100 100 85 97 100 99 93 68 60 56 57 49 44 43 43 42 28 20 22 26 30 28 29 32 31 26 22 20 17 12 17 29 34 17 20 29 100 100
31 56 84 100 100 100 100 100 100 100 100 99 100 100 78 60 59 72 61 49 45 41 54 47 35 29 30 32 30 28 28 27 28 24 23 20 16 16 22 35 23 18 20 58 100
31 56 99 100 100 100 100 100 100 100 100 100 100 100 91 56 67 74 69 63 48 49 42 48 46 38 34 34 31 30 26 22 23 26 24 22 19 13 19 28 24 22 21 26 76
29 51 87 100 100 100 100 100 100 100 100 100 100 100 100 99 82 86 89 72 72 58 45 38 40 38 38 38 37 35 29 25 23 25 25 22 21 16 21 20 24 24 21 27 29
30 40 67 100 100 100 100 100 100 100 100 100 100 100 100 85 94 78 85 72 70 81 70 42 40 41 43 44 44 39 30 30 31 30 28 22 25 24 24 17 19 23 21 28 26
57 35 53 88 99 100 100 100 100 100 100 100 100 100 100 100 89 79 100 81 86 74 77 52 46 42 46 48 52 46 38 40 43 51 35 26 31 29 24 19 18 21 20 25 28
92 86 49 46 74 98 100 100 100 100 100 100 100 100 100 100 77 61 84 98 93 91 67 55 48 45 49 63 74 54 42 43 53 65 40 26 29 33 26 21 18 21 19 23 30
83 86 98 70 50 61 98 100 93 100 100 100 100 100 100 100 100 59 88 95 83 87 81 52 58 63 69 58 62 52 48 54 54 54 56 46 35 31 33 22 17 20 20 24 29
80 82 79 93 96 63 64 89 88 93 100 100 100 100 100 100 100 98 67 80 70 83 75 54 50 62 59 64 79 60 53 67 71 74 74 67 39 32 36 31 22 20 20 24 27
77 82 78 79 82 93 90 85 71 60 58 67 87 100 100 100 100 100 91 79 79 68 69 56 59 71 62 69 82 69 60 74 81 82 59 57 42 29 36 34 22 24 23 22 29
68 72 75 78 83 89 90 83 84 86 90 100 100 97 82 76 90 100 96 84 77 76 65 59 90 78 64 74 83 66 69 71 71 77 49 38 38 24 36 32 20 23 25 25 32
60 69 69 80 80 81 78 85 81 82 76 100 98 90 81 58 67 93 73 66 66 62 54 60 66 59 55 94 60 58 57 53 56 57 50 45 35 43 37 30 24 25 26 30 33
52 61 65 67 85 76 78 84 77 79 89 100 97 81 64 66 82 89 85 76 64 54 51 56 58 57 61 65 49 46 55 42 41 45 31 52 32 52 42 31 26 25 26 28 32
38 55 64 69 66 68 67 74 76 79 98 98 85 69 61 78 92 93 88 81 64 52 49 48 52 47 44 39 38 36 43 39 41 36 20 52 26 59 58 33 27 24 30 33 29
51 48 55 61 71 72 71 82 72 95 98 83 75 66 87 91 94 79 61 51 50 49 41 29 22 26 28 22 21 19 17 16 16 15 22 46 27 70 61 30 23 22 30 27 26
19 36 54 72 72 61 75 82 96 100 92 79 60 60 93 91 73 57 50 51 39 26 24 27 17 11 10 10 8 9 8 15 12 16 24 32 43 100 29 22 23 23 28 40 28
13 31 41 65 72 65 69 80 100 96 71 70 58 97 81 67 55 52 41 28 29 24 16 11 11 10 9 8 8 9 9 6 12 18 25 36 72 54 34 30 28 29 36 47 31
12 16 30 45 60 56 68 88 94 66 74 61 100 74 86 63 50 40 36 33 23 11 9 8 8 7 6 4 5 6 10 12 16 28 65 52 86 71 39 37 37 37 50 47 29
11 9 13 28 34 53 65 81 62 73 74 100 78 94 81 62 43 42 20 18 12 9 7 12 10 6 7 7 7 14 15 23 62 89 64 99 99 52 41 33 33 37 49 31 31
11 14 11 19 30 45 47 52 70 88 100 85 100 100 79 51 45 50 35 22 25 50 52 42 26 56 38 44 26 29 28 27 68 100 100 90 82 51 42 40 34 38 42 34 40
11 13 14 18 26 30 41 66 88 99 93 100 100 96 53 37 81 60 39 62 84 100 100 100 100 100 100 100 100 83 63 65 87 100 100 86 57 41 42 37 37 41 41 46 53
12 16 25 41 41 37 72 85 85 99 98 100 98 85 58 100 96 96 55 88 100 100 100 100 100 100 100 100 100 100 100 100 100 100 100 100 74 39 46 38 38 37 43 57 63
15 21 31 28 37 82 87 72 89 100 100 100 91 90 73 98 100 79 78 80 91 100 100 100 100 100 100 100 100 100 100 100 100 100 100 93 96 71 45 34 40 41 48 54 67
19 26 24 39 72 81 72 91 100 100 100 97 100 83 79 100 100 98 83 84 80 100 100 100 100 100 100 100 100 100 100 100 100 100 79 94 76 53 39 37 44 50 57 64 73

GFSSW_250_rhum_021.txt.gz
RH
69 66 72 61 58 64 68 70 79 82 100 100 72 67 68 70 81 77 49 41 40 30 28 28 26 26 27 24 22 22 20 28 27 18 16 11 12 12 15 17 17 19 54 100 100
48 67 60 59 59 61 61 70 88 88 99 100 83 84 69 89 88 99 60 52 38 37 37 33 32 30 32 25 21 20 23 28 28 24 20 13 15 14 15 18 19 17 17 40 100
37 59 72 55 60 57 41 24 34 88 100 100 100 84 91 84 78 100 72 61 50 42 40 44 40 36 34 31 23 21 26 25 28 27 25 18 17 15 16 16 20 18 15 14 40
42 72 68 61 53 29 17 24 69 100 100 100 100 96 100 78 83 100 83 63 58 53 44 42 39 41 35 37 26 19 21 27 29 26 26 23 20 20 16 18 17 14 16 18 16
71 87 63 57 35 16 15 54 100 100 100 100 100 100 100 98 80 100 100 78 60 54 55 52 46 43 40 43 39 24 22 23 31 29 25 24 21 21 21 19 17 14 14 18 19
88 85 62 51 19 17 50 99 100 100 100 100 100 100 100 99 99 100 100 96 78 62 56 60 53 47 47 45 42 40 32 29 28 32 31 26 25 17 25 27 21 17 12 16 20
100 92 69 41 16 26 75 100 100 100 100 100 100 100 100 99 100 100 100 100 93 84 76 78 70 51 51 50 41 39 40 35 33 34 30 26 26 25 28 26 26 19 15 13 17
100 94 75 44 23 42 83 100 100 100 100 100 100 100 100 100 100 100 100 100 100 100 91 89 65 54 53 47 48 38 37 37 41 35 32 26 27 30 26 23 24 24 17 14 14
100 100 87 64 28 51 78 100 100 100 100 100 100 100 100 100 100 100 100 100 100 100 99 86 65 62 62 64 54 53 43 39 40 32 30 28 28 28 24 20 22 24 22 16 14
82 100 98 72 44 34 80 93 100 100 100 100 100 100 100 100 100 100 100 100 99 100 100 78 64 62 76 86 61 47 40 41 41 40 34 35 30 35 27 22 26 24 24 21 16
82 90 100 96 73 33 37 87 98 100 100 100 100 100 100 100 100 100 100 100 92 90 78 68 56 70 66 59 48 51 47 48 50 48 46 51 33 38 33 24 28 29 24 26 21
58 85 100 100 95 76 45 47 77 78 99 100 100 100 100 100 99 96 91 83 100 100 96 74 64 76 63 60 60 62 57 51 52 50 44 50 42 40 45 47 31 40 28 28 26
53 56 88 100 100 91 85 69 46 61 86 99 97 94 82 78 93 90 73 80 82 94 98 86 95 97 79 64 48 55 55 52 56 52 43 52 50 39 45 50 52 44 44 30 32
62 56 64 82 95 100 99 86 78 62 47 59 59 74 73 74 87 93 88 96 98 96 85 76 100 82 64 58 57 54 56 46 52 51 45 46 47 47 43 46 60 60 47 36 33
40 61 62 62 99 100 98 89 94 87 70 78 81 80 89 93 92 89 85 82 81 70 59 63 83 71 59 69 52 52 53 44 51 50 46 44 27 57 48 55 60 47 42 34 35
37 41 57 66 80 89 85 96 96 83 78 85 98 98 95 95 91 89 92 90 78 59 51 49 52 52 60 67 50 48 55 52 52 50 30 51 23 47 64 63 72 63 46 35 32
27 38 45 63 93 96 78 87 89 86 98 100 100 100 100 96 90 88 84 71 59 39 34 39 47 53 57 61 56 51 50 44 39 33 19 47 29 34 75 85 80 70 56 37 29
16 32 45 52 81 84 97 91 85 97 100 100 96 92 100 99 100 94 77 74 48 28 28 40 47 52 54 43 37 36 39 36 34 28 22 41 18 24 71 93 80 83 66 36 29
9 24 46 43 59 68 78 94 97 100 100 98 90 94 92 94 90 75 72 45 40 52 50 41 41 42 38 38 35 34 33 37 23 20 22 27 30 35 52 87 77 79 70 41 35
8 14 36 34 56 63 72 78 89 100 98 84 99 100 100 93 80 69 43 50 58 49 42 39 32 28 25 16 13 12 13 10 7 6 7 16 18 31 57 96 85 68 85 41 36
7 8 24 24 52 65 86 83 89 96 81 96 100 100 96 85 67 59 55 48 40 42 30 22 19 12 10 7 6 7 7 8 6 8 10 12 13 21 60 75 65 65 61 39 42
6 11 19 15 27 60 88 92 95 85 78 100 100 100 80 69 61 55 53 52 49 40 27 19 14 11 9 8 6 5 4 6 8 9 8 12 19 25 37 51 50 48 49 38 39
8 11 14 10 19 55 76 99 84 76 87 100 100 80 73 58 60 65 60 63 73 63 39 28 19 14 21 12 10 8 9 8 8 8 8 13 23 31 41 55 58 56 42 39 39
8 7 7 11 16 26 46 62 79 76 99 100 84 81 59 64 73 100 100 77 96 91 76 89 100 88 87 99 81 49 28 20 23 21 23 35 46 69 98 100 83 64 42 39 38
8 10 21 33 31 31 37 51 60 83 100 87 84 69 76 75 79 98 96 85 100 100 100 100 100 100 100 100 100 100 97 62 57 58 78 93 98 98 100 100 74 45 42 38 45
14 19 21 13 13 23 37 51 66 88 82 87 77 76 90 72 100 95 73 61 96 100 100 100 100 100 100 100 100 100 100 100 100 100 100 100 100 100 100 90 70 39 41 46 48
13 14 13 13 21 27 36 49 76 80 92 81 66 86 93 86 99 91 82 91 97 100 100 100 100 100 100 100 100 100 100 100 100 100 100 100 100 100 100 86 56 42 43 48 56

GFSSW_250_rhum_024.txt.gz
RH
66 57 60 88 86 82 75 67 65 72 82 98 100 100 96 95 74 57 72 60 55 46 46 43 32 29 28 25 21 22 24 28 26 22 18 12 12 12 11 11 11 13 17 16 21
50 61 71 50 62 74 79 85 73 62 70 76 75 83 100 100 100 68 58 76 78 58 55 47 42 38 32 27 26 22 25 28 27 25 24 16 14 13 12 15 14 13 14 18 16
52 61 50 42 41 46 68 77 82 77 65 72 80 80 82 90 99 86 53 70 88 90 65 50 49 40 37 36 34 27 28 28 28 25 23 20 20 17 19 15 15 13 12 15 18
25 23 26 30 37 45 49 89 90 72 71 66 70 77 73 79 91 98 65 60 82 100 78 58 57 41 42 41 38 35 31 29 32 25 20 17 19 23 22 24 17 14 14 15 16
17 20 25 32 34 45 45 68 100 84 74 72 73 75 86 96 97 98 82 73 74 88 94 80 76 53 44 44 43 36 36 33 40 32 23 19 18 21 26 28 23 17 14 13 15
16 19 25 32 35 45 52 74 97 87 83 80 75 67 53 78 100 100 100 80 83 91 99 100 93 79 61 47 42 45 44 42 40 49 34 21 18 16 30 28 26 20 15 12 13
18 22 30 36 42 63 79 83 92 88 74 68 43 29 64 100 100 100 100 99 80 86 88 100 100 97 76 64 55 54 48 45 46 42 42 32 25 23 24 23 25 24 20 16 13
21 26 30 38 62 82 90 95 84 67 49 26 25 64 100 100 100 100 100 100 99 87 84 100 100 100 95 78 64 62 53 47 48 44 40 33 38 33 25 19 22 23 21 19 18
38 28 44 50 87 99 100 89 65 40 18 30 66 100 100 100 100 100 100 100 100 92 65 88 100 100 100 100 84 84 62 49 44 44 40 35 33 38 28 25 24 25 26 23 21
58 45 38 56 88 100 99 84 57 27 24 64 100 100 100 100 100 100 100 100 100 100 98 87 91 100 100 100 98 80 57 51 49 56 44 43 35 45 41 27 26 23 23 22 23
61 63 55 49 77 100 100 94 66 30 41 65 100 100 100 100 100 100 100 100 100 100 100 100 82 100 100 100 91 63 58 59 52 56 48 43 37 45 46 31 28 26 24 24 22
45 60 71 61 59 99 100 100 78 40 48 68 100 100 100 100 100 100 100 100 100 100 99 100 100 100 100 90 79 70 77 66 52 54 46 45 37 39 45 42 34 32 30 29 26
27 43 60 75 72 70 100 99 84 54 41 76 98 96 100 100 100 100 100 100 100 100 100 100 97 82 66 70 71 61 54 47 41 49 52 46 37 38 49 44 43 40 38 37 34
23 33 43 61 73 72 92 100 92 81 40 59 80 100 93 94 96 98 100 100 100 97 65 57 73 72 70 59 71 75 76 69 56 44 46 46 34 44 44 49 58 53 43 51 65
8 21 35 46 58 80 94 100 100 100 78 53 48 92 89 96 97 85 78 72 70 70 67 71 73 68 55 66 56 59 80 63 52 49 38 47 25 40 47 58 70 74 59 53 72
6 10 26 36 50 82 88 85 100 98 94 87 77 64 67 76 82 87 92 81 78 70 66 70 61 62 70 74 65 58 61 64 50 40 26 37 25 33 69 74 95 89 70 59 66
5 7 14 30 40 78 83 93 86 94 100 100 100 96 82 72 76 77 76 76 75 75 80 91 100 92 87 78 52 32 25 25 22 20 20 32 28 25 57 98 95 85 80 70 78
4 7 10 26 37 63 78 72 74 100 100 100 100 100 100 99 100 100 100 95 96 100 98 86 76 68 58 36 24 26 27 24 24 24 23 27 19 31 47 62 90 97 74 77 80
4 6 8 22 34 46 86 76 92 100 100 100 100 100 100 100 100 97 99 100 97 90 74 64 54 37 36 45 45 41 30 32 19 19 19 21 25 30 34 55 65 88 88 73 76
4 6 8 16 29 46 84 88 94 100 100 100 100 100 100 100 100 100 100 100 87 67 53 41 44 44 37 32 29 24 26 25 20 14 12 13 18 24 34 57 56 70 76 63 63
4 7 9 16 27 37 87 87 100 100 100 100 100 100 100 100 100 100 99 74 60 48 43 41 39 35 30 26 17 11 9 8 7 8 6 6 9 20 27 48 61 65 67 58 64
5 7 11 15 20 32 93 93 100 100 100 94 100 100 100 100 100 94 71 63 50 52 66 58 54 61 34 25 16 10 5 4 4 4 4 4 6 7 17 30 50 56 48 57 78
5 7 10 12 15 42 85 80 92 91 91 100 100 100 100 100 93 71 65 56 63 91 100 100 100 90 64 62 39 20 8 5 4 4 4 4 5 4 9 15 24 39 43 70 99
7 8 9 10 15 34 61 78 92 88 90 100 100 100 100 97 71 70 63 72 88 100 99 100 100 100 91 92 64 31 20 11 9 9 8 8 8 9 10 14 21 30 40 54 78
8 8 10 12 17 22 50 72 82 78 92 95 100 100 100 65 74 74 96 98 89 93 100 100 100 100 100 100 100 86 55 40 29 22 13 10 9 12 18 22 28 34 43 57 62
8 11 12 12 14 26 39 60 94 100 100 100 100 99 68 76 74 100 90 99 80 81 97 100 100 100 100 100 100 100 99 97 83 67 47 24 23 36 52 62 71 67 54 50 55
10 12 12 13 18 23 38 54 82 97 100 100 99 76 68 79 90 84 99 100 74 70 100 100 100 100 100 100 100 100 100 99 91 86 61 84 100 98 100 100 100 85 94 79 58

GFSSW_250_rhum_027.txt.gz
RH
93 79 88 67 56 78 100 82 74 72 75 60 62 76 94 96 82 81 75 70 64 55 61 55 48 39 35 28 27 25 22 27 27 21 17 13 14 13 13 13 11 11 13 14 14
81 85 86 100 78 68 67 80 100 82 74 76 61 66 78 96 99 100 94 89 69 56 54 70 67 50 40 35 34 27 31 31 24 21 19 13 15 18 19 18 15 13 13 13 13
41 65 69 71 76 70 76 72 82 94 97 80 73 69 67 76 98 100 99 95 86 73 52 57 72 70 46 45 40 34 40 33 30 26 23 19 19 19 20 21 17 14 12 13 14
24 51 58 56 55 63 61 72 77 66 88 98 82 74 74 78 82 88 100 100 100 100 78 60 63 84 59 53 55 42 43 39 38 35 29 22 20 21 22 26 18 16 13 12 12
23 30 45 56 50 55 58 55 50 49 54 72 100 92 82 80 83 83 83 87 92 97 89 62 55 75 82 53 52 53 47 46 43 38 32 24 23 19 25 24 18 15 17 17 13
20 17 18 26 26 32 31 43 42 31 35 49 69 100 100 90 84 89 85 86 88 79 87 90 70 58 79 78 62 69 58 50 48 46 40 33 27 22 29 24 19 15 15 17 20
31 27 18 17 19 21 23 30 27 25 33 46 60 82 100 100 88 92 91 84 85 89 86 89 77 60 64 84 86 92 91 63 53 48 44 41 38 34 28 26 23 19 16 19 21
40 38 29 22 18 17 21 20 25 29 41 48 71 88 100 100 100 100 99 94 98 99 100 100 96 65 64 83 96 90 86 85 68 55 45 47 45 40 34 33 34 26 20 18 20
44 46 45 38 24 22 22 24 28 40 46 59 76 90 97 100 97 100 100 100 100 100 100 100 97 75 70 74 85 100 100 97 90 72 66 44 41 45 36 33 33 36 32 27 24
37 48 54 56 43 31 27 33 37 55 70 92 100 89 96 100 100 100 97 95 100 100 98 96 96 98 92 80 85 95 100 100 100 100 83 60 43 44 35 36 33 31 33 36 33
34 34 52 52 59 37 34 39 56 85 100 100 100 98 96 95 95 88 86 90 97 98 100 99 99 100 100 94 83 66 75 100 100 100 98 60 42 45 44 42 49 40 34 34 36
19 27 37 55 52 54 34 55 66 100 94 88 99 85 59 50 50 46 69 92 100 100 100 100 100 100 100 100 88 75 70 84 91 100 87 89 61 58 64 48 52 53 41 42 41
7 8 27 42 44 50 55 71 73 98 78 87 99 72 38 27 44 70 87 100 100 100 100 100 100 99 93 93 86 86 73 74 67 74 58 62 59 64 72 65 51 63 59 50 51
4 5 8 32 41 49 58 60 88 88 82 88 87 61 33 30 62 91 94 100 100 100 100 99 93 82 80 88 94 87 97 80 58 55 57 49 37 66 55 59 54 64 67 65 55
2 3 6 13 30 43 59 72 74 84 78 83 80 59 50 47 95 84 88 95 100 100 100 100 100 100 100 100 82 74 66 61 50 45 39 38 36 43 68 93 90 75 68 68 63
2 3 5 8 20 44 53 80 60 68 88 92 79 61 53 76 94 82 89 90 90 93 96 93 90 96 87 77 62 54 53 53 53 50 34 50 41 45 77 99 100 87 70 67 65
2 2 5 8 16 38 50 64 47 64 100 100 93 74 61 61 92 95 98 99 93 86 86 83 78 67 67 60 58 59 64 60 52 44 32 39 36 40 58 84 100 84 66 64 67
2 3 5 8 12 25 47 50 59 95 98 100 100 92 79 76 74 79 92 94 91 92 84 81 84 77 75 77 84 67 54 53 43 40 34 29 16 23 35 47 68 82 57 51 57
2 3 5 8 10 17 44 53 83 98 97 100 100 100 94 99 100 98 97 94 95 95 97 100 98 99 79 83 71 72 63 49 26 20 18 21 23 22 46 27 21 56 89 65 52
2 3 5 7 10 20 38 60 100 92 100 98 100 100 100 100 100 100 100 100 100 100 99 100 99 77 70 60 46 39 32 28 23 15 12 13 14 24 48 20 20 53 82 83 55
3 3 6 8 11 17 36 68 93 92 94 96 97 100 100 100 100 100 100 100 100 100 100 84 64 55 48 42 32 26 25 17 12 12 9 7 8 12 22 27 24 40 76 78 68
3 4 6 8 10 14 42 68 91 98 95 100 100 100 100 100 100 100 100 100 100 96 85 59 50 65 64 70 75 63 44 23 9 5 4 3 5 5 11 19 18 26 46 62 66
3 4 6 8 9 17 44 77 87 100 98 95 100 100 100 100 100 100 100 100 90 79 64 68 80 83 84 84 86 53 43 22 12 7 4 3 4 2 3 13 18 20 33 47 60
3 5 6 9 13 26 50 73 92 100 100 99 100 100 100 100 100 100 100 83 75 66 73 75 98 90 80 79 62 76 68 36 21 13 9 7 4 2 4 4 11 17 25 39 44
4 6 8 11 16 27 45 66 81 100 100 100 100 100 100 100 100 99 86 74 68 72 92 99 84 70 82 71 90 94 87 66 39 16 10 9 10 8 7 7 8 11 21 30 34
5 7 9 10 12 20 44 89 91 100 100 98 100 100 100 100 99 87 78 66 76 99 100 92 71 89 100 100 99 99 99 91 64 50 33 36 22 21 18 16 14 14 17 28 34
7 9 10 11 13 21 42 66 93 100 100 100 100 100 100 95 88 82 72 74 96 100 97 93 71 100 100 94 100 100 100 100 77 66 66 61 68 34 57 60 34 38 43 38 41

GFSSW_250_rhum_030.txt.gz
RH
13 18 28 50 67 64 70 70 74 98 93 84 83 83 100 100 100 100 100 100 100 100 99 95 99 100 100 94 77 75 62 54 47 45 36 31 29 24 17 15 15 16 18 19 19
12 15 19 33 67 81 74 70 64 81 100 97 84 79 78 99 100 100 100 100 100 100 94 90 90 84 93 77 66 61 50 42 34 29 25 21 19 18 17 17 17 16 14 14 14
12 15 22 22 54 73 89 96 78 68 76 97 98 91 82 84 99 100 99 100 100 100 93 92 87 76 69 77 72 60 49 41 33 26 23 21 18 18 19 20 20 16 17 16 12
12 15 24 28 50 53 86 89 90 86 92 96 100 100 99 88 86 81 83 100 100 100 100 94 89 88 66 56 62 68 57 44 42 38 33 26 23 23 23 24 20 18 18 19 19
16 16 17 30 54 67 63 70 84 94 100 96 95 100 100 96 98 90 75 80 94 100 100 100 100 98 81 62 59 71 80 57 57 55 42 34 32 30 29 31 25 20 19 22 21
19 24 22 21 40 69 79 81 69 66 78 94 92 93 100 100 100 98 86 79 77 89 99 100 100 100 100 81 61 66 76 74 58 64 62 50 40 36 35 26 25 26 24 22 23
19 27 28 29 26 31 50 76 59 73 69 89 78 74 83 95 100 100 96 86 81 80 83 100 100 100 100 89 67 64 62 73 76 63 79 69 53 40 40 32 32 27 28 25 26
21 23 32 35 42 32 23 27 34 52 57 60 74 76 59 69 78 100 100 97 93 92 92 97 97 97 91 88 83 62 62 66 75 82 76 91 83 64 50 42 36 34 32 33 32
25 32 27 34 37 41 36 28 22 30 45 78 69 82 55 58 63 86 100 100 100 100 99 98 100 97 93 91 85 80 67 56 64 71 87 84 86 84 65 56 44 42 38 38 38
30 27 35 34 37 37 40 34 24 21 25 41 61 46 46 44 36 66 83 100 100 100 100 100 95 95 97 89 87 80 73 71 57 62 82 90 83 100 90 76 58 42 37 34 38
9 12 20 34 42 44 41 30 29 24 38 44 38 36 39 44 46 48 77 97 100 100 100 100 100 100 97 95 90 88 89 85 84 71 72 85 98 100 100 100 96 66 57 43 40
5 6 8 14 36 46 40 39 68 36 32 24 32 38 42 50 55 65 89 99 100 100 100 100 100 100 100 100 96 94 94 88 95 90 70 72 89 100 100 100 100 100 85 68 59
3 3 4 6 14 38 37 62 71 52 54 47 54 63 68 73 74 83 91 97 92 98 100 100 100 100 100 99 100 100 85 100 89 82 78 82 67 90 99 100 100 100 100 93 66
2 2 2 4 8 20 49 68 71 54 50 54 74 72 79 94 88 92 96 99 96 100 100 100 100 100 100 100 96 81 83 87 86 83 79 74 46 67 94 100 100 94 91 96 70
2 2 2 3 6 13 47 69 76 50 40 46 65 82 100 100 99 100 97 96 100 100 100 100 100 100 100 91 77 88 87 83 70 66 63 61 46 44 63 80 100 83 72 70 60
2 2 2 3 6 10 40 60 65 36 43 50 84 90 100 100 97 88 66 49 56 71 79 79 77 85 85 82 86 86 80 74 69 60 45 50 38 33 48 58 74 76 66 57 57
2 2 2 3 4 9 31 54 42 42 63 68 99 100 100 99 84 71 48 51 64 60 67 66 84 91 99 94 84 76 71 64 56 50 42 43 39 40 61 55 63 61 67 50 40
2 2 2 3 4 8 26 50 36 69 73 85 98 97 100 96 73 50 62 59 61 74 86 97 100 100 90 76 66 63 66 63 52 56 54 44 40 39 45 43 43 41 44 59 53
2 2 2 3 5 10 24 39 45 95 84 92 95 98 92 84 54 49 50 58 77 94 100 100 100 83 82 75 77 81 91 76 60 51 38 39 42 41 39 40 40 35 41 58 75
2 2 2 3 6 9 19 42 59 81 79 85 88 90 96 82 66 61 66 74 90 99 99 98 100 93 82 99 88 73 62 61 53 38 32 28 19 21 17 15 19 28 25 40 57
2 2 3 4 6 10 18 48 74 66 76 87 86 96 100 96 85 89 95 96 100 100 100 100 100 100 93 82 70 67 56 49 54 48 24 10 13 10 8 7 12 18 14 19 26
2 3 4 6 8 11 24 60 72 60 86 95 98 100 100 100 100 96 99 100 100 100 100 100 98 80 76 62 56 62 65 58 40 24 14 6 13 3 5 6 6 13 13 17 19
3 4 4 6 10 18 44 74 64 74 96 100 100 100 100 100 95 98 99 96 98 100 96 92 75 64 55 70 71 71 76 79 80 45 11 8 9 3 3 4 5 10 12 18 22
4 5 6 8 10 19 43 58 64 81 100 100 100 100 100 100 100 100 99 100 96 98 95 75 57 65 96 73 68 93 100 100 94 52 29 11 8 7 4 3 2 3 11 17 27
5 5 7 9 10 17 41 56 76 94 100 100 100 100 100 100 100 99 99 97 96 88 65 59 62 100 76 69 71 94 100 96 99 69 36 21 16 11 8 4 3 4 7 16 29
6 6 8 10 12 18 36 57 91 95 100 96 96 100 100 100 99 97 91 98 83 64 70 64 99 81 64 72 93 100 96 95 78 65 58 52 28 25 16 10 5 5 6 17 30
7 9 9 10 13 23 47 64 96 100 100 100 100 100 95 100 100 91 99 81 67 74 86 89 96 80 96 66 71 100 96 100 100 82 79 93 99 65 38 26 18 10 10 28 37

GFSSW_250_rhum_033.txt.gz
RH
9 10 11 14 24 27 36 44 52 52 60 54 66 100 100 100 100 100 100 100 100 100 100 100 100 100 100 97 93 79 66 74 84 59 62 49 62 53 62 53 44 33 34 33 32
8 9 11 13 18 32 43 38 44 56 70 75 63 68 100 100 100 100 100 100 100 100 100 100 100 100 100 100 93 86 91 97 88 74 74 68 68 60 52 42 38 36 32 28 27
8 9 11 12 15 27 40 58 48 60 64 82 81 75 69 85 100 100 100 100 100 100 100 100 100 100 100 100 95 100 99 93 84 84 74 65 64 56 52 45 36 30 22 22 21
7 8 11 12 15 22 29 39 59 70 79 74 98 94 88 80 71 100 100 100 100 100 100 100 100 100 100 98 88 90 93 100 90 82 73 65 60 53 46 39 30 24 20 18 18
8 8 10 14 16 19 28 30 45 71 66 79 89 100 98 100 89 93 95 100 100 100 100 100 100 100 100 100 98 93 91 86 88 89 78 72 62 50 39 31 26 24 21 20 19
9 9 10 13 18 18 23 37 47 55 72 92 99 99 91 100 97 98 100 95 92 100 100 100 100 100 100 100 100 89 74 66 73 77 70 71 62 49 43 35 30 32 28 24 21
12 13 12 14 17 20 24 36 47 49 79 100 100 95 100 96 96 100 100 100 98 94 98 100 100 100 100 99 91 88 87 78 74 73 66 84 80 57 56 53 52 42 38 35 32
14 15 18 17 19 21 24 29 33 49 68 100 98 99 100 98 100 100 100 100 100 100 98 99 99 99 100 100 100 94 93 91 87 86 71 66 79 64 59 62 61 49 43 41 41
14 18 19 22 23 28 30 29 28 31 58 95 90 78 94 99 98 100 100 100 100 100 100 100 96 96 94 100 99 97 100 100 100 93 66 65 69 72 65 62 65 79 64 61 52
18 15 16 22 22 29 36 40 32 29 33 52 80 83 90 94 100 100 88 92 96 100 100 100 100 100 96 87 99 95 93 96 91 89 77 69 60 66 66 70 70 97 98 75 56
8 9 9 8 18 25 32 43 34 26 29 41 60 56 100 93 97 100 92 88 94 100 100 100 100 100 100 98 98 95 90 88 92 88 80 69 62 66 67 66 69 78 91 100 87
3 3 4 5 7 22 26 34 39 58 100 64 44 34 40 71 78 95 98 96 87 99 89 98 100 100 100 100 100 100 96 87 83 78 65 70 71 73 75 65 64 73 99 100 100
2 2 2 3 4 9 34 44 47 75 90 56 44 33 25 25 44 66 78 63 77 74 88 97 100 100 100 100 100 100 98 94 86 78 76 76 72 72 69 78 86 78 98 100 100
2 2 2 2 3 6 18 49 52 64 82 56 56 36 24 22 27 32 50 46 59 55 50 54 96 100 100 100 100 100 100 99 94 87 86 86 66 80 90 82 97 100 99 100 100
3 3 3 2 3 4 9 36 54 76 63 56 46 36 25 28 39 37 40 44 61 60 58 66 93 100 100 100 100 100 96 93 87 86 84 94 84 79 100 97 100 100 91 75 76
2 3 3 3 3 4 7 17 53 74 47 57 53 44 42 56 59 70 63 68 77 78 82 96 98 100 100 100 100 100 100 100 96 93 86 95 83 72 92 76 100 100 78 70 63
2 2 2 2 2 4 6 11 47 54 55 69 63 59 67 83 89 89 96 98 93 91 91 97 100 100 99 96 99 100 100 100 100 95 81 60 44 55 73 50 62 60 66 63 52
2 2 2 2 3 4 6 11 32 50 65 74 72 61 79 92 92 99 100 100 100 100 97 99 100 100 100 100 100 100 90 78 54 46 45 46 48 51 54 55 41 42 37 40 45
2 2 2 2 3 4 7 11 24 58 66 85 74 72 90 96 100 100 100 94 92 87 72 57 60 65 68 62 56 50 52 62 56 55 47 56 61 56 78 56 37 30 22 20 29
2 2 2 3 3 4 7 9 32 47 78 83 72 82 100 100 98 100 96 92 78 61 45 55 69 82 78 56 52 65 77 76 77 68 71 66 61 68 36 24 21 26 18 23 23
2 2 2 3 4 6 10 21 48 66 73 75 70 93 96 95 88 88 95 64 51 59 74 84 79 74 59 71 86 85 78 84 81 69 62 58 69 17 15 11 10 8 8 10 19
2 2 3 3 5 8 15 41 56 65 88 78 86 90 98 100 97 93 62 59 61 69 73 84 90 83 85 76 92 100 80 72 80 74 70 59 42 29 15 6 5 5 5 6 9
3 3 4 5 7 11 25 44 60 59 84 90 92 97 100 100 100 82 76 74 72 76 84 91 87 80 84 98 75 71 70 68 71 86 99 72 46 11 8 6 6 3 5 6 8
5 5 5 7 10 13 34 47 56 72 87 92 88 96 100 100 100 96 85 78 78 83 94 96 88 80 100 72 78 69 91 82 77 93 100 88 61 42 10 8 6 4 2 3 6
6 7 7 8 10 16 37 52 61 87 89 94 97 93 100 100 99 91 81 81 83 88 90 86 81 73 71 78 70 90 78 70 91 100 100 100 84 62 38 12 6 4 3 3 4
7 9 9 10 10 16 31 55 70 92 96 98 96 88 91 95 99 84 91 83 86 88 86 78 69 66 84 69 81 78 100 100 100 100 97 100 96 90 46 23 11 5 3 3 3
8 9 11 12 13 16 38 54 69 93 100 100 95 87 93 100 100 98 92 88 92 87 82 76 72 90 78 70 78 99 100 98 100 100 97 91 100 99 75 36 18 8 6 5 6

GFSSW_250_rhum_036.txt.gz
RH
7 8 9 9 10 10 12 14 16 21 24 31 62 100 100 100 100 100 93 96 98 100 100 100 98 92 84 82 77 75 56 66 77 44 55 33 30 33 32 35 31 29 29 25 27
7 8 9 10 9 11 12 14 18 21 26 32 37 57 99 100 100 100 100 100 100 100 100 100 100 100 99 100 81 87 78 90 79 64 62 58 46 42 42 37 36 44 36 39 33
8 8 8 9 10 10 11 12 19 22 27 30 35 46 50 84 100 100 100 100 100 100 98 100 100 100 100 100 100 100 100 100 90 74 60 60 46 57 45 49 52 48 44 56 64
9 9 9 8 9 11 11 13 15 28 31 29 45 41 55 55 76 100 100 100 100 100 100 100 100 100 100 100 100 100 100 100 95 74 76 73 66 65 52 57 60 65 59 59 60
10 10 10 10 9 10 12 13 14 19 39 44 48 51 57 61 62 87 96 100 100 100 100 100 100 100 100 100 100 100 100 100 100 75 90 79 84 71 71 66 66 58 59 56 50
9 10 11 10 10 10 12 16 15 18 31 55 63 61 69 64 83 85 79 93 100 100 100 100 100 100 98 100 100 100 100 100 99 90 88 80 93 86 90 81 70 63 63 57 48
10 10 10 12 10 10 11 16 19 17 30 50 84 71 73 76 99 93 90 90 78 100 100 100 100 100 100 100 100 100 100 100 100 100 83 71 68 88 96 86 78 66 57 51 44
12 11 11 11 12 10 11 15 19 21 21 36 63 79 95 73 85 95 95 92 97 90 87 100 100 100 100 100 100 100 100 100 100 100 100 77 76 71 67 74 73 67 72 61 51
9 10 10 9 10 12 12 14 19 25 26 22 42 55 67 84 97 97 100 100 97 98 95 84 80 95 100 100 100 100 100 100 100 100 100 89 72 68 59 65 77 73 69 72 62
5 4 4 5 5 11 14 15 21 23 27 25 24 40 75 87 100 100 100 100 100 98 94 99 98 92 87 86 100 100 100 100 100 92 91 76 72 75 67 72 78 68 74 72 64
2 2 2 2 2 4 14 17 19 20 17 29 41 43 65 78 100 100 100 97 100 100 100 100 100 100 100 97 83 88 100 99 99 83 88 81 76 76 77 69 84 68 67 66 71
2 2 3 3 2 3 8 20 20 22 22 39 36 35 74 67 82 89 100 100 100 99 100 100 98 98 96 98 100 98 92 91 84 83 79 81 73 74 76 64 64 72 68 69 67
2 2 3 3 3 3 5 14 25 23 26 51 43 39 51 57 83 94 97 100 99 96 100 100 100 100 100 100 100 98 100 98 93 85 82 72 67 61 67 72 72 77 77 73 67
2 2 2 3 3 4 4 11 25 26 30 57 45 35 37 44 71 82 93 100 97 100 100 100 99 92 100 100 98 97 100 99 96 94 84 81 71 75 68 75 82 89 78 69 70
2 2 2 3 3 3 4 9 25 26 32 55 57 57 46 41 47 45 57 84 97 88 96 100 100 98 97 98 100 100 100 94 86 85 85 87 83 88 100 94 87 87 86 84 72
2 2 2 2 3 4 4 7 9 24 32 46 60 68 59 61 57 52 49 56 80 88 82 87 94 93 91 84 83 85 94 89 90 86 80 96 86 77 100 99 93 80 70 61 62
2 2 2 2 2 3 4 6 6 22 37 74 89 89 72 72 60 44 39 39 41 58 72 74 78 71 76 66 59 58 65 78 88 89 95 94 88 100 100 100 78 86 79 68 68
2 2 2 2 2 3 3 3 6 27 50 88 92 78 66 71 54 38 34 31 36 38 44 55 53 54 54 56 54 49 74 86 88 91 98 100 94 98 100 100 94 64 69 69 55
2 2 2 2 2 2 3 4 7 22 80 96 89 70 76 74 51 51 70 60 62 71 61 65 81 70 69 81 82 92 80 93 96 92 84 100 100 99 85 76 74 46 37 32 25
2 2 2 2 2 3 4 5 9 56 89 86 81 82 94 74 71 92 94 90 93 96 98 99 96 96 99 97 95 100 100 100 96 87 76 58 50 49 51 47 56 44 38 36 22
3 3 2 2 2 3 3 7 18 69 89 82 79 74 73 67 75 84 94 98 99 100 100 99 100 96 88 79 74 71 61 54 64 90 63 64 64 60 46 33 39 37 17 16 12
3 3 3 3 3 4 8 12 21 74 78 76 77 74 80 80 86 92 100 100 100 100 100 85 72 56 42 50 64 92 82 81 71 73 78 66 69 63 71 50 42 27 17 12 9
3 4 4 4 5 9 12 17 55 72 79 78 74 82 84 95 100 100 100 98 92 77 57 47 40 44 64 91 99 77 69 66 65 78 88 90 86 75 63 53 36 19 11 8 6
4 6 6 6 7 9 13 36 63 68 79 82 86 91 100 100 100 99 96 76 58 48 49 57 62 71 98 92 85 76 63 73 91 88 79 83 78 98 99 84 36 16 11 7 6
6 7 7 8 8 10 18 38 54 72 84 86 94 100 100 100 100 99 86 72 67 69 67 66 78 100 84 90 65 66 87 78 95 93 73 88 85 96 93 59 28 15 8 4 4
9 9 9 10 11 14 18 28 58 74 89 95 98 100 100 100 100 100 88 79 71 69 67 71 100 94 70 71 70 77 100 100 85 100 96 85 86 94 90 45 23 13 6 5 4
11 11 11 12 12 16 31 58 77 90 88 92 96 100 100 100 100 98 87 75 67 66 69 98 97 69 76 76 67 92 98 82 92 100 88 100 94 91 85 64 34 12 8 8 6

GFSSW_250_rhum_039.txt.gz
RH
7 6 6 7 8 8 9 10 10 11 15 21 32 95 100 100 100 100 100 100 100 100 100 100 100 97 87 60 65 49 26 36 49 43 55 37 38 34 34 36 35 30 24 24 31
8 6 7 7 8 9 9 10 11 12 13 17 27 37 92 100 100 100 100 100 100 100 100 100 100 98 87 94 72 62 51 54 58 57 47 26 25 32 33 38 32 34 29 22 21
8 7 7 8 8 9 10 10 11 13 13 14 18 28 51 76 100 100 100 100 100 100 100 100 100 100 96 96 87 84 87 91 75 64 51 48 39 31 33 35 38 32 29 26 26
7 6 7 7 8 8 10 10 10 12 12 14 16 19 31 52 89 100 100 100 100 100 100 100 100 100 100 100 94 95 98 100 100 82 70 79 74 46 39 49 43 40 28 38 38
6 6 6 8 8 8 9 10 10 11 13 14 15 16 24 32 75 83 100 100 100 100 100 100 100 100 100 99 95 94 94 97 98 90 91 98 96 88 83 61 67 52 42 41 55
7 7 7 8 9 8 9 9 10 10 12 13 14 15 18 52 62 86 72 100 100 100 100 100 100 100 100 96 100 99 90 100 100 100 100 100 100 79 84 69 57 52 54 51 65
6 7 10 8 6 9 9 9 10 11 11 13 14 15 19 32 89 95 84 84 100 100 100 100 100 100 100 99 100 100 100 100 100 98 96 100 99 94 97 82 80 61 61 70 72
5 6 6 6 4 4 7 9 10 11 11 12 13 17 27 34 65 84 100 89 91 99 100 100 100 100 100 100 96 100 100 100 100 100 100 99 100 100 93 71 73 78 88 96 90
5 4 3 3 2 2 4 6 11 11 12 12 12 17 27 36 53 61 92 100 98 90 80 100 100 100 100 100 100 100 100 100 100 100 100 99 100 100 92 74 72 65 72 82 87
4 2 2 3 3 3 3 4 8 13 12 12 12 14 20 51 60 67 78 100 100 100 92 80 96 100 100 100 100 100 100 100 100 99 100 99 99 100 100 99 100 96 87 74 58
3 2 3 3 3 3 3 4 6 12 12 12 18 21 25 24 74 72 82 94 100 100 100 84 82 90 100 100 100 100 100 100 100 100 100 100 100 100 100 100 100 100 96 73 57
2 2 2 2 2 3 3 4 4 9 15 15 20 21 29 21 56 65 86 97 100 100 99 100 91 99 86 83 95 100 100 100 100 100 100 100 100 100 100 100 100 97 76 77 57
2 3 2 2 2 2 3 4 4 8 17 20 25 27 42 26 40 68 83 100 100 90 98 95 100 96 81 86 88 80 84 90 98 98 99 100 100 98 99 94 85 83 83 74 61
2 2 2 2 2 2 3 4 4 6 20 21 26 25 29 28 29 43 71 90 95 100 97 100 100 100 100 100 88 82 77 84 80 69 69 78 77 86 85 91 92 89 78 68 64
2 2 2 2 2 3 3 4 4 5 17 25 32 36 38 39 42 48 68 90 89 100 100 100 100 100 100 91 91 87 89 82 74 68 68 70 60 100 89 98 98 93 87 74 71
2 2 2 1 1 2 3 4 4 5 20 25 34 40 48 56 52 68 76 76 96 95 97 100 100 100 100 100 95 85 86 75 78 74 72 82 64 73 97 100 78 67 70 74 75
2 2 2 2 1 2 3 4 4 6 20 33 46 64 64 62 49 67 87 81 80 99 95 99 100 100 96 98 99 96 100 93 91 98 100 88 75 79 100 93 100 92 76 76 75
3 2 2 2 1 2 3 4 4 6 28 48 57 71 74 63 53 48 47 57 64 75 86 97 89 85 94 90 96 97 84 82 77 76 81 68 68 89 100 82 83 85 95 93 83
2 2 2 2 2 2 3 4 4 22 45 56 51 62 71 65 64 66 70 72 60 52 53 70 73 78 79 79 80 89 79 77 70 61 56 56 56 66 88 93 79 58 54 55 54
3 3 2 2 2 2 3 4 8 25 40 68 89 94 76 75 74 72 61 46 44 41 44 52 60 74 84 71 72 67 79 73 63 63 67 88 99 100 77 66 71 69 71 72 58
3 3 3 3 2 3 4 5 12 35 54 67 76 68 73 78 79 65 51 36 34 34 39 37 38 37 38 51 62 80 85 82 88 97 100 100 98 86 78 77 76 68 61 47 38
3 4 4 3 3 3 4 8 18 44 65 66 78 87 80 76 68 58 61 64 71 78 76 87 87 75 90 93 100 95 93 100 94 84 79 70 93 84 64 60 50 45 43 33 27
4 5 5 6 4 5 6 12 31 50 73 82 93 96 86 88 99 100 94 92 99 100 99 95 95 95 100 96 83 78 80 76 74 76 73 70 65 56 60 59 55 46 41 32 22
3 6 6 7 7 7 9 14 45 76 78 94 98 92 94 91 86 88 95 97 100 94 92 93 91 81 73 87 94 80 72 74 89 70 84 71 75 79 67 64 63 68 42 16 10
4 6 8 9 10 9 10 25 67 87 86 96 98 99 100 100 98 96 98 94 84 85 72 65 77 94 99 81 72 66 77 70 73 84 73 84 70 71 72 59 73 59 28 11 8
8 7 9 11 12 14 12 33 67 79 96 99 100 100 100 98 94 89 83 83 61 58 74 88 86 78 73 67 63 66 65 69 75 74 67 73 79 76 78 64 89 72 50 25 9
13 6 11 12 15 27 35 49 71 93 96 99 100 98 95 97 97 99 87 75 78 79 78 79 70 68 71 69 67 66 84 74 93 87 92 95 100 99 98 89 90 67 59 47 29

GFSSW_250_rhum_042.txt.gz
RH
8 8 7 6 6 6 6 7 8 8 8 10 12 22 61 63 99 100 100 100 100 100 100 100 100 97 84 78 74 53 49 59 61 53 60 43 39 37 42 53 56 56 56 48 42
6 6 7 7 6 7 6 6 8 9 9 9 11 13 26 81 84 100 100 100 100 100 100 100 100 94 88 87 74 60 53 63 71 62 54 41 38 33 31 36 51 42 44 45 41
6 6 6 6 6 6 7 7 8 9 9 10 10 11 17 44 100 100 100 100 100 100 100 100 100 100 100 92 86 80 77 70 60 66 59 51 46 37 32 38 54 29 24 33 42
7 7 6 5 6 6 7 8 8 9 10 10 10 11 14 22 88 100 100 100 100 100 100 100 100 100 100 100 100 99 98 95 96 78 70 58 48 49 37 43 41 33 25 27 30
6 6 6 6 6 6 7 8 9 9 10 11 11 11 13 16 33 96 100 100 100 100 100 100 100 100 100 100 100 100 90 96 99 83 85 87 88 68 55 51 35 35 34 36 38
6 5 5 6 5 5 6 6 9 9 10 11 11 12 12 18 24 42 99 100 100 100 100 100 100 100 100 100 100 100 100 100 100 100 100 100 100 86 75 55 41 44 36 40 54
6 4 5 4 3 2 3 4 7 10 10 11 11 12 12 21 26 38 45 100 100 100 100 100 100 100 100 100 100 100 100 100 100 100 97 94 92 98 90 65 78 76 80 61 56
4 4 4 3 3 3 3 3 3 8 11 11 11 11 15 15 34 38 34 55 99 100 100 100 100 100 100 100 100 100 100 100 100 97 100 86 100 100 100 82 82 98 84 93 96
4 4 2 2 3 2 3 3 3 5 11 11 11 13 14 17 36 33 39 42 69 99 100 100 100 100 100 100 100 100 100 100 100 100 100 92 100 100 100 100 100 100 100 97 90
4 3 2 2 2 2 2 3 4 3 7 12 13 13 14 22 22 34 44 45 60 96 98 100 100 100 100 100 100 100 100 100 100 100 100 98 100 100 100 100 100 100 95 100 100
4 3 2 2 2 2 2 3 4 3 4 11 16 17 17 15 18 22 39 44 68 61 94 93 100 100 100 100 100 100 100 100 100 100 100 100 100 100 100 100 100 100 100 100 100
3 2 2 2 2 2 2 3 4 4 4 12 20 20 18 19 17 27 33 44 56 81 85 92 97 100 100 100 100 100 100 100 100 100 100 100 100 100 100 100 100 100 100 100 100
3 2 2 2 2 2 2 3 4 4 4 11 21 24 18 22 22 42 60 87 63 72 94 100 100 94 92 92 100 100 100 100 100 100 100 100 100 100 100 100 100 100 100 100 100
3 2 2 2 2 1 2 3 3 4 4 11 27 28 20 19 20 26 44 52 48 65 86 92 100 95 90 88 86 88 100 100 100 100 100 100 100 100 100 100 100 100 100 100 100
3 2 3 2 1 1 2 3 3 4 6 13 31 30 22 24 33 32 39 63 85 73 80 99 98 100 100 100 82 83 92 88 97 100 100 100 100 100 100 100 100 100 100 100 100
2 2 3 2 1 2 2 3 4 4 6 13 30 24 24 30 36 33 47 39 92 100 92 98 92 94 100 100 100 100 80 77 85 82 83 90 97 100 100 100 100 95 93 90 86
2 3 3 2 1 2 3 4 4 4 8 22 34 29 33 58 68 64 67 80 95 100 100 98 96 100 97 93 97 97 94 88 70 68 77 80 76 100 79 88 82 74 68 69 71
3 3 2 2 2 1 2 3 4 6 18 33 29 40 53 65 74 58 57 80 83 100 100 99 90 97 90 99 94 92 89 91 96 96 87 95 87 91 87 82 79 67 60 53 49
3 3 3 2 2 2 2 3 6 18 28 32 34 49 58 65 67 64 56 45 55 62 86 93 84 96 92 89 88 93 87 92 94 99 96 97 100 94 95 82 63 56 58 64 62
3 3 3 3 2 2 3 4 9 21 29 33 59 71 85 85 81 65 43 60 56 58 70 77 85 98 94 92 93 93 96 92 82 86 90 90 96 98 71 51 46 42 37 33 32
4 4 4 4 3 2 3 7 14 24 42 55 72 97 97 85 81 66 60 58 62 80 76 68 68 76 88 96 96 100 99 86 73 71 75 94 88 65 54 56 60 60 56 54 52
6 4 6 6 5 4 4 9 20 37 53 50 61 66 76 88 75 72 71 73 76 81 74 65 68 79 93 96 99 96 84 80 72 76 77 63 78 72 88 99 97 86 74 56 44
6 5 6 8 8 6 7 18 33 37 46 65 87 97 93 90 100 95 74 62 53 47 44 45 53 60 68 72 68 72 75 71 82 78 77 87 99 96 92 88 84 70 56 50 45
7 9 8 10 11 9 10 18 37 54 72 86 88 85 96 92 83 83 93 89 73 73 80 77 89 85 87 82 78 82 97 96 84 94 88 80 77 77 71 63 60 55 51 50 46
8 12 7 12 12 12 12 25 42 64 82 95 100 100 99 100 90 99 98 97 100 100 98 90 94 94 91 95 94 90 81 85 89 88 80 73 75 88 88 67 60 64 78 73 59
11 12 13 11 15 14 18 43 59 74 82 96 93 95 96 99 98 100 98 100 99 93 91 100 100 100 90 74 69 73 86 78 77 77 85 70 72 67 68 63 79 80 88 74 41
11 13 18 10 16 18 23 41 68 79 93 100 100 100 89 95 99 98 92 93 100 97 82 78 84 83 79 81 74 83 74 68 80 78 73 89 90 77 93 80 75 91 86 69 45

GFSSW_250_rhum_045.txt.gz
RH
7 6 6 7 7 7 6 6 6 6 7 8 8 9 12 84 100 100 100 100 100 100 100 100 100 92 97 92 90 86 67 65 90 92 87 80 80 82 91 94 94 99 93 98 100
7 7 6 6 6 7 6 6 6 5 6 7 8 9 10 14 100 100 100 100 100 100 100 100 100 100 95 100 93 80 76 100 100 90 69 60 65 66 70 68 65 68 70 69 72
7 7 7 7 6 5 6 6 6 6 6 7 8 9 10 11 47 100 100 100 100 100 100 100 100 100 100 100 100 100 100 100 100 100 81 50 47 44 44 47 60 56 52 49 45
6 6 7 6 6 5 5 5 6 6 6 7 8 9 10 11 12 64 100 100 100 100 100 100 100 100 100 100 100 100 100 100 100 100 94 72 54 51 46 45 55 57 53 48 43
6 6 6 5 5 5 4 5 5 7 7 7 8 9 10 12 13 23 72 100 100 100 100 100 100 100 100 100 100 100 100 100 100 100 92 78 66 68 51 52 46 49 52 41 41
6 6 5 4 4 3 3 3 4 5 7 8 7 8 12 12 12 15 31 64 100 100 100 100 100 100 100 100 99 100 100 100 100 100 98 97 95 72 68 52 50 53 46 43 36
5 5 4 4 3 3 3 3 3 3 6 8 7 8 10 13 13 13 18 33 100 100 100 100 100 100 100 100 100 100 100 100 100 100 100 100 100 92 85 65 53 58 66 79 67
4 4 3 3 2 2 3 2 3 3 4 8 7 9 12 13 14 14 15 26 75 100 100 100 100 100 100 100 100 100 100 100 100 100 100 100 100 100 95 83 68 65 68 76 98
4 4 3 2 2 2 2 2 2 3 3 6 8 10 13 12 15 15 17 20 45 94 100 100 100 100 100 100 100 100 100 100 100 100 100 100 100 100 100 100 100 96 100 99 100
4 3 3 2 2 2 2 2 2 3 4 4 9 12 14 14 15 16 20 18 25 69 100 100 100 100 100 100 100 100 100 100 100 100 100 100 100 100 100 100 100 100 100 100 100
4 3 2 2 2 2 2 2 2 3 4 4 10 18 16 14 14 16 20 28 26 36 98 100 100 100 100 100 100 100 100 100 100 100 100 100 100 100 100 100 100 100 100 100 100
3 3 2 2 2 2 1 1 2 3 4 5 11 18 15 15 15 17 20 30 32 31 57 98 100 100 100 100 100 100 100 100 100 100 100 100 100 100 100 100 100 100 100 100 100
3 3 2 2 2 2 1 2 2 3 4 6 12 19 15 15 17 21 23 30 40 50 41 77 100 100 100 100 100 100 100 100 100 100 100 100 100 100 100 100 100 100 100 100 100
3 3 2 2 2 1 1 2 2 3 5 7 11 19 18 19 20 22 20 29 38 48 52 52 72 96 100 100 100 100 100 100 100 100 100 100 100 100 100 100 100 100 100 100 100
4 3 2 2 2 1 2 2 3 4 4 6 13 22 21 21 22 25 24 30 29 47 69 84 66 74 86 100 100 100 100 100 100 96 96 100 100 100 100 100 100 100 100 100 100
4 3 2 2 2 2 2 3 3 4 5 7 13 18 23 24 22 26 34 37 48 41 48 69 64 68 92 93 100 100 100 99 100 100 100 100 100 100 100 100 100 100 99 98 100
4 2 2 2 2 2 2 3 4 5 6 7 15 26 28 34 36 38 35 37 53 56 73 95 100 100 88 88 88 94 90 91 88 86 96 100 100 100 100 100 99 90 95 98 98
4 3 3 3 2 2 2 3 4 4 7 13 23 30 35 36 44 47 40 51 60 75 88 91 87 80 90 87 92 76 75 90 94 80 80 82 90 96 98 98 100 100 96 87 85
4 4 3 3 3 2 3 3 4 5 9 21 31 36 39 59 65 56 42 58 58 75 78 71 83 93 100 100 97 99 100 99 100 100 89 83 78 71 74 73 71 75 77 78 71
5 5 4 4 4 3 3 3 5 10 19 32 42 47 67 92 71 61 64 68 55 63 61 79 75 85 80 94 96 98 100 100 100 94 92 91 89 85 72 64 63 64 66 62 60
7 5 4 6 6 5 7 11 15 28 40 46 52 75 62 70 78 70 58 51 65 66 63 60 83 100 89 93 100 100 95 92 85 89 98 99 95 76 72 72 67 57 61 68 65
8 7 6 8 8 9 12 21 26 28 37 45 52 54 77 78 76 69 62 70 62 75 89 83 97 100 100 99 97 98 95 87 86 89 96 93 92 72 67 66 65 79 69 67 56
10 9 9 11 11 11 19 26 30 35 47 62 67 72 89 99 100 99 93 81 74 67 68 76 96 99 98 98 92 93 92 90 92 92 78 95 93 90 91 87 87 83 88 88 67
11 10 12 9 15 20 19 28 43 61 75 87 98 100 100 100 100 100 100 94 84 78 85 90 98 99 93 86 85 88 91 81 87 88 97 92 95 96 85 98 93 86 78 61 57
13 12 12 16 16 15 29 36 54 66 72 89 97 89 74 78 88 89 87 80 70 68 72 79 91 88 79 76 73 75 82 90 84 91 68 98 90 100 99 92 81 73 58 48 49
13 14 15 17 15 19 22 42 59 66 77 88 95 94 99 99 98 80 78 75 76 70 67 67 61 58 57 53 63 75 80 78 85 96 100 100 100 90 77 69 66 57 48 52 66
10 15 16 20 22 17 25 30 53 68 81 84 85 90 98 92 82 78 77 85 96 99 94 96 99 99 94 95 100 99 100 98 94 95 100 96 87 78 74 76 58 49 52 60 77

GFSSW_250_rhum_048.txt.gz
RH
8 8 7 7 6 6 6 6 8 7 7 6 6 6 6 7 12 35 99 100 100 100 100 100 100 100 89 86 79 82 85 88 100 100 100 93 87 83 100 100 100 92 95 85 83
8 7 7 7 7 6 5 5 5 6 6 6 6 6 5 6 8 32 76 100 100 100 100 100 100 100 99 90 92 85 90 100 100 100 100 92 83 81 90 100 100 100 100 100 100
7 7 7 6 7 6 5 4 5 5 5 5 6 5 5 6 7 15 60 97 100 100 100 100 100 100 100 100 88 94 99 100 100 100 100 92 84 79 82 99 98 97 96 94 91
6 6 6 6 6 5 4 4 3 5 5 4 5 5 6 5 7 10 31 92 100 100 100 100 100 100 100 100 100 100 99 100 100 100 100 93 78 78 75 100 100 96 93 93 86
6 5 5 5 5 4 3 3 2 3 4 4 5 5 5 5 7 9 11 85 97 100 100 100 100 100 100 100 100 100 100 100 100 100 100 97 89 87 86 88 86 91 79 74 71
5 5 4 4 4 3 2 2 2 2 2 3 5 6 4 6 6 9 10 14 97 100 100 100 100 100 100 100 100 100 100 100 100 100 100 100 92 86 100 90 69 74 83 68 65
4 4 4 3 3 2 3 2 2 2 2 3 4 5 6 8 6 9 10 14 30 100 100 100 100 100 100 100 100 100 100 100 100 100 100 100 100 100 100 96 86 79 88 76 68
4 3 3 3 2 2 3 2 2 2 2 3 3 5 8 8 7 10 11 12 16 94 100 100 100 100 100 100 100 100 100 100 100 100 100 100 100 100 100 100 96 86 100 98 100
3 3 3 2 2 2 2 2 2 2 2 3 3 4 10 8 9 10 12 13 15 25 100 100 100 100 100 100 100 100 100 100 100 100 100 100 100 100 100 99 100 100 99 100 99
4 3 3 2 2 2 2 2 2 2 2 2 3 5 11 10 11 12 14 16 15 20 35 100 100 100 100 100 100 100 100 100 100 94 86 84 94 100 99 86 87 89 100 100 100
4 3 3 2 2 2 2 1 1 2 2 2 4 8 13 11 11 12 15 18 16 17 25 76 100 100 100 100 100 100 100 100 100 100 100 100 100 100 100 100 100 92 89 92 100
4 4 3 2 2 2 1 1 1 2 2 3 6 8 10 12 12 15 15 18 18 21 22 46 93 100 100 100 100 100 100 100 100 100 100 100 100 100 100 100 96 100 100 93 98
4 4 2 2 2 2 1 1 2 2 2 3 6 7 10 14 14 16 17 20 20 24 23 35 27 98 100 100 100 100 100 100 100 100 100 100 100 100 100 100 100 100 100 100 96
5 3 2 2 2 2 1 2 2 2 3 4 6 6 12 15 16 18 20 20 24 25 22 23 22 67 100 100 100 100 100 100 100 100 100 100 100 100 100 100 100 100 100 100 100
4 4 2 2 2 2 2 2 3 3 3 4 6 9 14 17 19 19 19 21 24 27 35 32 46 52 92 77 100 100 100 100 100 100 100 100 100 100 100 100 100 100 100 100 100
4 3 3 2 2 2 2 3 3 3 5 6 6 11 17 21 19 22 23 22 28 25 28 41 34 45 59 79 96 100 100 100 100 100 100 100 100 100 100 100 100 100 100 100 99
5 4 3 2 2 2 2 3 4 5 6 6 7 15 22 26 24 24 20 24 35 32 31 46 54 58 56 76 91 100 100 100 100 100 100 100 100 100 100 100 92 89 88 95 100
6 5 3 2 3 3 3 3 4 4 7 7 12 22 28 28 27 28 22 24 33 47 44 62 92 93 78 83 92 100 100 100 100 100 100 100 100 100 100 88 92 89 80 74 75
7 6 4 3 3 4 3 3 4 6 9 12 24 37 36 37 37 30 25 32 42 49 58 48 62 80 83 82 87 100 100 100 100 100 100 100 100 98 86 86 83 88 85 77 72
8 7 6 5 5 6 6 6 6 8 16 27 40 40 39 39 40 31 33 49 52 57 50 56 64 72 88 89 95 81 93 100 100 97 98 96 92 92 89 81 78 79 75 74 75
9 9 8 7 8 11 11 10 10 13 20 29 33 40 37 35 46 43 44 54 70 76 70 64 62 73 72 84 96 95 96 89 92 100 98 94 84 83 75 70 64 58 56 54 53
12 10 9 9 11 16 18 19 21 24 24 26 28 25 24 40 43 42 50 56 64 67 71 62 67 76 82 93 100 99 100 94 83 85 91 80 70 74 66 76 66 69 69 78 82
13 12 10 11 13 20 25 24 24 26 28 32 40 50 68 84 89 85 74 62 63 74 76 70 81 79 86 85 90 100 98 99 100 98 93 92 84 82 92 90 92 94 85 83 83
15 15 12 11 13 19 31 34 39 45 64 80 83 84 81 88 89 83 69 60 60 62 78 85 94 88 80 75 80 80 84 81 94 94 92 95 92 90 95 90 82 86 97 86 77
12 16 13 12 13 17 40 38 50 52 67 79 78 80 81 87 84 71 60 65 67 64 74 88 83 80 82 95 96 100 100 89 80 82 89 82 87 92 92 89 99 99 94 78 78
10 17 15 14 13 16 22 45 43 55 64 76 80 78 74 78 81 80 81 83 81 76 66 71 86 98 99 98 98 100 99 89 79 84 79 87 97 89 100 100 93 95 91 82 63
8 12 17 14 14 15 21 29 50 47 48 62 72 74 78 77 77 72 75 70 66 66 72 80 86 86 86 96 96 91 82 76 78 84 86 98 99 100 100 100 96 87 72 51 47

GFSSW_250_rhum_051.txt.gz
RH
8 6 5 6 6 6 6 6 6 6 8 8 7 6 6 6 6 6 14 66 100 100 100 100 98 98 95 79 75 78 91 100 100 100 100 98 76 64 90 90 78 74 75 61 51
8 6 5 5 6 6 6 6 6 5 5 7 7 6 6 6 6 6 10 25 72 100 100 100 100 100 97 98 81 75 81 100 100 100 100 98 83 70 85 99 96 80 84 74 76
7 6 5 5 6 6 6 6 5 4 4 4 6 6 6 6 7 7 6 10 29 93 100 100 100 100 96 95 100 91 99 100 100 100 100 99 86 84 87 95 99 81 76 80 70
6 5 4 5 5 4 4 4 4 3 3 3 4 5 6 5 6 7 6 6 11 54 100 100 100 100 100 99 100 100 100 100 100 100 100 100 93 82 86 91 95 99 98 90 88
5 4 4 4 4 3 3 3 2 2 2 2 3 5 5 5 6 7 7 7 7 24 75 100 100 100 100 100 100 100 100 100 100 100 100 100 95 88 95 86 89 95 100 96 85
5 4 3 3 3 2 2 2 2 2 2 2 2 4 4 5 7 7 6 6 7 15 50 99 100 100 100 100 100 100 100 100 100 100 100 100 100 94 100 93 100 98 100 100 93
4 3 3 2 2 2 2 2 2 2 2 2 2 3 4 6 6 7 6 7 7 9 28 86 100 100 100 100 100 100 100 100 100 100 100 100 100 100 100 100 100 100 100 100 100
4 3 3 3 2 2 2 2 2 2 2 2 2 3 4 6 6 7 6 7 8 9 14 57 96 100 100 100 100 100 100 100 100 100 100 100 100 100 100 100 100 100 100 100 100
4 4 3 2 2 2 2 2 2 1 1 2 2 3 4 6 8 7 7 8 9 10 12 32 98 100 100 100 100 100 100 100 100 100 100 100 100 100 93 100 100 100 100 100 100
4 4 3 2 2 2 2 2 1 1 1 2 2 3 4 5 8 8 7 10 11 11 12 14 54 100 100 100 100 100 100 100 100 100 100 100 100 100 100 100 100 100 100 100 100
3 3 3 2 2 2 1 1 1 1 1 2 3 4 4 5 8 9 10 13 12 13 13 17 16 95 100 100 100 100 100 100 100 100 100 100 100 100 100 100 100 100 100 100 100
4 3 3 2 2 2 1 1 1 1 1 2 3 4 4 5 8 10 12 14 15 14 14 15 16 50 100 100 100 100 100 100 100 100 100 100 100 100 100 100 100 100 100 100 99
4 3 3 2 2 2 1 2 2 2 2 2 3 3 5 7 11 12 16 17 16 16 20 18 21 26 98 100 100 100 100 100 100 100 99 100 100 100 100 98 100 100 97 93 94
4 3 3 3 2 2 1 2 2 2 2 2 3 5 7 8 10 11 16 19 17 19 26 21 20 24 27 100 100 100 100 100 100 100 100 99 100 100 91 80 86 83 78 74 79
3 3 3 3 2 2 2 2 2 2 3 3 4 6 8 9 14 18 22 20 17 18 26 22 17 18 23 36 100 100 100 100 100 100 100 100 100 100 94 92 95 97 92 91 100
4 3 3 4 3 2 2 2 3 3 4 4 5 7 8 14 18 19 22 22 20 20 26 30 21 18 20 22 78 100 100 100 100 100 100 100 100 100 100 100 100 100 100 100 100
5 4 3 4 3 3 3 2 4 5 5 6 7 9 16 22 21 24 22 24 26 23 24 35 29 18 18 25 32 95 100 100 100 100 100 100 100 100 100 100 100 100 100 100 99
5 5 4 4 4 4 5 4 3 5 8 8 8 11 17 22 24 25 21 24 26 27 29 32 25 20 18 19 35 47 100 100 100 100 100 100 100 100 100 100 100 100 100 100 100
6 6 6 5 5 4 6 8 6 4 8 12 15 20 30 31 30 24 22 26 26 28 32 34 35 32 25 24 30 36 68 99 100 100 100 100 100 100 100 100 97 100 100 90 94
5 6 6 7 7 6 8 12 12 9 9 15 21 26 25 27 27 23 30 29 31 29 31 31 36 37 37 34 44 47 65 77 78 97 100 100 100 100 100 100 97 94 81 81 82
6 7 8 8 7 8 12 15 18 20 15 16 16 16 22 22 25 26 26 31 34 39 34 42 43 54 57 60 62 78 68 97 98 94 92 90 96 100 100 100 100 92 82 78 76
7 7 8 10 9 10 12 19 20 23 29 27 29 32 28 28 28 27 30 32 39 36 36 44 53 61 69 77 81 87 89 96 99 100 92 76 70 74 78 92 87 86 80 77 76
7 7 8 10 10 10 13 20 24 22 24 26 28 32 32 36 40 42 37 38 36 40 48 51 57 67 71 81 82 79 89 98 100 97 78 83 89 89 90 86 80 79 76 74 80
8 7 9 10 12 12 13 20 32 31 27 31 35 38 48 47 54 50 45 45 49 54 57 65 63 59 66 75 84 83 84 95 100 96 97 91 93 86 81 79 81 89 89 91 81
8 8 8 9 12 13 14 21 37 46 44 40 48 52 54 50 56 60 54 52 59 63 73 71 66 58 63 72 78 94 98 96 87 89 84 90 87 91 90 92 92 93 94 92 93
8 8 9 9 10 13 15 17 36 61 56 52 55 61 64 70 67 66 64 67 72 75 70 79 84 82 78 83 83 87 97 98 98 94 95 96 98 95 99 97 97 93 88 84 72
8 7 8 10 11 12 14 16 22 51 76 72 64 57 62 65 68 68 65 68 66 61 66 75 77 81 79 85 82 83 87 84 84 84 85 82 91 87 90 94 97 97 79 68 80

GFSSW_250_rhum_054.txt.gz
RH
6 5 5 5 5 5 5 6 6 7 8 8 8 6 7 7 7 7 9 21 35 54 95 100 100 100 95 71 52 68 90 100 96 69 52 46 38 39 37 34 29 31 33 33 36
5 5 5 5 4 4 5 5 6 5 6 6 7 7 6 6 7 7 8 10 21 43 53 99 100 100 100 85 68 58 75 97 100 100 94 61 43 42 43 41 38 35 34 34 40
4 4 4 4 4 4 4 4 4 4 4 4 5 6 6 6 7 8 7 7 11 26 46 76 94 100 100 98 88 73 68 97 100 100 100 93 55 47 47 46 52 56 63 70 67
4 4 4 4 4 3 3 3 3 3 3 3 4 4 7 6 6 7 7 6 8 18 24 56 88 95 100 100 100 98 87 81 100 100 100 100 92 66 62 55 69 64 72 73 68
4 3 4 4 3 3 3 2 2 2 2 2 2 3 4 6 6 8 7 7 7 9 22 56 76 100 100 100 100 100 99 93 99 100 100 100 97 92 80 78 90 99 99 94 89
3 3 3 3 2 2 2 1 2 2 2 2 2 2 2 5 7 8 6 6 6 8 12 31 74 98 100 100 100 100 100 100 100 99 100 100 98 90 91 85 100 96 97 98 93
3 3 3 2 2 2 1 1 2 2 2 2 2 2 2 5 6 6 6 6 7 7 8 15 62 90 100 99 91 100 100 100 100 100 100 100 100 100 92 86 98 100 100 100 98
3 3 3 2 2 2 1 1 1 1 2 2 2 2 3 4 6 5 6 7 8 8 8 10 24 80 100 100 86 89 100 100 100 100 100 100 100 100 100 95 89 100 100 100 100
3 3 3 2 2 1 1 1 1 1 1 1 2 2 3 4 5 5 6 7 9 8 9 9 14 43 98 100 93 81 100 100 100 100 100 100 100 100 100 100 100 100 100 100 100
3 3 3 2 2 1 1 1 1 1 1 1 1 2 3 4 4 6 6 8 9 9 9 10 10 26 86 98 100 98 100 100 100 100 100 100 100 100 100 100 100 100 100 100 100
3 3 3 2 2 2 2 1 1 1 1 1 1 2 3 3 4 6 9 8 10 10 10 10 10 17 77 100 100 100 98 100 100 100 100 100 100 100 100 100 100 100 99 100 100
3 3 3 2 2 2 2 1 1 2 1 1 2 2 3 4 5 8 10 9 12 12 11 12 11 11 31 98 100 100 100 100 100 100 100 100 100 100 100 100 100 100 100 100 100
3 3 3 2 2 2 2 1 2 2 2 2 2 3 4 5 5 7 8 10 13 14 12 12 12 12 13 59 100 100 100 100 100 100 100 100 100 100 100 100 100 100 100 100 100
4 3 3 3 3 2 2 2 2 2 2 2 3 4 5 6 6 8 14 19 20 17 14 13 13 14 13 15 80 100 100 100 100 99 100 100 100 100 100 100 100 100 100 100 100
5 4 3 3 3 3 2 2 2 2 3 3 3 5 5 7 9 12 23 20 18 18 17 15 16 15 15 15 17 87 100 100 100 100 100 100 100 100 100 100 100 100 100 100 100
5 4 4 3 3 3 4 3 3 3 3 3 4 5 6 9 17 20 24 22 17 19 19 17 16 15 17 16 18 22 94 100 100 100 100 100 100 98 100 100 100 100 100 100 100
5 5 4 4 4 4 4 5 4 3 5 5 5 6 7 11 15 20 24 22 18 18 18 18 16 15 17 17 18 20 38 96 100 100 100 100 100 97 93 90 96 98 98 94 93
6 6 5 5 4 4 4 5 8 6 5 7 8 9 11 18 20 26 22 20 19 22 21 20 17 17 13 16 14 19 28 41 97 100 100 100 100 87 80 77 79 75 71 69 68
7 7 6 6 6 6 6 7 12 14 9 7 9 10 16 25 31 26 22 20 23 24 23 20 18 17 13 16 18 21 32 47 76 100 100 100 100 100 100 90 78 72 71 77 74
7 8 7 6 6 6 8 10 15 20 21 17 14 12 19 26 24 26 27 23 24 23 29 24 22 19 18 18 23 23 28 43 72 81 100 100 100 100 100 100 100 98 100 99 97
8 8 7 6 7 6 8 8 17 18 23 24 27 21 23 20 22 25 26 26 26 25 26 28 31 25 25 23 27 33 31 35 65 100 100 100 100 100 100 100 100 100 100 92 86
9 8 8 7 7 8 8 9 14 23 26 25 24 28 27 25 27 27 28 29 29 30 30 30 30 35 32 30 28 26 39 45 48 100 89 100 100 100 100 100 100 100 100 100 90
8 9 8 8 8 8 9 9 12 22 29 31 25 26 28 27 28 27 28 30 30 34 34 34 32 39 41 44 37 29 34 44 70 71 85 99 100 98 99 98 100 100 100 100 100
8 9 9 8 8 8 9 11 11 20 34 37 35 33 29 31 37 35 35 33 35 38 40 39 34 41 49 53 58 66 72 66 67 80 77 83 100 99 99 98 96 94 96 95 90
8 8 9 9 7 8 10 11 12 15 27 41 48 48 45 44 42 40 40 44 40 42 48 48 46 52 50 61 61 68 89 94 82 91 94 100 100 98 93 94 83 82 87 89 85
7 7 8 9 8 8 8 11 13 14 26 44 51 61 59 55 58 59 55 43 52 52 58 66 69 65 67 62 70 72 85 94 96 87 93 95 100 100 100 100 100 98 93 96 98
6 6 7 8 8 8 8 9 12 14 17 29 52 65 73 66 66 66 65 70 67 50 52 70 74 74 71 65 68 78 88 94 90 90 95 93 93 93 97 96 96 96 99 98 88

GFSSW_250_rhum_057.txt.gz
RH
4 4 4 4 4 4 4 4 4 5 7 8 9 7 7 7 8 8 9 9 10 20 45 92 99 100 100 67 48 41 76 84 80 77 61 52 48 50 54 45 63 47 43 60 48
4 4 4 4 4 4 4 3 4 4 4 6 8 8 6 7 7 8 8 8 9 11 35 93 91 100 100 100 55 54 48 81 100 100 92 49 47 51 66 56 60 56 44 45 51
3 4 4 4 4 4 3 3 3 3 3 4 5 8 6 6 7 8 8 8 8 10 15 75 94 82 100 100 96 63 59 81 100 100 100 88 45 42 55 58 58 58 48 50 53
3 4 3 4 4 3 3 3 2 2 2 3 3 5 7 5 7 7 7 8 7 8 10 35 93 91 88 100 100 94 92 56 91 100 100 100 69 42 47 55 54 51 62 48 45
3 3 3 3 3 2 2 2 2 2 2 2 2 3 4 6 6 8 8 7 7 8 9 15 84 93 88 100 100 100 92 72 64 100 100 100 95 49 44 48 57 58 58 53 46
3 3 3 2 2 2 2 2 2 2 2 2 2 2 3 5 7 6 7 6 6 8 8 10 72 100 99 100 100 100 100 89 86 96 100 100 100 83 54 46 54 56 60 58 57
3 3 3 2 2 2 2 2 1 1 1 2 2 2 2 4 6 6 6 6 6 8 8 9 26 81 100 100 99 100 98 100 100 100 99 100 100 100 86 63 63 66 71 74 73
3 3 3 2 2 2 1 1 1 1 1 1 2 2 2 3 4 6 6 6 7 8 8 8 11 57 93 100 97 100 83 100 100 100 100 100 100 100 94 91 95 94 85 99 100
3 3 3 2 2 2 1 1 1 1 1 1 2 2 2 3 4 7 7 6 7 8 8 8 10 22 82 100 100 90 86 97 100 100 100 100 100 100 100 100 100 100 100 100 100
3 3 3 2 2 2 2 1 1 1 1 1 1 2 2 2 4 6 4 7 7 8 8 9 9 11 48 85 93 100 100 92 100 100 100 100 100 95 100 100 94 100 100 100 100
3 3 3 2 2 2 2 2 1 1 1 1 1 2 2 3 4 5 5 8 8 8 9 9 9 9 16 100 100 100 100 84 100 100 100 100 100 100 100 100 100 93 100 100 100
3 3 3 3 2 3 2 1 1 1 1 1 2 2 2 3 4 6 6 8 9 9 10 10 10 10 11 25 95 100 100 97 85 100 100 100 100 100 100 100 100 100 100 100 100
4 3 3 3 3 3 2 2 2 2 1 2 2 2 3 4 5 5 7 10 11 10 11 13 12 12 10 13 38 100 100 100 87 100 100 100 100 100 100 100 100 100 100 100 100
4 3 4 3 3 3 3 2 2 2 2 2 2 3 4 4 6 7 10 12 10 12 12 14 13 12 10 10 16 62 100 100 100 86 97 99 100 100 100 100 100 100 100 100 100
5 4 4 4 3 4 4 3 2 2 3 3 3 4 5 6 7 9 11 14 16 15 15 17 13 13 11 10 12 29 100 100 100 100 81 94 95 100 100 100 100 100 100 100 100
6 5 4 4 4 4 5 4 3 3 4 4 5 6 6 6 8 9 10 15 17 18 20 18 16 14 11 10 11 14 52 100 100 100 99 90 83 92 100 100 100 100 100 100 100
6 6 6 5 5 5 5 5 4 5 5 5 6 6 7 8 11 12 12 16 22 21 19 19 17 16 12 11 12 14 16 43 100 100 100 100 85 71 94 100 100 100 100 100 100
6 7 6 6 6 5 5 5 5 7 9 6 7 9 10 12 14 17 18 19 18 19 19 16 15 14 13 12 12 16 15 18 33 100 100 100 100 78 88 92 97 100 100 100 100
6 8 6 6 7 6 7 6 8 9 10 14 8 8 12 16 18 20 19 18 19 21 20 18 15 14 12 12 12 12 15 17 19 77 100 100 100 100 100 94 92 95 97 97 100
6 8 7 6 7 7 8 7 8 13 16 19 23 17 14 18 18 16 20 21 20 22 20 19 18 14 13 12 14 13 14 16 18 20 47 97 100 100 100 100 100 97 90 85 87
6 7 7 7 6 8 7 9 9 12 16 22 21 28 24 22 22 25 26 26 24 22 22 22 21 20 19 16 16 16 15 18 21 24 24 24 32 80 100 100 100 100 100 97 89
6 7 7 6 6 7 7 8 9 12 17 21 25 23 28 27 26 26 30 28 27 30 29 27 26 24 23 23 21 19 19 22 26 30 34 41 36 52 80 100 100 100 100 100 100
7 6 7 6 6 7 8 8 9 12 16 23 27 25 25 28 29 27 26 31 31 32 36 36 33 33 31 30 33 35 39 35 30 29 50 70 69 70 100 100 100 100 100 100 100
6 7 7 6 6 6 8 8 8 10 16 25 32 31 28 29 28 28 28 27 30 34 36 42 38 38 37 42 41 45 38 53 55 44 47 65 74 70 86 94 100 100 100 100 100
6 6 6 6 6 6 8 8 8 10 12 25 41 50 48 42 40 34 31 31 29 32 34 34 33 33 36 41 44 45 56 48 60 47 41 59 99 100 100 100 100 100 100 100 100
6 6 6 6 6 6 7 9 9 10 12 14 31 43 54 55 52 47 44 41 43 37 35 35 36 35 38 40 47 60 67 50 50 54 70 76 90 100 100 100 100 100 100 100 99
6 5 6 6 6 6 7 8 9 10 12 14 18 38 46 60 64 64 61 55 50 46 44 46 44 42 47 46 50 52 58 69 67 56 55 64 75 79 80 87 100 100 99 100 97

GFSSW_250_rhum_060.txt.gz
RH
4 4 3 3 3 3 3 3 3 3 3 4 6 7 5 7 9 9 11 11 13 19 18 34 94 94 83 64 71 52 36 79 98 92 73 50 47 69 58 56 61 63 43 70 74
4 3 3 3 4 4 3 3 3 3 3 4 5 7 6 5 7 10 10 11 12 21 15 23 54 100 77 80 61 63 38 48 100 100 100 63 47 61 64 66 67 54 59 67 70
4 3 4 4 4 3 3 3 3 3 2 2 4 5 6 5 6 10 10 12 11 22 21 24 25 73 83 72 63 76 68 75 68 100 99 97 50 63 66 71 76 62 54 59 82
3 3 3 3 3 3 2 2 2 2 2 2 2 4 5 6 5 7 10 9 11 21 34 20 16 55 83 84 77 87 100 78 42 97 100 100 58 76 62 66 69 56 46 89 78
3 3 3 3 3 2 2 2 2 2 2 2 2 2 4 6 7 7 9 9 9 11 12 18 17 22 77 94 83 89 100 92 56 57 100 100 80 71 64 63 64 66 86 85 76
3 3 3 2 2 2 2 1 2 2 2 2 1 2 3 5 5 5 7 8 9 11 11 15 28 14 43 86 82 90 100 96 70 80 84 100 100 70 57 66 63 62 68 74 78
3 3 3 2 2 2 2 1 1 1 1 1 1 2 2 4 5 5 6 8 8 9 11 11 12 14 15 67 98 94 68 78 78 100 97 100 100 100 74 68 72 61 59 60 70
3 3 3 2 2 2 2 1 1 1 1 1 1 1 2 3 5 5 6 7 9 9 11 10 10 11 13 28 82 94 78 72 65 100 99 88 100 100 100 96 78 92 73 58 65
3 3 3 2 2 2 2 1 1 1 1 1 2 2 2 2 4 6 6 7 9 9 10 10 9 10 11 15 51 87 82 76 83 100 100 94 100 100 100 96 100 100 100 96 72
3 3 3 3 3 2 2 2 2 1 1 1 2 2 1 2 3 6 6 6 9 10 9 8 9 9 9 11 18 77 98 99 93 92 100 99 100 95 100 99 100 100 100 100 100
3 3 3 2 3 2 2 2 2 1 1 1 2 2 2 2 3 4 8 8 10 10 9 9 8 8 10 14 19 47 100 100 92 92 97 100 100 100 100 100 100 96 100 100 100
3 3 3 3 2 2 2 2 2 1 1 1 1 2 2 2 3 5 8 8 9 10 10 8 9 10 9 10 12 16 88 100 97 78 91 100 100 100 100 100 99 100 100 100 100
3 3 3 3 2 3 3 3 2 1 2 2 2 2 2 2 3 4 6 10 13 12 13 11 11 10 9 9 10 13 48 100 100 100 93 96 100 100 100 100 100 85 98 100 100
4 4 3 4 3 4 3 3 3 2 2 2 2 2 2 3 3 4 6 7 6 6 7 11 10 12 11 10 10 11 18 86 100 100 99 85 97 100 100 100 100 100 82 90 100
4 4 4 4 4 4 4 4 4 2 2 2 3 3 3 4 4 4 6 7 8 10 10 11 12 13 12 11 11 10 13 34 100 100 98 88 78 100 100 100 100 100 100 100 90
4 4 4 4 4 4 5 5 4 4 3 3 3 4 5 6 7 8 7 9 11 14 15 15 14 14 13 12 11 10 12 17 93 100 100 100 87 81 100 100 100 100 100 100 100
4 4 5 4 4 4 5 5 5 6 4 4 4 5 6 6 7 8 9 9 10 12 12 14 15 16 15 12 12 12 11 13 45 99 100 100 85 74 85 96 100 100 100 100 100
5 5 6 5 5 4 5 5 5 6 6 4 6 6 6 8 8 8 10 12 13 13 15 18 18 17 16 13 13 13 12 12 14 82 100 100 100 89 82 81 96 100 96 100 100
6 6 6 5 5 5 5 6 6 6 8 8 7 8 8 9 11 12 10 11 11 15 16 18 18 18 16 15 14 13 15 14 13 17 100 100 100 100 100 96 80 83 99 100 100
7 6 6 6 5 5 5 8 7 7 9 10 10 8 12 15 14 16 19 18 16 15 16 17 19 19 18 16 15 14 14 14 13 14 21 78 100 100 100 100 99 85 83 92 99
8 7 6 6 6 5 5 6 8 8 10 13 14 17 19 22 23 24 26 29 26 26 26 22 21 20 19 17 16 15 15 14 16 14 15 19 26 64 100 100 100 100 98 88 85
8 8 7 6 6 6 5 5 8 9 10 14 16 21 22 22 24 26 26 28 32 32 29 26 23 22 21 21 20 18 18 15 15 16 16 16 18 21 27 78 100 100 100 100 100
8 7 7 7 6 6 6 6 6 8 9 13 15 17 21 25 24 22 26 28 30 31 31 30 29 27 28 25 23 23 20 18 16 17 16 16 20 22 21 25 47 87 98 100 100
11 6 7 7 6 5 6 6 6 8 9 10 16 20 17 20 26 28 23 25 28 30 30 31 29 31 29 31 32 25 22 23 22 20 19 17 21 24 30 32 27 30 43 72 95
10 7 7 7 6 6 6 6 6 7 9 11 13 25 30 22 20 21 29 30 30 32 31 33 34 33 34 34 44 47 42 37 36 27 25 22 24 22 38 62 38 37 44 47 56
9 7 6 6 6 6 5 6 6 6 8 10 12 16 29 38 36 31 34 32 33 32 31 33 36 38 41 41 39 45 50 54 49 52 40 34 32 32 38 50 57 56 54 65 94
8 7 6 6 6 6 5 6 6 7 8 9 11 13 19 33 41 48 45 44 42 36 39 34 30 35 39 34 35 44 47 55 65 61 63 52 43 39 35 47 74 87 98 100 95

GFSSW_250_rhum_063.txt.gz
RH
4 3 3 3 3 3 3 3 3 3 3 4 4 4 5 4 5 7 6 9 9 10 11 12 17 61 100 100 100 100 75 50 42 76 80 94 48 46 61 69 53 49 78 78 71
4 3 3 3 3 3 3 3 3 3 2 3 4 4 5 4 4 7 8 9 10 10 12 13 14 46 92 100 100 100 61 46 57 53 98 90 60 61 58 65 57 49 73 79 76
4 3 3 3 3 3 3 3 2 2 3 2 2 4 5 4 4 7 8 8 10 10 12 14 14 18 71 100 100 100 98 67 68 65 84 83 62 50 79 60 64 56 67 73 76
4 3 3 2 2 2 2 2 2 2 2 2 2 2 4 4 5 4 7 9 10 10 12 14 14 16 25 69 98 100 99 43 66 74 97 100 74 44 92 48 49 74 71 77 78
4 3 3 2 2 2 2 2 2 2 2 2 2 2 3 5 6 5 6 9 8 10 12 13 17 15 17 53 83 100 98 52 57 80 78 100 98 56 98 68 51 57 79 82 78
3 3 3 2 2 2 2 2 1 2 1 1 2 2 2 5 4 4 6 9 9 10 12 13 22 18 22 31 56 100 85 65 49 71 82 100 100 98 72 78 61 61 64 79 88
3 3 3 3 2 2 2 2 1 1 1 1 1 1 2 3 5 5 6 8 9 10 12 14 26 27 22 24 42 100 69 58 58 70 91 100 100 100 100 99 48 60 76 82 79
3 2 2 2 2 2 2 2 1 1 1 1 1 1 2 2 4 5 5 7 10 11 11 14 24 25 24 18 30 95 73 59 54 60 92 100 100 98 99 100 92 67 61 80 78
3 2 2 2 2 2 2 2 2 1 1 1 1 1 2 2 3 4 4 6 10 11 12 14 16 66 37 37 17 21 65 69 71 65 95 100 100 100 96 99 100 100 99 75 78
3 2 2 2 2 2 2 2 2 2 1 1 1 1 2 2 2 4 5 5 8 12 12 13 12 38 49 30 45 28 35 80 99 78 82 100 100 100 99 86 100 100 100 100 95
3 2 2 2 2 2 2 2 2 2 1 1 1 2 2 2 2 3 4 5 7 11 12 11 11 16 100 100 59 40 22 30 99 99 85 88 100 100 100 97 89 100 100 100 100
4 3 2 2 3 2 2 2 2 2 2 2 1 2 2 2 2 3 5 5 7 11 12 12 13 16 41 88 73 45 30 22 48 96 67 88 93 99 100 100 92 99 100 100 100
4 3 3 3 3 3 2 3 3 2 2 2 2 2 2 2 2 3 7 7 8 9 12 13 14 14 14 25 54 56 51 51 21 65 86 97 99 81 99 100 99 95 98 100 100
4 3 4 4 4 3 3 3 3 3 3 2 2 2 2 2 2 4 6 11 10 11 10 13 14 13 14 14 24 74 98 38 21 24 67 100 100 92 80 100 100 85 90 100 100
5 3 4 4 5 4 3 3 4 3 4 3 3 3 3 3 4 4 5 7 10 9 10 14 15 15 14 14 14 16 23 22 39 38 27 65 96 100 91 99 100 100 90 92 100
6 4 3 4 5 4 4 4 4 4 4 4 3 4 4 4 4 5 6 6 7 7 9 13 13 16 14 13 12 12 11 17 27 29 22 27 61 100 99 100 100 100 100 96 82
7 4 4 4 5 5 4 4 4 5 4 5 3 4 5 5 5 5 6 7 8 9 10 10 11 14 14 14 13 13 13 14 12 12 20 26 26 91 100 99 100 100 100 100 100
9 5 4 4 5 5 5 4 4 5 6 6 6 4 5 8 7 6 6 8 8 9 9 9 11 13 12 12 14 14 14 13 13 11 21 92 27 50 94 96 100 100 100 100 100
11 6 5 4 4 5 6 5 4 4 6 8 9 6 6 9 12 9 9 9 9 9 14 16 15 15 15 15 14 15 15 15 14 13 13 22 50 55 55 96 100 100 100 100 100
14 7 5 4 4 5 6 5 5 5 6 8 10 11 7 7 11 17 16 14 14 14 14 14 15 18 21 20 18 18 18 17 16 16 14 13 34 82 76 94 99 99 97 100 100
22 7 6 5 4 5 6 6 5 5 5 6 7 12 11 10 12 15 18 20 21 22 24 26 24 20 18 18 19 18 18 19 18 18 17 15 15 16 61 100 97 98 100 100 100
26 11 7 6 5 4 5 6 5 6 6 6 7 10 13 14 15 17 21 22 24 24 29 26 26 26 26 24 22 20 18 18 18 20 18 16 15 15 18 37 84 100 91 84 87
65 20 9 6 5 5 5 5 6 6 6 7 8 10 13 14 15 17 19 21 25 26 26 28 30 30 31 30 28 24 20 17 17 17 17 16 17 16 17 19 21 68 100 99 90
63 26 12 7 6 5 5 5 5 6 6 7 9 11 16 17 17 18 20 22 23 24 25 26 28 28 26 26 26 25 22 20 17 17 17 17 17 16 16 17 18 30 86 100 100
81 42 15 9 6 5 5 5 5 5 6 6 8 11 14 23 22 19 20 24 24 25 25 26 27 28 30 30 27 28 28 26 24 19 18 18 18 18 17 17 18 18 20 34 66
66 58 22 10 6 6 5 5 5 6 6 7 7 8 10 12 24 29 24 23 23 25 26 24 24 24 29 31 39 41 44 43 32 28 21 20 19 19 18 17 18 20 23 24 22
53 49 40 14 6 6 5 5 5 6 6 6 7 9 12 14 19 30 36 32 27 26 24 26 26 26 24 24 28 40 38 44 36 37 38 33 26 25 21 20 21 23 21 38 38

GFSSW_250_rhum_069.txt.gz
RH
6 8 5 4 3 4 3 2 2 2 2 2 3 3 3 3 4 4 4 5 6 6 8 7 8 10 9 12 15 12 19 59 99 100 82 73 69 79 100 100 100 82 61 76 62
4 6 5 3 2 3 3 3 2 2 2 2 2 3 3 3 4 4 5 4 6 6 7 7 7 11 9 11 17 14 12 40 100 100 95 72 65 60 100 100 100 91 72 69 79
5 5 4 3 2 2 2 2 2 2 2 2 2 2 3 3 4 4 4 5 5 6 7 7 7 10 10 11 14 17 12 28 88 100 100 87 62 54 95 100 100 100 86 67 72
4 5 4 3 2 2 2 2 2 2 2 2 2 2 2 3 4 4 4 4 4 6 7 7 7 10 12 11 15 15 14 16 67 100 100 100 83 59 66 100 100 100 100 80 69
4 6 4 4 2 2 2 2 2 2 2 2 2 2 2 2 3 4 4 5 5 6 8 6 8 11 13 13 16 17 15 16 40 99 100 100 100 77 62 96 100 100 100 98 71
6 5 4 4 2 2 2 2 2 2 2 2 1 1 2 2 2 4 5 5 6 5 7 8 8 12 13 13 15 16 16 14 19 82 100 100 100 92 94 77 100 100 100 100 92
7 5 4 4 2 2 2 2 2 2 2 2 1 1 1 2 2 4 4 6 6 5 6 9 8 11 14 14 15 17 16 14 18 77 100 100 100 100 92 100 88 100 100 100 100
9 6 5 4 3 2 2 2 2 2 2 2 1 1 1 1 2 3 3 6 7 7 6 9 8 11 13 13 16 18 16 15 24 56 100 100 100 100 87 90 100 96 75 90 100
13 7 6 5 4 2 2 2 2 2 2 2 2 1 2 1 2 2 3 4 7 7 6 9 8 10 12 14 16 18 15 17 23 36 100 100 100 100 71 78 82 100 100 79 83
17 9 6 6 5 2 2 2 2 2 2 2 2 2 2 2 2 2 3 4 8 8 7 9 9 9 11 13 16 18 19 20 24 33 93 100 100 100 72 60 84 90 97 100 92
22 12 7 7 5 3 2 2 2 2 2 2 2 2 2 2 2 2 2 3 6 7 8 9 8 9 14 15 19 19 23 28 50 48 69 100 100 100 90 54 70 82 88 99 100
30 16 9 7 6 4 3 2 2 2 2 3 2 2 2 2 2 2 3 3 5 9 9 8 10 12 12 16 17 20 21 31 62 51 59 100 100 100 84 61 50 72 85 94 98
33 21 11 8 6 4 3 2 2 2 2 3 2 2 2 2 2 2 3 3 5 11 9 9 12 11 14 15 17 20 25 44 68 60 41 66 85 100 86 65 56 58 80 89 98
33 25 14 10 7 4 4 2 3 3 3 3 3 2 2 2 2 3 3 4 5 11 11 10 11 12 16 17 18 19 23 30 43 54 53 46 82 57 88 79 64 58 66 78 80
35 27 25 11 8 6 4 3 3 3 3 3 4 3 3 2 2 2 3 4 6 14 14 11 11 12 16 19 18 19 20 28 34 52 63 39 32 55 45 47 82 68 58 66 77
42 32 28 14 8 8 5 4 4 3 3 3 4 4 3 3 3 3 4 5 8 12 14 10 8 11 15 19 19 19 20 22 27 45 40 41 27 44 53 41 63 67 58 53 62
43 33 34 20 9 6 6 4 4 4 4 3 4 4 4 3 3 4 4 4 6 11 13 9 9 13 16 19 19 19 19 20 22 50 45 35 26 89 46 56 47 54 73 72 69
44 32 38 24 10 8 7 5 4 4 4 4 4 4 6 4 4 5 6 5 7 10 9 8 13 14 19 20 23 22 18 20 21 26 53 26 21 46 47 40 46 56 77 87 95
38 39 37 31 13 7 5 8 5 4 5 5 4 5 6 7 5 5 7 9 10 10 10 12 18 15 17 21 21 24 20 19 19 23 23 22 22 44 51 44 47 45 62 93 94
38 41 39 40 26 8 6 7 5 4 6 5 5 5 6 9 8 6 6 11 15 16 17 18 18 17 16 18 20 24 25 22 20 20 21 28 34 62 83 72 66 57 60 61 68
37 40 39 46 48 12 8 8 6 5 6 6 5 5 6 10 11 9 7 8 12 20 24 28 31 26 22 20 22 24 24 26 25 21 24 52 76 85 96 76 74 74 67 56 63
37 49 45 39 52 23 8 7 6 7 5 6 6 6 6 6 12 13 12 10 11 13 15 23 38 37 31 27 26 25 24 23 23 27 27 44 100 100 100 98 85 92 75 65 68
38 53 43 41 51 53 11 6 7 7 5 5 7 7 6 7 9 13 14 13 11 11 10 10 15 22 27 32 33 27 29 31 30 29 30 29 26 52 100 100 100 100 100 95 74
36 55 52 40 42 57 19 6 12 6 6 5 6 7 7 7 8 12 16 15 16 14 14 14 13 13 14 19 19 28 28 24 25 28 28 28 30 28 29 73 100 100 100 100 100
36 53 54 41 46 49 38 8 10 6 6 5 6 7 7 8 8 8 18 18 16 17 16 17 18 18 16 14 15 17 19 20 23 25 23 23 26 29 29 26 24 22 23 44 95
38 49 54 41 43 45 50 12 8 8 7 5 5 6 7 7 9 9 13 23 21 19 20 19 19 21 20 21 21 20 20 20 19 19 20 18 20 21 23 24 22 21 20 20 19
37 50 53 49 38 41 48 23 11 9 7 6 5 6 7 7 8 10 11 18 26 26 21 23 24 23 22 20 23 24 21 22 22 22 22 23 20 20 19 20 20 20 20 18 17

GFSSW_250_rhum_072.txt.gz
RH
9 7 5 4 5 4 3 3 3 3 2 2 2 2 2 2 3 3 4 5 5 6 7 8 9 9 10 8 12 10 11 16 44 64 91 100 99 93 70 63 68 92 100 100 100
10 7 6 4 5 4 2 2 2 2 2 2 2 2 2 2 3 4 3 4 5 6 6 8 8 9 11 10 8 11 12 13 22 44 71 98 98 98 84 75 80 85 100 100 100
10 8 7 4 4 3 2 2 2 2 2 2 2 2 2 2 2 3 4 4 4 6 6 7 8 8 10 12 11 10 12 16 15 26 57 78 100 90 90 72 79 91 100 100 100
10 8 7 6 4 3 2 2 2 2 2 2 2 2 2 2 2 3 4 4 4 5 7 7 8 9 10 14 12 11 14 14 16 16 32 60 81 94 98 78 70 80 100 100 100
13 9 8 6 4 3 2 2 2 2 2 2 2 1 1 1 2 2 4 4 4 5 6 7 7 10 10 13 15 14 13 13 15 16 20 38 63 94 100 89 68 76 100 100 100
20 10 7 5 4 3 2 3 2 2 2 2 2 2 2 2 2 2 3 4 4 5 6 8 7 9 10 12 14 15 15 14 13 19 23 37 60 82 100 100 77 84 83 100 100
29 15 10 6 6 4 2 2 2 2 2 2 2 2 2 1 2 2 2 3 5 5 6 8 8 8 9 11 12 14 16 14 13 18 23 34 49 74 100 100 91 90 89 100 100
26 21 10 6 6 4 2 2 2 2 2 2 2 2 2 2 2 2 2 3 5 6 6 7 8 9 9 9 10 13 17 15 15 17 19 19 24 83 89 100 100 89 99 92 100
25 26 23 9 6 4 3 2 2 2 2 2 2 2 2 2 2 2 2 3 5 6 5 7 8 9 9 10 9 12 17 16 19 16 20 21 18 56 70 93 100 100 100 97 90
27 34 32 16 8 4 3 2 2 2 2 2 2 2 2 2 2 2 2 4 4 7 6 7 7 9 10 10 12 16 18 20 21 18 21 21 26 22 68 89 99 100 100 100 94
25 37 37 25 9 4 4 3 3 2 2 2 2 2 2 2 2 2 2 2 4 5 8 8 7 8 13 15 16 19 20 21 22 28 18 24 23 24 34 87 91 99 100 100 98
22 45 45 31 12 5 4 3 3 2 2 2 2 2 2 2 2 2 2 2 3 5 9 8 8 9 11 12 16 18 20 19 20 32 22 23 22 28 33 57 81 83 95 100 98
22 45 42 36 20 7 4 3 3 2 3 2 2 2 2 2 2 2 2 2 4 6 7 8 9 9 11 12 14 20 20 21 22 22 28 27 26 29 29 55 46 78 88 95 100
23 48 45 43 25 10 5 4 4 3 3 2 3 3 2 2 2 2 2 3 4 5 10 10 9 11 11 14 16 19 19 19 21 21 32 34 35 32 32 52 36 39 68 99 97
27 51 49 46 32 17 6 5 5 3 3 3 3 3 2 2 2 2 3 3 5 8 12 10 11 13 11 15 17 20 19 18 19 22 23 37 30 38 49 31 52 49 53 62 92
33 55 45 48 33 33 7 6 5 4 3 3 3 3 3 3 2 2 3 4 6 8 14 12 13 12 12 12 16 18 19 19 19 21 22 23 30 51 57 62 49 59 32 24 52
28 53 51 48 36 38 15 5 6 7 4 3 3 3 3 3 3 2 3 5 6 8 12 13 13 12 13 13 14 18 19 20 21 21 25 23 22 100 49 62 45 54 53 27 18
32 53 55 47 38 36 36 6 6 10 5 3 3 3 4 4 4 3 4 4 6 7 11 13 10 11 13 14 17 20 21 20 23 23 25 27 27 76 64 47 45 34 39 34 17
35 53 52 44 46 42 44 13 8 8 12 4 4 3 4 4 6 4 5 6 7 8 10 12 12 16 16 14 17 19 20 22 24 23 23 26 25 41 60 58 41 37 32 38 49
43 54 50 45 49 44 44 25 10 9 12 7 4 4 4 5 5 6 5 6 10 11 14 14 15 18 20 17 20 20 22 22 23 25 23 24 25 43 54 63 41 40 54 44 40
46 52 52 46 46 51 52 39 13 12 13 8 5 4 4 5 7 8 8 7 9 12 17 19 21 22 25 24 22 25 24 23 25 27 26 24 33 48 64 59 56 38 38 45 45
48 51 48 45 46 51 54 63 11 10 11 10 5 4 5 6 6 9 9 10 9 10 14 18 25 28 30 25 23 24 24 23 22 27 28 26 27 89 86 70 64 58 39 41 37
52 47 42 41 50 48 48 57 28 13 11 11 6 5 5 5 7 8 11 10 12 9 10 13 20 26 30 32 34 33 37 31 30 30 31 30 32 29 47 98 61 63 58 39 26
58 50 45 36 45 52 46 54 50 13 11 9 6 5 5 6 6 7 9 11 12 14 11 11 11 14 18 24 30 33 32 34 31 30 35 36 40 37 30 26 51 49 58 60 45
63 47 44 42 49 52 45 65 66 15 11 9 6 5 5 6 6 7 8 14 14 16 17 15 15 13 11 13 17 23 25 22 23 30 26 39 33 31 31 30 27 26 41 56 89
53 50 41 43 47 50 44 56 77 34 10 11 5 4 4 6 7 7 8 9 16 18 19 20 18 17 16 15 12 13 15 20 22 21 25 26 27 27 25 29 28 28 27 26 40
49 48 45 50 50 57 43 53 60 67 14 12 7 5 4 5 7 8 8 10 13 20 23 22 24 24 22 22 19 20 16 15 15 17 19 21 22 21 23 25 25 25 27 28 26

GFSSW_250_rhum_075.txt.gz
RH
14 8 6 5 5 5 4 4 2 2 2 2 2 2 2 2 2 2 3 4 4 5 6 9 8 9 8 9 13 14 12 20 66 78 100 100 100 100 97 85 71 64 57 83 100
21 12 8 5 6 4 4 3 2 2 2 2 2 2 2 2 2 2 3 3 4 5 6 8 8 10 9 10 11 12 13 14 39 85 100 98 100 100 100 99 89 73 58 71 98
25 16 11 8 6 4 4 3 2 2 2 2 2 2 2 2 2 2 3 3 3 4 6 7 8 9 11 10 11 11 13 15 16 38 87 100 95 100 100 100 98 81 61 66 92
27 22 13 12 7 4 4 4 2 2 2 2 2 2 2 2 2 2 3 4 4 4 6 7 7 8 12 12 12 11 14 15 15 16 42 74 93 100 95 100 100 90 79 66 72
25 19 14 12 8 4 4 4 2 2 2 2 2 2 2 1 1 2 3 4 4 4 5 7 7 7 11 16 14 13 12 14 15 15 17 39 57 95 99 100 100 100 90 68 75
32 21 18 12 10 6 3 4 2 2 2 2 2 2 2 1 2 2 2 3 4 4 4 6 7 8 9 15 16 13 12 12 14 17 17 18 33 63 93 100 100 100 100 85 72
38 19 17 15 14 9 4 4 3 2 2 2 2 2 2 2 2 2 2 2 4 5 5 6 8 8 9 12 17 15 12 12 12 16 18 17 14 22 63 94 94 100 100 100 78
39 22 19 14 22 13 4 4 3 2 2 2 2 2 2 2 2 2 2 2 3 5 6 6 7 9 10 10 13 15 14 12 12 16 19 18 17 17 24 50 72 100 100 100 100
42 24 22 19 20 15 8 3 4 2 2 2 2 2 2 2 2 2 2 2 2 5 6 6 7 8 10 10 10 13 15 14 14 14 18 18 19 20 17 24 54 82 100 100 100
37 26 25 19 23 18 14 4 3 3 2 2 2 2 2 2 2 2 2 2 3 4 8 7 7 8 10 11 12 14 15 17 16 15 18 19 18 16 16 16 27 74 100 100 100
38 32 28 21 23 18 22 5 3 3 2 2 2 2 2 2 2 2 2 2 3 3 8 9 7 7 10 12 14 15 17 20 19 18 18 18 16 16 16 15 16 45 90 100 100
36 38 26 24 35 22 20 5 4 3 3 2 2 2 2 2 2 2 2 2 3 3 6 9 8 8 9 10 14 16 17 16 20 20 17 18 16 14 15 17 16 21 91 100 100
51 45 36 24 34 30 28 8 3 3 3 4 2 2 2 2 2 2 2 2 3 3 5 10 10 9 10 11 12 15 18 16 19 21 20 17 16 13 13 15 16 18 49 100 100
57 45 40 27 42 29 26 13 4 3 3 4 2 3 3 2 2 2 2 2 3 4 4 10 13 11 10 11 13 16 16 14 16 20 20 20 18 16 14 15 15 18 32 100 100
53 56 43 26 42 28 25 19 5 3 4 3 3 3 2 2 2 2 2 2 4 5 6 8 12 11 11 11 13 16 16 15 14 17 19 20 21 20 16 15 18 18 36 58 98
59 63 49 33 47 40 31 22 6 3 4 4 3 3 3 3 2 2 2 3 4 5 6 9 11 16 14 12 14 14 15 17 17 19 21 23 25 26 20 19 17 15 17 31 51
67 59 62 47 50 42 34 25 7 5 4 3 3 3 3 3 3 3 3 3 3 5 6 8 9 16 16 13 13 12 13 15 17 20 24 24 26 27 23 19 18 18 18 19 34
74 70 65 44 49 43 37 35 13 5 4 4 3 3 3 4 4 3 3 3 4 5 5 8 9 14 15 14 12 12 13 16 19 21 25 25 26 30 25 20 18 18 20 24 17
78 68 70 52 50 44 40 38 45 7 7 6 4 3 3 4 4 4 4 4 5 6 7 7 12 14 17 17 16 16 16 18 21 22 24 24 25 25 28 28 21 18 21 27 35
78 64 72 52 49 42 46 39 38 16 9 8 5 3 4 4 4 6 5 4 7 9 10 10 11 18 21 20 19 18 16 18 19 20 24 23 25 25 26 29 34 24 22 26 30
83 67 68 49 50 43 44 40 48 44 10 10 7 6 4 4 5 5 7 7 7 11 15 16 18 19 23 25 19 21 22 20 22 22 23 24 24 25 26 29 28 27 31 30 33
82 79 70 50 47 40 47 44 47 59 39 11 9 8 5 5 5 5 7 9 8 9 10 16 19 22 29 30 28 23 26 26 23 25 24 25 24 24 27 32 38 40 39 31 32
89 79 71 53 49 36 45 46 44 53 55 12 9 9 6 5 6 5 7 9 10 9 11 12 15 19 25 30 34 33 28 31 32 32 30 28 35 30 26 29 30 35 45 52 52
85 87 74 51 50 31 44 45 47 50 56 51 10 9 7 5 4 6 6 8 11 12 11 12 15 16 16 23 27 29 27 26 27 29 31 30 37 36 28 28 31 32 46 50 42
90 83 79 54 53 32 45 45 48 53 57 55 40 11 11 8 5 5 6 7 9 12 14 13 12 14 18 18 22 26 23 22 27 30 26 39 36 43 27 24 29 29 34 35 29
100 80 76 56 55 30 40 44 47 52 62 52 52 25 13 10 8 5 6 7 8 10 14 14 16 15 14 13 14 21 22 21 21 20 23 28 26 35 18 19 21 23 23 25 24
94 83 67 67 57 32 39 40 45 50 62 60 52 35 20 10 7 6 7 7 8 9 10 15 17 18 17 17 18 17 15 21 23 23 23 26 32 19 20 20 22 22 23 25 26

GFSSW_250_rhum_078.txt.gz
RH
26 24 22 19 11 8 5 5 5 4 3 2 2 2 2 2 2 2 2 3 4 4 5 6 7 8 8 7 8 9 11 13 15 65 86 100 99 100 100 95 79 66 77 100 100
28 27 23 22 12 8 5 5 4 4 3 2 2 2 2 2 2 2 2 3 3 4 4 5 6 8 9 8 9 9 10 14 22 75 90 100 97 100 100 100 86 72 68 100 100
34 28 26 22 14 9 6 5 6 5 4 2 2 2 2 2 2 2 2 2 3 3 4 5 5 7 8 9 9 9 11 16 16 21 65 100 100 100 100 97 93 80 67 97 100
42 30 35 20 14 11 6 6 6 6 3 2 2 2 1 2 2 2 2 3 3 3 4 5 6 7 8 9 10 10 12 12 15 16 33 96 99 94 96 100 94 91 66 92 100
42 34 37 26 15 10 7 5 6 6 3 2 2 2 2 2 2 2 2 3 3 3 4 5 6 7 8 11 12 10 11 12 14 16 24 88 100 100 97 89 99 94 82 98 100
51 41 39 28 24 12 10 5 6 5 4 2 2 2 2 2 2 2 2 2 3 4 4 5 6 7 8 13 13 11 12 12 16 16 18 42 92 97 100 98 90 100 91 100 100
50 55 40 39 35 14 11 6 6 5 3 3 2 2 2 2 2 2 2 2 3 4 4 4 6 7 8 14 14 12 12 13 14 17 17 17 34 71 98 100 100 100 95 100 100
52 57 41 43 30 19 15 7 5 6 3 2 2 2 2 2 2 2 2 2 3 3 4 5 6 8 8 11 16 16 13 12 13 17 18 17 19 25 65 100 98 100 100 100 100
57 65 41 42 30 24 20 8 5 6 3 2 2 2 2 2 2 2 2 2 2 2 6 6 5 7 10 11 14 17 16 14 13 14 20 20 20 18 22 66 100 100 100 100 100
68 65 42 45 40 28 22 11 5 5 2 2 2 2 2 2 2 1 2 2 2 2 6 6 6 6 10 10 12 17 18 14 15 14 18 21 20 16 16 25 64 98 100 100 100
62 65 51 45 37 30 20 18 5 5 3 2 2 2 2 2 2 1 2 2 2 2 6 7 6 7 10 12 11 13 20 22 17 18 16 17 18 18 18 18 19 41 90 100 100
70 64 61 45 47 36 28 23 12 6 3 2 2 2 2 2 2 1 2 2 2 3 5 9 8 8 9 11 12 14 17 20 21 17 16 16 16 18 17 17 17 18 38 69 100
74 64 58 44 60 40 43 27 13 5 4 3 2 2 2 2 2 2 2 2 2 4 6 9 10 10 10 12 13 13 14 17 21 20 16 18 16 16 18 18 18 17 19 29 60
72 61 62 48 57 44 45 28 16 4 5 3 2 2 2 2 2 2 2 2 2 6 7 10 12 11 11 12 13 15 14 15 14 16 18 17 18 18 16 16 16 17 17 20 22
76 62 66 53 54 49 49 31 20 10 4 4 3 2 2 3 2 2 2 2 2 7 7 8 11 13 12 12 14 17 15 14 14 13 14 16 19 20 18 16 17 16 17 18 20
77 63 70 60 57 53 47 32 23 13 4 4 3 2 2 3 3 2 2 2 3 6 7 9 10 14 12 13 14 16 18 16 15 14 14 15 18 22 19 18 16 14 15 17 19
77 66 81 66 59 47 49 35 26 20 5 4 3 3 3 3 3 3 3 3 3 4 5 5 9 18 15 15 15 18 17 16 16 16 17 16 16 21 20 18 16 14 13 15 18
79 68 76 68 58 56 51 35 30 22 7 4 4 4 3 3 4 4 4 4 3 4 5 7 10 15 19 17 16 17 18 17 19 21 19 17 17 19 18 20 18 18 15 14 15
78 76 70 69 67 55 53 35 31 29 12 4 4 5 5 4 4 5 4 4 4 4 6 8 12 18 20 18 16 15 16 17 19 21 19 17 17 16 20 20 22 21 21 19 17
80 82 75 73 72 51 54 36 35 34 29 7 4 4 5 6 4 4 6 5 5 6 6 8 12 17 20 19 18 16 15 16 17 19 18 18 20 19 19 20 20 23 24 22 22
79 81 77 80 77 52 59 38 36 43 38 17 4 4 6 6 5 6 5 6 6 6 8 10 11 15 20 23 22 18 16 17 19 20 20 19 20 19 22 22 22 24 27 24 24
83 82 87 82 75 53 58 40 35 51 53 38 8 4 5 7 6 5 7 7 8 8 8 10 15 20 20 21 22 22 19 18 18 18 17 18 20 18 21 24 26 25 28 29 26
86 82 97 75 83 60 62 39 44 51 55 51 27 6 4 6 7 6 6 8 9 9 8 10 12 18 24 28 28 30 26 22 21 20 21 20 22 21 20 23 24 25 25 26 26
82 93 94 82 82 61 60 36 41 53 60 57 50 19 8 6 8 8 6 6 8 10 11 10 10 13 17 20 27 28 29 29 30 31 28 29 24 22 20 18 22 26 29 30 29
89 98 83 89 86 64 61 39 37 55 57 58 51 45 16 12 9 8 8 7 7 9 12 12 11 12 15 19 25 26 26 24 26 27 28 30 26 24 17 17 20 24 27 28 28
100 87 89 80 96 69 60 37 38 52 56 63 62 58 35 18 14 12 8 8 8 8 9 12 15 13 13 18 20 26 27 27 26 24 30 26 28 29 13 12 17 21 23 24 24
100 83 82 83 95 65 57 38 39 47 52 66 69 69 56 28 18 12 11 9 8 9 10 9 10 16 16 15 16 19 20 23 26 26 26 30 42 20 18 13 14 17 21 23 22

GFSSW_250_rhum_081.txt.gz
RH
62 36 41 36 26 23 16 8 5 4 4 4 3 2 3 2 2 2 2 3 3 3 4 4 5 6 9 11 11 11 10 12 15 27 78 100 100 100 100 93 98 100 100 100 100
64 44 41 37 36 28 20 11 5 5 5 4 3 2 2 2 2 2 2 2 3 3 3 4 4 5 7 12 12 13 10 11 16 17 65 100 100 100 100 100 100 100 100 100 100
77 51 46 43 38 38 28 13 6 5 5 4 3 2 2 2 2 2 2 2 2 3 3 4 4 5 6 10 12 12 10 13 15 16 16 86 100 100 100 100 100 100 100 100 100
79 46 47 45 41 37 29 15 6 5 4 4 4 2 2 2 2 2 2 2 2 3 3 4 4 4 6 8 14 13 13 11 11 12 13 15 35 86 100 96 99 100 100 100 100
82 50 54 44 39 42 26 15 6 6 5 4 4 2 2 2 2 2 2 2 2 2 3 3 4 5 6 10 14 16 13 12 11 8 12 16 20 38 99 100 100 98 100 100 100
79 52 53 48 42 51 29 16 7 6 4 4 4 2 2 2 2 2 2 2 2 3 3 3 4 5 6 9 12 20 14 11 10 12 13 16 16 30 84 100 100 100 100 100 100
77 53 48 48 49 54 34 16 8 6 4 4 3 2 2 2 2 1 2 2 2 2 4 4 4 4 6 8 14 16 15 13 12 12 13 14 18 20 68 100 100 100 100 100 100
79 57 51 51 57 50 38 26 9 7 6 4 2 2 2 2 2 2 2 2 2 3 4 4 4 5 6 8 11 17 17 14 12 13 14 14 18 20 54 100 100 100 100 100 100
74 66 61 49 70 54 39 30 12 8 7 4 2 2 2 2 2 2 2 2 2 2 3 5 6 5 6 8 11 14 16 16 14 12 15 15 17 21 21 69 99 100 100 100 100
66 72 61 56 67 53 42 39 21 8 7 4 3 2 2 2 2 2 2 2 2 2 3 5 5 5 6 8 10 12 14 15 15 14 15 15 17 18 19 75 99 100 100 100 100
70 78 61 58 73 62 43 41 30 9 6 3 3 2 2 2 2 1 2 2 2 2 3 5 6 7 7 9 12 13 19 19 18 14 15 16 16 18 19 37 89 94 100 100 100
72 81 67 64 68 58 42 46 34 12 6 4 4 2 2 2 1 1 2 2 2 2 4 5 7 8 7 8 10 13 13 20 20 21 18 16 16 18 19 20 62 84 100 100 100
79 90 73 67 71 57 46 44 34 15 6 4 3 2 2 2 2 1 2 2 2 3 4 5 6 8 8 8 12 14 14 18 24 23 18 17 19 18 19 19 22 57 94 99 100
87 90 73 70 75 61 48 45 42 20 7 4 3 2 2 2 2 2 2 2 2 3 4 5 7 12 10 10 12 14 15 20 28 24 20 17 20 19 19 19 18 20 33 66 86
83 82 68 76 75 64 51 48 42 25 9 4 3 3 2 2 2 2 2 2 2 4 6 7 9 15 12 11 14 16 17 23 23 26 22 19 20 19 21 20 20 19 18 19 25
91 86 71 84 80 68 54 56 51 27 13 5 2 3 2 2 2 2 2 2 2 3 5 7 12 16 13 12 13 16 16 16 17 20 23 21 20 21 19 18 18 18 19 19 18
89 86 75 82 86 71 55 60 48 32 16 5 3 3 3 2 2 3 3 3 3 4 5 7 10 16 15 13 13 15 17 17 16 19 24 22 21 21 21 19 17 17 19 19 19
92 93 83 82 81 70 55 64 46 33 20 6 4 3 4 3 3 4 4 4 4 4 5 5 9 14 15 14 16 16 16 16 17 18 17 18 18 18 18 20 20 19 18 19 20
100 95 92 81 85 69 53 65 49 34 26 11 5 4 4 5 3 4 5 5 4 6 7 12 15 16 17 16 16 16 14 19 19 20 20 17 16 14 13 16 22 21 21 20 20
100 95 98 86 75 74 56 64 49 40 36 18 7 4 3 6 6 4 6 6 6 6 8 10 14 20 22 21 18 17 18 20 19 19 17 17 15 12 13 14 16 22 23 24 22
100 99 92 96 73 78 62 68 49 42 46 32 10 6 5 5 8 7 5 8 8 8 8 8 12 16 22 25 24 20 20 19 19 20 18 16 15 12 13 14 15 16 20 23 24
99 99 85 99 73 79 65 67 51 44 49 42 21 8 6 6 9 11 7 6 9 9 9 10 12 15 16 20 24 24 21 20 19 18 17 17 16 15 14 16 15 15 16 19 23
90 96 84 92 77 80 70 66 50 40 51 50 34 11 8 7 9 10 10 7 7 10 10 11 13 16 19 22 23 25 24 22 18 18 19 19 17 18 15 15 14 14 16 17 21
94 94 91 74 81 90 77 69 51 39 50 53 43 31 10 8 10 10 10 9 8 8 11 12 13 15 15 18 20 24 26 26 25 23 24 23 20 20 15 14 15 15 17 18 19
100 84 90 70 92 92 77 70 52 38 49 48 43 50 27 10 11 11 12 15 11 9 9 12 16 15 17 18 20 20 22 27 30 28 26 27 25 20 18 15 14 17 18 18 19
89 95 79 70 96 95 73 70 57 42 43 47 47 53 60 27 20 13 12 13 13 11 10 11 12 16 16 16 22 22 20 22 25 26 24 25 24 20 16 13 16 17 18 19 19
94 100 77 79 100 94 78 75 61 44 39 44 46 46 59 47 32 19 15 12 13 13 11 10 12 13 15 18 16 24 22 23 25 28 25 27 28 18 21 16 14 14 16 17 16

GFSSW_250_rhum_084.txt.gz
RH
66 60 49 36 26 40 29 28 22 10 6 5 4 4 4 3 3 2 2 2 2 3 3 3 3 4 6 7 9 12 13 11 14 16 90 92 100 100 92 90 100 100 100 100 100
69 69 60 49 36 40 34 30 18 10 6 5 5 3 3 3 2 2 2 2 2 2 2 3 4 4 5 8 9 11 10 13 17 16 16 64 100 100 88 69 75 94 100 100 100
76 79 66 56 48 38 36 32 23 11 6 6 4 3 3 2 2 2 2 2 2 2 2 3 3 3 5 6 9 9 12 18 14 16 14 19 100 100 100 66 66 69 100 100 100
84 90 66 63 55 36 40 32 26 11 5 6 3 3 3 2 2 2 2 2 2 2 2 3 3 4 5 5 9 9 19 14 18 12 12 14 21 100 100 79 90 86 100 100 100
88 96 69 71 61 40 46 39 27 13 5 6 3 3 3 2 2 2 1 2 2 2 2 3 3 4 4 8 9 12 17 16 21 14 14 17 19 64 100 100 87 97 92 100 100
92 97 80 79 74 48 49 48 29 12 6 4 3 3 2 2 2 2 1 2 2 2 2 3 3 4 5 6 8 13 14 22 20 15 17 14 16 21 100 100 100 86 99 97 100
96 92 91 92 73 51 54 45 31 13 7 4 3 3 2 2 2 2 1 2 2 2 3 3 4 4 5 6 7 10 13 19 23 16 21 13 14 19 45 100 100 100 95 100 95
100 86 97 100 77 51 52 41 29 13 7 4 3 3 2 2 2 2 1 1 2 2 2 3 3 4 6 6 8 8 16 24 23 24 20 12 12 20 16 54 100 100 100 93 100
100 88 96 94 75 55 51 40 26 12 7 4 3 2 2 2 2 2 1 1 2 2 2 3 4 4 5 6 8 10 16 27 28 28 20 12 13 17 17 19 55 100 100 99 99
100 94 100 94 76 57 54 38 26 14 7 4 3 3 2 2 2 2 1 1 1 2 2 3 5 4 4 6 6 9 15 26 34 29 20 18 16 14 16 18 19 64 100 100 96
100 100 100 92 79 57 55 42 34 16 7 5 3 3 2 2 2 2 1 1 1 2 2 3 5 6 6 9 9 16 21 29 36 33 24 18 13 16 17 17 18 20 52 100 100
100 100 100 91 82 61 59 48 35 18 7 6 4 3 2 2 2 1 1 1 2 2 2 3 4 7 7 8 8 11 16 23 33 38 24 18 16 14 15 16 18 19 20 24 48
100 100 100 92 82 63 61 49 39 25 8 6 4 3 2 2 2 2 1 1 2 2 3 3 4 8 9 8 6 9 14 13 17 18 16 17 15 17 16 19 19 20 21 22 35
100 100 100 94 84 68 63 53 46 37 8 9 5 3 2 2 2 2 1 1 2 3 3 4 5 8 11 9 9 10 13 14 16 17 17 17 19 20 16 17 18 19 18 21 31
100 100 100 92 82 67 65 54 49 42 8 10 6 3 2 2 2 2 1 2 2 2 3 4 5 7 12 10 8 10 11 12 15 17 16 21 25 22 18 17 21 20 19 22 26
100 100 100 96 78 73 66 57 47 44 11 9 6 4 3 2 2 2 2 2 2 3 3 4 6 9 14 13 10 10 11 12 13 13 16 25 33 23 20 18 19 20 19 20 23
100 100 100 100 72 78 71 58 46 45 21 12 7 4 3 3 2 2 2 2 2 4 4 5 8 14 19 16 12 11 13 17 18 16 18 21 30 26 22 22 20 21 20 20 20
100 100 100 97 73 78 69 55 52 58 40 13 9 5 4 3 3 2 4 3 3 4 4 6 7 11 16 17 14 12 14 16 16 17 18 19 26 30 24 24 21 22 21 21 20
100 100 100 90 76 74 78 56 64 59 45 17 10 7 4 4 4 4 4 5 4 5 8 6 8 10 15 18 15 12 12 16 18 19 19 18 18 26 19 25 25 22 21 21 21
100 100 100 84 81 75 70 54 64 57 46 26 12 8 6 5 6 7 5 6 6 7 8 12 11 12 15 16 16 14 16 16 16 17 17 17 15 16 18 21 24 23 22 21 21
100 100 100 86 79 79 64 55 64 58 49 36 16 9 8 6 7 10 9 7 9 9 8 8 9 13 18 22 20 17 15 15 16 16 18 18 17 18 19 17 19 21 24 22 23
100 100 100 86 82 79 63 58 67 57 47 38 24 12 8 8 6 9 12 10 8 11 11 10 11 13 16 20 21 21 18 17 18 17 18 19 19 18 18 16 16 15 15 21 24
100 100 100 90 89 74 64 64 70 56 46 38 30 23 12 10 8 9 10 12 11 9 12 13 12 13 16 21 24 26 23 21 20 22 21 20 18 17 16 17 16 15 14 14 15
100 100 100 92 90 76 61 68 69 58 47 41 34 32 22 18 14 14 12 12 12 12 11 13 14 15 15 17 21 24 28 26 23 23 21 21 18 17 17 15 14 16 16 15 14
100 100 98 94 85 81 62 70 70 57 45 43 36 33 37 26 19 17 16 14 14 13 12 11 13 18 19 18 19 17 22 30 35 31 30 25 21 18 17 16 15 15 16 17 16
100 100 95 95 87 79 66 67 71 62 48 40 39 37 41 51 45 27 25 20 19 16 14 15 11 11 15 20 21 24 25 22 29 28 31 30 32 26 22 20 16 14 15 17 16
100 99 99 95 88 81 71 63 70 62 47 41 41 36 39 45 58 49 39 26 20 19 17 14 14 13 12 12 20 25 22 24 27 28 23 29 33 25 26 22 19 16 15 16 15

GFSSW_250_rhum_087.txt.gz
RH
62 69 66 59 40 45 34 26 31 23 13 9 7 5 5 4 3 2 2 2 2 2 2 2 3 3 4 3 4 7 9 12 15 16 97 100 100 70 81 100 100 100 100 94 100
68 79 75 66 48 47 39 32 33 25 16 10 7 5 6 3 2 2 2 2 2 2 2 2 2 2 3 4 4 6 7 12 21 18 16 87 100 98 72 100 100 100 100 100 100
69 90 84 67 58 52 43 40 36 29 19 10 6 5 5 2 2 2 2 2 2 2 2 2 2 2 3 4 4 4 6 18 20 18 17 21 100 100 95 90 100 100 100 100 92
70 97 95 78 66 56 45 47 38 28 15 9 6 5 4 2 2 2 1 2 2 2 2 2 2 2 3 4 4 5 6 16 17 17 19 15 85 100 100 99 100 99 100 100 100
81 96 97 81 72 68 51 47 39 30 16 9 5 5 3 2 1 2 1 1 2 2 2 2 2 2 3 4 5 5 10 16 16 17 20 18 18 100 100 100 100 95 95 100 100
85 94 90 81 80 74 54 48 40 33 16 8 6 4 2 2 1 1 1 1 1 2 2 2 2 2 3 4 5 7 11 18 11 14 19 21 19 25 100 100 100 92 76 100 100
95 92 89 87 78 78 60 49 42 31 14 7 6 4 2 2 2 1 1 1 1 1 2 2 2 2 3 4 5 8 12 18 13 19 20 21 18 18 100 100 100 100 82 79 100
100 99 93 90 86 83 63 51 39 33 15 7 6 3 2 2 2 1 1 1 1 1 2 2 2 2 3 4 5 8 12 15 18 14 17 19 22 18 82 100 100 100 98 75 80
100 100 94 98 88 82 63 55 42 38 14 7 6 3 2 2 2 1 1 1 1 1 2 2 3 4 3 4 5 8 11 14 21 16 22 26 31 23 20 92 100 100 100 100 82
100 96 84 100 98 81 68 54 50 40 15 9 6 2 2 2 2 1 1 1 1 1 2 2 3 4 4 4 5 8 11 14 27 21 24 29 34 26 19 17 31 100 100 100 100
100 100 89 100 100 80 74 57 57 48 18 10 6 3 2 2 2 1 1 1 1 1 2 2 3 4 5 6 7 13 20 18 27 37 43 34 43 26 17 18 18 19 28 100 100
100 96 99 100 100 82 74 60 59 56 17 10 6 3 2 2 2 2 1 1 1 2 2 3 4 4 5 7 8 11 14 21 31 52 54 30 30 39 15 20 18 18 22 63 93
100 96 100 100 100 86 72 65 64 59 20 11 6 3 2 2 2 2 1 1 1 2 2 3 4 6 6 7 7 9 13 17 24 34 38 49 37 18 19 15 21 19 19 20 20
100 100 100 100 99 87 71 58 63 55 20 11 6 4 2 2 2 2 1 1 1 2 2 3 4 6 8 8 7 9 13 17 22 30 39 42 32 16 18 24 19 23 20 20 21
100 100 100 100 100 94 69 64 63 53 20 10 6 4 3 2 2 2 1 1 2 2 3 3 4 6 10 9 8 10 11 15 22 27 25 24 25 15 17 20 21 24 25 23 22
100 100 100 100 100 91 67 68 66 50 30 11 6 4 3 2 2 2 2 1 2 3 3 4 5 8 12 12 10 10 16 13 18 17 18 26 22 16 16 19 18 24 27 24 23
100 100 100 100 100 90 74 71 65 51 40 10 8 5 4 2 2 2 2 2 2 3 3 6 6 6 10 13 13 13 11 13 9 12 18 26 22 15 21 18 23 27 20 21 23
100 100 100 100 100 92 79 76 67 54 47 12 9 7 4 3 3 4 3 3 3 4 4 5 8 12 16 15 15 12 11 10 11 11 16 19 24 19 18 18 21 28 27 25 20
100 100 100 100 99 90 87 76 65 54 44 16 8 10 7 3 3 4 5 5 4 4 6 6 7 9 14 15 15 14 13 12 12 15 16 19 22 25 26 26 27 33 32 26 21
100 100 100 100 100 95 88 75 58 56 41 24 11 8 7 5 4 4 6 6 6 6 6 7 8 9 12 15 16 16 15 15 15 16 17 18 21 25 18 22 24 26 26 22 22
100 100 100 100 100 92 92 76 54 57 42 37 22 11 8 7 6 6 6 8 8 8 8 8 9 9 12 15 18 17 16 15 14 16 18 17 16 18 18 16 17 19 23 24 21
100 100 100 100 99 87 97 73 56 59 42 43 30 19 13 9 8 11 9 8 9 9 8 10 9 11 12 15 17 18 17 16 16 17 17 18 19 19 19 16 17 17 17 20 19
100 100 100 100 95 93 92 73 59 58 46 40 37 27 20 14 13 12 12 12 12 11 11 10 10 11 11 13 14 20 22 19 17 15 16 17 20 20 20 19 18 18 17 17 17
100 100 100 99 92 100 88 72 61 59 49 39 38 33 27 25 18 16 15 15 17 18 14 12 12 11 14 15 16 17 20 22 22 21 19 20 19 21 19 19 18 16 18 19 18
100 100 100 92 96 99 84 73 66 66 56 43 39 35 33 38 32 32 23 20 19 17 20 20 14 13 11 13 17 17 19 21 26 22 23 19 19 18 19 18 17 16 16 19 20
100 100 100 93 96 94 87 70 64 70 63 46 41 36 34 38 42 54 42 31 31 29 25 16 18 19 14 12 13 17 19 19 21 20 25 25 27 20 19 20 20 18 17 18 20
100 100 100 100 92 97 82 71 68 70 72 54 44 38 34 39 48 51 57 48 39 36 32 22 21 20 22 18 14 12 12 17 21 21 24 30 27 25 24 22 24 22 18 17 18

GFSSW_250_rhum_090.txt.gz
RH
40 36 48 51 56 66 54 43 37 28 17 14 8 7 9 6 5 4 4 4 2 2 2 2 2 2 2 3 3 4 4 6 12 17 27 27 100 98 86 100 100 100 100 95 100
41 44 50 57 62 69 56 45 35 26 17 14 8 8 7 5 5 4 4 3 2 2 2 2 2 2 2 3 3 4 4 5 11 21 26 26 66 98 83 100 99 100 100 100 100
42 49 49 57 66 72 58 45 35 27 21 15 8 8 6 4 4 3 3 2 2 2 2 1 2 2 2 3 3 5 5 6 10 21 25 25 27 100 77 100 100 100 100 100 100
54 50 50 59 73 68 56 44 37 28 21 12 7 7 5 5 3 2 2 2 2 1 2 1 2 2 2 3 4 4 5 5 9 18 24 25 23 100 77 99 100 100 94 100 100
67 64 60 65 75 63 61 45 41 31 20 10 7 7 4 4 2 2 1 1 1 1 2 1 2 2 2 3 4 4 5 7 11 19 22 25 23 46 100 100 100 100 99 89 100
79 75 76 68 76 66 66 50 44 33 18 9 7 6 4 4 2 2 1 1 1 1 2 2 2 2 2 3 3 5 6 7 13 17 21 22 24 24 95 100 100 100 100 98 79
84 83 93 72 82 71 67 58 49 33 19 9 8 6 4 3 2 1 1 1 1 1 1 2 2 2 2 3 4 5 6 7 9 14 21 21 22 24 45 100 100 100 100 100 99
92 94 99 84 81 71 72 71 52 34 20 9 9 7 4 2 2 1 1 1 1 1 1 1 2 2 2 3 4 5 6 8 12 27 18 19 19 23 26 98 100 100 100 100 100
100 100 99 90 78 87 79 76 57 40 16 9 9 8 4 2 1 1 1 1 1 1 1 1 2 2 3 3 4 5 6 6 13 13 15 20 19 21 24 33 100 100 100 100 100
100 100 100 96 87 93 85 75 59 45 16 10 11 7 3 2 1 1 1 1 1 1 1 1 2 3 4 4 4 5 5 6 6 12 11 21 18 16 22 25 63 100 100 100 100
100 100 100 100 95 99 90 73 68 48 15 11 10 6 3 2 1 1 1 1 1 1 1 2 3 4 4 4 4 6 7 6 10 15 11 18 23 17 18 27 28 82 100 100 100
100 100 100 100 100 100 89 83 76 50 14 9 10 7 3 2 2 1 1 1 1 1 1 2 2 3 4 5 5 6 8 9 11 15 19 31 23 21 16 24 27 27 52 100 100
100 100 100 100 100 100 98 94 77 49 18 11 11 8 2 2 2 2 1 1 1 1 2 2 3 4 6 6 6 7 9 9 13 21 29 29 21 24 20 20 23 29 25 82 100
100 100 100 100 100 100 100 100 75 59 24 15 11 7 3 2 2 2 1 1 1 2 2 2 3 5 9 8 7 8 9 11 16 21 30 27 37 33 24 21 22 27 28 23 57
100 100 100 100 100 100 100 100 79 64 37 16 13 6 3 2 2 2 2 1 2 2 2 3 3 5 7 7 8 9 10 11 16 26 37 34 38 20 24 24 15 21 30 29 24
100 100 100 100 100 100 100 99 77 73 46 17 13 6 3 2 2 2 2 2 2 2 3 3 5 6 10 9 9 9 10 12 17 31 32 28 29 17 23 24 18 18 22 32 28
100 100 100 100 100 100 100 93 77 80 50 15 12 7 4 3 2 2 2 2 2 3 3 4 6 7 12 9 9 8 11 15 17 24 33 26 22 21 15 27 23 24 20 24 31
100 100 100 100 100 100 100 88 77 72 51 23 11 7 5 3 2 3 3 3 3 3 4 5 7 9 13 12 11 10 11 13 15 16 22 28 34 35 26 20 21 22 25 22 23
100 100 100 100 100 100 97 86 78 64 57 34 13 8 7 4 3 3 4 4 4 4 4 5 5 7 10 14 14 12 13 15 15 15 18 22 28 31 30 26 22 22 17 17 20
100 100 100 100 100 100 91 82 78 56 55 34 17 10 7 5 4 4 4 5 6 6 5 6 6 6 7 12 13 14 13 12 13 14 19 23 23 24 27 27 20 18 16 15 14
100 100 100 100 100 100 92 82 74 55 50 39 20 16 11 7 6 6 7 7 6 7 6 6 7 9 9 12 17 14 14 13 12 11 13 18 21 22 24 25 25 23 26 29 34
100 100 100 100 100 99 90 83 70 55 52 40 25 19 13 9 8 6 6 6 7 9 10 9 9 9 10 11 14 16 17 16 14 12 14 16 20 28 29 33 38 40 44 40 32
100 100 100 100 100 95 89 84 69 57 51 41 35 27 21 18 16 15 14 9 8 8 10 9 11 10 11 12 13 14 17 19 18 16 15 18 21 23 23 24 25 22 22 23 22
100 100 100 100 100 93 92 82 69 60 51 45 37 29 27 27 26 25 22 20 18 13 11 9 10 11 11 11 14 14 16 18 20 22 20 17 16 16 16 16 16 18 18 19 20
100 100 100 100 97 98 95 81 69 63 53 51 38 33 30 32 34 36 30 28 24 20 23 22 15 11 11 12 11 12 15 16 18 19 21 20 19 17 16 14 13 13 14 16 18
100 100 100 100 93 100 96 83 67 69 50 54 44 34 29 31 38 41 38 44 38 35 32 34 30 20 15 14 14 13 14 13 14 17 21 21 24 18 18 17 16 16 15 16 16
100 100 100 100 95 100 98 81 68 72 55 56 46 33 32 35 36 45 46 49 48 46 42 43 35 31 26 19 21 15 14 13 13 14 16 18 21 17 22 23 22 20 19 17 17

GFSSW_250_rhum_093.txt.gz
RH
67 66 60 50 52 52 60 65 80 70 61 43 27 16 10 11 8 7 4 4 4 3 2 2 2 1 1 2 2 3 2 4 5 8 24 23 21 39 100 100 100 100 100 100 82
63 89 73 59 54 59 65 67 83 77 67 46 28 14 11 10 9 7 4 4 3 2 2 2 1 1 2 2 2 2 3 3 6 9 23 24 23 31 87 100 100 100 100 95 92
82 75 69 44 45 66 74 73 89 76 65 51 27 10 12 10 10 5 4 3 3 2 2 2 2 2 2 2 2 2 3 4 5 9 20 24 25 29 49 100 100 100 100 99 100
68 74 77 57 64 62 79 74 91 82 64 53 20 9 9 10 9 4 3 2 2 2 2 2 2 2 2 2 2 2 4 5 8 9 15 21 26 35 32 72 100 100 100 100 100
35 35 61 81 81 66 77 79 81 78 62 53 13 10 8 9 5 3 2 2 2 2 1 2 2 2 2 2 2 2 4 6 7 8 12 18 26 39 34 46 100 100 93 100 100
30 40 57 60 77 93 68 76 84 69 60 44 10 9 9 7 4 2 2 1 1 1 1 1 1 1 1 2 2 3 4 7 9 10 10 15 23 38 39 38 97 100 100 83 84
28 39 53 70 80 96 77 67 80 61 65 26 10 9 9 5 3 2 1 1 1 1 1 1 1 2 2 2 2 3 4 6 7 9 11 14 19 30 44 39 62 100 100 100 90
25 32 49 69 69 92 72 85 78 67 69 16 10 11 8 4 3 2 1 1 1 1 1 1 1 1 2 2 2 3 4 6 11 11 9 9 16 28 44 40 45 100 100 100 100
30 30 50 64 89 96 88 88 76 71 51 12 9 12 7 4 2 1 1 1 1 1 1 1 1 1 2 2 2 2 5 9 10 12 10 11 15 23 38 46 46 60 100 100 100
27 41 47 64 100 90 76 93 90 72 35 10 12 14 6 3 2 1 1 1 1 1 1 1 1 2 2 2 2 3 5 7 10 12 9 9 12 18 35 45 56 44 85 100 100
25 38 51 100 100 89 82 96 94 76 20 9 14 11 4 2 2 1 1 1 1 1 1 1 1 2 2 3 4 5 8 11 12 13 9 11 14 18 29 44 48 66 51 100 100
25 48 100 100 100 100 100 100 94 55 19 10 17 11 5 2 2 1 1 1 1 1 1 1 2 2 3 4 4 5 9 14 18 28 14 11 13 14 24 37 52 71 89 75 100
38 94 100 100 100 100 100 100 86 52 15 12 19 11 6 2 2 1 1 1 1 1 1 2 2 2 4 6 5 6 9 13 16 22 17 9 13 10 18 30 44 54 88 100 95
81 100 100 100 100 100 100 100 77 61 24 12 17 11 5 2 2 2 2 1 1 1 2 2 2 2 3 5 5 6 8 10 12 12 13 16 9 16 16 23 40 46 48 91 100
95 100 100 100 100 100 100 100 73 81 31 13 15 12 5 3 2 2 2 2 2 2 2 3 3 4 6 6 6 6 7 10 11 15 18 13 8 7 11 17 28 42 57 48 87
100 100 100 100 100 100 100 98 75 72 38 20 15 12 5 3 2 2 2 2 2 2 3 3 3 4 6 6 7 7 7 9 8 10 9 10 9 9 15 14 14 28 40 50 41
100 100 100 100 100 100 100 92 88 80 51 29 17 11 5 3 2 2 2 2 2 3 3 4 4 5 7 9 9 8 8 8 9 9 12 12 14 14 20 21 21 19 30 44 46
100 100 100 100 100 100 96 97 81 86 66 37 18 11 7 4 3 3 3 3 3 4 3 3 5 7 8 8 9 10 9 10 8 9 10 10 12 14 17 20 21 26 24 34 43
100 100 100 100 100 100 100 93 75 86 70 40 22 11 8 5 3 3 4 4 4 3 4 5 4 5 8 10 9 8 10 9 9 10 10 12 12 13 15 19 21 29 40 33 36
100 100 100 100 100 100 94 81 81 82 63 43 25 15 10 7 4 4 5 4 5 5 5 5 7 7 7 9 10 11 11 11 11 11 12 14 15 17 25 20 21 21 25 24 20
100 100 100 100 100 100 97 73 79 75 61 41 25 19 13 9 6 5 6 5 6 7 7 6 5 8 10 11 12 11 12 13 13 13 14 16 19 23 19 20 18 18 20 23 25
100 100 100 100 100 97 94 77 78 65 59 43 30 23 16 12 10 9 8 8 9 8 8 9 9 7 8 12 14 16 14 11 10 12 13 19 32 29 27 26 24 23 24 23 24
100 100 100 100 100 95 97 85 75 63 57 47 33 24 20 17 16 15 13 11 10 10 10 10 10 10 10 10 11 15 19 19 16 14 14 17 18 21 27 32 31 29 27 29 25
100 100 100 100 100 96 97 84 73 62 54 46 33 28 25 25 22 23 21 21 20 16 15 14 13 12 13 13 12 12 12 15 17 18 17 15 15 17 16 16 20 22 22 22 21
100 100 100 100 100 96 97 82 71 63 54 45 38 31 28 27 33 37 34 30 30 27 26 27 27 21 18 14 14 14 14 14 15 18 21 18 19 16 13 13 13 15 16 17 20
100 100 100 100 95 100 96 83 69 63 52 49 42 34 30 29 34 40 43 46 43 40 37 33 32 32 33 34 31 22 15 12 13 14 16 19 23 18 22 20 16 15 17 18 18
100 100 100 100 99 100 97 82 69 64 51 51 48 40 35 32 34 39 45 50 51 52 48 49 48 42 47 38 33 37 37 26 17 10 12 13 15 18 24 28 27 24 20 17 16

GFSSW_250_rhum_096.txt.gz
RH
100 100 72 70 65 70 68 76 59 50 47 46 40 40 40 18 14 10 12 9 8 7 6 4 3 2 2 2 2 1 1 2 2 2 5 6 6 10 20 59 100 100 100 81 84
94 98 91 78 91 85 60 64 60 66 52 39 31 32 39 17 10 12 10 8 6 5 4 3 2 2 2 1 1 1 1 2 2 3 7 7 5 9 16 44 100 100 99 100 70
51 56 67 67 70 69 60 54 61 56 50 29 29 26 26 13 7 12 10 8 6 4 3 2 2 2 1 1 1 1 1 2 2 3 6 6 6 7 16 36 100 100 100 100 68
32 33 49 47 46 55 56 44 52 48 38 31 26 22 19 9 9 10 10 6 4 3 2 2 1 1 1 1 1 1 2 2 2 3 9 8 6 7 18 34 100 100 100 100 100
28 30 35 42 49 50 57 58 54 51 39 31 23 17 14 7 11 10 6 3 3 2 2 1 1 1 1 1 1 2 2 2 3 4 9 9 8 8 19 32 100 100 100 100 100
21 23 34 33 41 33 39 40 38 31 37 28 19 14 10 9 11 8 3 2 2 1 1 1 1 1 1 1 1 2 2 2 2 3 5 8 9 12 17 30 84 100 100 100 100
12 14 23 25 28 29 29 31 33 32 44 25 15 10 8 10 9 4 3 2 1 1 1 1 1 1 1 1 1 2 2 2 3 4 10 8 8 12 17 29 50 100 100 100 100
14 12 15 16 22 18 21 35 43 44 40 21 15 8 11 11 6 3 2 2 1 1 1 1 1 1 1 1 1 2 2 2 3 5 11 10 11 16 24 28 40 86 100 100 100
15 14 12 13 14 20 37 62 55 65 39 18 13 8 11 9 4 2 2 1 1 1 1 1 1 1 1 1 1 1 2 3 4 5 9 18 18 21 34 26 35 67 100 100 100
12 12 10 10 18 37 75 67 79 89 32 19 10 9 13 5 3 2 1 1 1 1 1 1 1 1 1 1 2 2 3 3 4 6 13 19 10 30 33 37 33 48 100 100 100
12 13 9 11 26 81 93 86 100 56 32 15 9 10 10 4 2 2 1 1 1 1 1 1 1 1 1 2 2 3 3 4 6 9 20 30 28 34 31 49 39 41 100 100 100
14 11 11 22 79 86 99 100 99 64 27 13 10 13 6 3 2 2 1 1 1 1 1 1 1 1 2 2 3 4 4 5 8 13 21 38 44 32 34 65 63 43 83 100 100
13 11 15 46 100 100 100 100 100 62 27 10 14 12 6 3 2 2 1 1 1 1 1 1 2 2 2 3 4 4 4 5 13 18 26 63 40 21 38 49 98 71 39 100 100
11 14 31 99 100 100 100 100 100 58 15 15 16 11 7 3 2 2 2 2 1 1 2 2 2 2 3 3 4 4 5 7 14 16 27 28 34 17 23 41 64 100 57 54 100
16 25 68 100 100 100 100 100 100 48 14 15 18 12 7 4 3 2 2 2 1 2 2 2 2 3 4 5 5 5 6 7 10 18 27 18 25 20 17 35 50 100 99 61 71
15 54 100 100 100 100 100 100 95 47 19 14 16 14 7 4 3 2 2 2 2 2 2 3 3 3 4 6 6 6 7 9 14 19 26 24 17 23 26 27 46 58 99 80 59
30 93 100 100 100 100 100 100 83 73 18 17 18 13 7 4 3 2 2 2 2 3 3 3 3 4 6 6 6 7 8 9 11 15 16 18 13 26 26 18 44 49 57 99 92
60 100 94 100 100 100 100 96 94 61 33 20 20 13 8 5 3 3 3 2 3 3 3 5 4 5 7 7 7 8 8 8 9 12 12 13 13 12 29 14 17 40 52 61 78
100 100 100 100 100 100 100 100 85 50 50 29 19 14 9 6 3 3 3 3 4 4 4 4 7 7 8 8 8 9 10 9 10 10 10 13 13 14 15 13 10 17 36 47 49
100 100 100 100 100 100 100 98 80 66 56 37 23 16 9 6 6 4 4 4 4 5 6 5 6 9 10 10 9 9 11 12 11 11 10 12 12 14 12 12 11 10 16 30 40
95 100 100 100 100 100 100 97 84 77 54 39 24 17 12 9 6 6 6 6 6 6 8 8 7 7 9 12 12 11 11 12 13 13 13 13 14 16 13 14 12 14 17 19 31
100 100 100 100 100 100 100 94 88 73 54 34 25 19 15 12 12 9 10 10 8 8 7 8 9 10 9 10 10 13 14 11 14 15 14 15 15 15 14 13 14 12 15 18 18
100 100 100 100 100 100 99 91 87 64 46 34 27 22 20 17 16 19 16 14 14 16 15 12 10 11 12 13 14 14 15 16 18 17 13 12 14 16 17 16 16 15 12 14 14
100 100 100 100 100 98 98 95 82 63 47 35 27 26 26 25 28 29 29 25 20 19 18 20 18 18 16 14 14 16 18 19 20 23 23 20 16 14 15 17 18 21 23 26 23
100 100 100 100 97 95 97 95 75 60 46 35 30 29 31 32 38 38 39 37 36 32 28 27 23 22 26 23 22 26 23 18 14 15 15 15 20 21 19 18 20 24 27 28 32
100 98 100 100 100 98 93 91 72 59 50 43 36 33 30 34 39 44 45 49 54 51 46 40 44 42 42 32 27 25 27 30 31 26 22 20 16 14 19 24 23 20 20 20 20
100 100 100 100 95 92 89 88 71 60 53 49 43 39 36 35 36 39 45 52 51 51 54 54 56 54 59 65 59 41 32 25 33 34 32 28 23 21 16 16 20 23 24 22 21

GFSSW_250_rhum_099.txt.gz
RH
100 89 92 86 72 80 61 62 67 60 67 53 62 48 47 36 26 19 15 11 8 9 10 10 7 5 4 3 2 2 3 4 4 5 4 4 4 3 3 6 13 97 100 100 100
49 80 69 61 59 76 73 70 65 51 53 42 40 44 41 34 27 23 10 9 8 9 10 10 7 4 3 3 2 2 2 3 3 3 3 3 2 2 3 6 10 30 57 100 100
27 26 31 40 36 43 49 58 61 52 48 30 28 42 39 23 18 14 8 7 7 9 9 7 4 3 3 2 2 2 2 2 2 2 2 2 2 2 3 6 10 21 80 100 100
18 21 20 20 27 26 33 29 28 31 28 26 29 38 28 17 11 11 8 6 8 10 8 4 3 2 2 2 1 1 1 2 2 2 2 2 2 2 3 7 14 41 100 100 100
14 14 16 19 18 21 24 23 18 23 27 27 26 21 17 12 10 7 6 6 10 9 5 3 2 2 2 1 1 1 1 1 1 1 1 2 2 2 4 8 20 100 100 100 100
14 13 13 16 11 13 13 14 15 21 23 24 24 18 11 10 8 5 5 9 8 5 4 2 2 1 1 1 1 1 1 1 1 1 1 2 2 2 4 9 22 100 100 100 100
14 12 12 11 10 10 8 9 11 19 18 24 17 15 12 6 5 5 8 8 5 3 2 2 1 1 1 1 1 1 1 1 1 1 1 2 2 3 3 9 25 100 100 100 100
13 12 11 11 13 9 9 10 12 17 18 19 12 7 6 5 6 7 7 4 3 2 2 1 1 1 1 1 1 1 1 1 2 2 2 3 3 3 4 12 37 100 100 100 100
12 11 12 12 11 8 9 11 16 17 19 13 8 5 4 8 8 7 4 3 2 2 1 1 1 1 1 1 1 1 1 2 2 2 3 4 4 4 8 15 48 97 100 98 100
11 11 15 12 10 10 12 16 16 18 16 8 6 5 12 8 8 6 4 2 2 1 1 1 1 1 1 1 1 1 2 2 2 2 4 5 5 7 10 17 35 100 100 100 100
11 11 11 10 11 12 15 15 18 23 12 11 8 13 10 9 6 4 2 2 1 1 1 1 1 1 1 1 1 1 2 2 2 3 4 5 5 7 11 21 32 100 100 100 100
11 12 12 14 13 22 17 24 49 26 24 15 17 17 12 8 5 2 2 1 1 1 1 1 1 1 1 1 1 1 2 2 2 3 5 5 6 12 14 24 32 64 100 100 100
10 13 14 12 19 16 50 77 60 43 34 23 23 17 10 6 3 2 2 1 1 1 1 1 1 1 1 1 2 2 2 3 3 5 6 13 16 20 23 27 35 97 100 100 100
10 12 14 19 18 53 100 86 68 48 31 30 22 12 6 4 2 2 2 1 1 1 1 1 2 2 2 2 2 3 3 4 4 7 10 20 17 22 39 25 43 64 100 100 100
11 16 19 25 35 100 100 93 74 47 33 26 17 9 5 3 2 2 2 2 2 1 2 2 2 2 2 2 4 4 5 5 5 9 14 19 21 17 61 60 54 48 100 100 100
15 18 18 30 75 98 100 98 81 40 30 25 13 7 4 3 3 2 2 2 2 2 2 2 2 3 3 4 5 5 5 5 6 11 15 23 22 17 58 94 55 46 49 99 100
11 11 29 75 79 100 100 100 50 36 29 18 13 8 5 4 2 2 2 2 2 2 2 3 3 5 5 6 6 6 5 6 8 13 17 24 29 27 36 63 69 51 49 71 100
9 30 75 88 100 100 100 74 51 31 23 18 12 8 6 4 2 2 2 2 2 2 3 3 5 6 6 7 6 7 7 7 10 8 12 22 27 22 37 42 50 78 49 59 100
23 63 98 100 100 100 100 86 52 34 23 16 11 8 6 5 3 3 2 3 3 3 3 4 6 7 7 6 7 8 10 11 11 8 10 15 19 28 29 28 50 67 85 55 83
60 85 100 100 100 99 97 74 61 37 27 16 12 9 6 5 5 5 4 4 4 4 4 5 7 8 8 8 7 8 10 12 11 11 15 12 15 18 16 21 30 63 81 94 71
85 82 100 100 100 99 89 74 64 42 28 18 14 10 8 6 6 6 6 6 6 5 6 6 7 9 9 10 10 11 12 13 12 13 14 14 15 17 22 23 17 37 59 98 93
80 100 100 100 99 95 95 77 57 42 27 21 16 13 11 9 9 10 11 10 9 8 8 8 7 8 9 12 14 13 14 16 18 16 16 17 16 16 16 19 16 17 32 44 80
89 100 100 100 97 100 93 71 56 40 29 25 19 16 14 14 13 13 13 15 16 16 14 12 13 12 11 11 14 17 20 22 21 19 17 16 17 20 18 19 20 20 19 26 41
100 100 100 94 97 99 88 65 48 36 33 30 26 21 20 21 22 21 19 18 18 17 19 21 20 20 18 15 17 18 18 17 18 22 24 24 23 20 18 20 21 21 24 22 21
100 100 100 91 93 96 80 56 46 39 37 34 30 27 27 27 28 30 32 31 29 29 22 21 26 30 29 31 31 26 29 32 42 31 25 26 24 35 38 37 26 24 22 19 19
100 100 100 100 99 95 80 62 49 45 42 39 34 32 33 35 32 38 40 42 43 44 49 45 30 33 33 29 29 30 31 31 30 30 31 33 28 33 35 34 38 33 24 22 21
94 98 96 89 98 98 88 68 56 51 48 43 40 40 37 36 38 37 41 45 47 50 51 61 61 59 67 56 52 43 35 32 30 35 35 36 30 34 33 36 34 29 22 22 23

GFSSW_250_rhum_102.txt.gz
RH
19 21 39 63 96 100 94 77 72 58 56 69 58 48 40 42 48 50 48 27 15 12 10 7 9 9 8 8 9 9 8 8 10 8 13 9 11 8 3 4 7 9 9 10 20
17 13 16 18 25 50 87 84 73 71 47 34 42 45 32 32 30 28 32 18 14 7 9 9 7 7 6 8 7 5 6 7 7 5 8 9 8 6 6 4 5 7 7 8 69
18 15 12 15 13 15 17 28 27 26 23 17 21 32 26 27 25 23 14 10 8 6 6 7 5 6 6 7 6 3 5 4 4 4 6 6 9 4 5 6 6 6 6 7 32
23 18 15 12 12 11 11 11 11 13 15 16 16 18 19 26 15 16 10 7 5 6 6 4 6 5 6 4 3 2 3 3 3 3 4 6 6 4 6 8 6 5 6 10 99
21 18 17 15 12 10 10 8 8 9 10 10 14 14 11 14 18 11 7 5 5 5 4 5 5 4 4 4 2 2 2 2 2 2 3 4 5 4 6 6 5 4 6 12 90
17 16 16 15 12 11 9 8 8 8 8 7 10 8 8 12 8 6 5 4 4 5 4 4 4 3 3 2 2 1 1 2 2 2 2 3 3 4 4 4 4 4 9 18 50
17 14 15 11 12 10 9 10 9 9 8 8 7 6 6 4 4 4 4 4 5 4 3 3 3 2 2 1 1 1 1 1 1 1 1 2 2 2 3 3 3 6 26 80 100
12 11 13 12 10 8 11 9 8 10 10 7 6 6 4 4 4 3 4 4 3 3 3 3 2 1 1 1 1 1 1 1 1 1 1 1 2 2 2 3 4 9 40 98 100
8 10 13 13 8 11 11 10 11 9 9 8 7 5 4 5 5 5 4 3 3 3 2 2 1 1 1 1 1 1 1 1 1 1 1 1 1 2 2 3 5 9 53 98 100
5 7 10 13 13 14 11 11 11 10 11 8 6 6 6 6 6 4 3 3 2 2 1 1 1 1 1 1 1 1 1 1 1 1 1 2 2 2 3 4 12 14 70 100 100
3 6 8 11 14 15 13 13 14 15 8 8 8 8 12 9 6 3 3 2 2 2 1 1 1 1 1 1 1 1 1 1 1 1 1 2 2 3 4 5 19 57 100 100 100
3 5 9 12 14 15 15 19 16 10 9 10 9 22 13 6 4 3 3 2 2 1 1 1 1 1 1 1 1 1 1 1 1 1 2 3 4 4 6 6 13 59 100 100 100
3 6 9 13 13 18 18 14 10 10 10 18 28 12 8 6 4 3 2 2 1 1 1 1 1 1 1 1 1 1 1 1 2 2 3 3 5 5 6 9 14 93 100 100 100
3 7 11 10 16 23 17 14 10 11 26 28 20 13 7 6 3 2 2 1 1 2 1 1 1 1 1 1 1 1 1 2 2 3 3 5 6 6 8 14 24 89 100 100 100
4 8 9 18 29 14 20 15 13 35 31 22 13 8 5 3 2 2 2 2 2 2 1 1 1 2 1 2 2 2 2 3 4 4 4 6 6 6 10 22 42 100 100 100 100
6 9 16 20 14 27 23 19 43 36 27 13 9 6 4 3 2 2 2 2 2 2 1 2 2 2 2 2 3 3 3 4 4 5 6 9 6 7 11 22 48 100 100 100 100
7 11 15 16 32 24 26 57 53 26 15 11 7 5 4 3 2 2 2 2 2 2 2 2 2 3 3 4 4 5 4 5 5 6 6 7 6 7 15 23 52 100 100 100 100
9 10 16 32 31 30 66 60 26 18 15 11 8 5 4 3 2 2 2 2 2 2 2 3 3 4 4 4 5 6 6 5 6 5 4 6 7 9 22 32 51 100 100 100 100
10 19 33 42 42 62 60 31 21 19 15 10 7 6 4 3 3 3 2 2 2 2 3 3 4 4 5 6 6 6 6 6 6 6 8 9 9 17 27 32 47 100 100 100 100
14 32 52 46 64 62 38 26 21 17 11 8 7 7 6 5 4 4 3 3 3 3 3 4 5 5 5 6 8 9 10 10 12 10 10 10 10 14 24 34 38 100 100 100 100
41 60 63 65 67 48 32 25 21 16 11 9 8 8 8 7 7 7 6 5 5 4 4 5 6 6 6 7 8 9 10 10 14 19 16 15 12 10 18 27 37 58 100 100 100
61 72 69 77 60 43 30 26 23 17 14 13 11 10 9 9 9 8 9 9 8 6 6 6 6 6 7 9 10 10 10 10 14 17 29 30 22 23 18 25 38 46 41 100 100
73 84 80 68 57 43 31 29 25 21 21 18 15 13 12 12 13 13 11 12 12 11 11 10 10 10 8 9 10 11 12 14 22 18 36 28 47 40 46 43 33 21 30 25 45
81 87 84 69 54 40 35 33 28 26 26 23 21 19 17 18 16 14 15 17 16 16 15 16 16 15 13 13 15 15 16 15 15 25 54 77 85 70 58 54 43 66 73 41 28
92 90 78 57 48 40 40 37 33 31 30 28 26 24 25 26 25 24 20 19 20 23 21 22 20 21 24 24 27 24 28 30 34 30 28 26 21 15 14 15 18 28 44 81 100
92 88 76 60 52 45 44 41 40 37 34 34 31 29 32 35 34 37 38 37 37 34 34 34 33 33 41 41 39 40 41 44 47 46 54 55 44 35 28 24 19 13 12 12 19
95 91 84 71 60 52 51 47 43 40 40 43 39 37 37 38 40 42 46 45 50 52 57 56 54 50 45 40 44 45 49 52 49 50 54 60 59 53 53 52 48 43 33 25 19

GFSSW_250_rhum_105.txt.gz
RH
26 24 20 16 14 13 24 20 38 47 38 33 35 26 38 41 40 32 26 26 22 31 28 20 17 14 8 7 8 10 8 11 12 10 12 19 18 14 13 12 7 4 5 11 14
36 28 26 24 17 15 11 12 12 17 24 29 27 22 24 30 22 20 18 18 22 17 18 16 15 10 9 6 7 8 8 8 10 8 10 15 14 12 10 12 7 6 8 11 14
47 32 26 22 20 17 14 11 10 10 10 11 10 18 17 11 15 15 17 11 13 14 13 10 10 6 7 6 7 6 8 7 8 7 8 11 10 11 9 9 9 8 9 11 13
41 35 37 31 23 19 15 13 9 9 7 6 6 7 9 7 9 12 12 12 8 9 9 7 6 5 6 5 5 6 7 7 6 6 6 7 7 7 7 10 9 6 4 10 13
46 34 35 30 24 19 21 14 12 9 6 6 6 6 6 5 5 5 5 5 7 7 6 5 4 5 5 5 5 5 5 4 4 4 5 6 6 5 6 9 8 5 8 10 11
57 43 31 22 20 18 19 17 12 9 8 6 7 6 6 5 4 4 4 4 4 5 4 4 4 4 4 3 3 4 4 3 3 3 3 4 5 4 6 7 8 9 7 10 9
40 35 26 18 14 16 16 12 12 10 8 9 7 6 5 5 5 5 4 3 3 3 3 3 3 3 3 3 3 3 3 2 2 2 3 3 3 3 5 6 6 8 6 7 10
17 12 14 12 10 12 14 12 11 9 11 9 7 6 5 6 5 4 3 3 3 3 2 3 2 2 2 2 2 2 2 2 2 1 2 2 2 3 3 4 5 8 9 8 9
6 6 8 9 7 9 12 11 10 12 12 10 6 5 6 5 4 3 3 3 3 2 2 2 2 2 2 2 2 1 1 1 1 1 2 1 2 2 2 4 4 7 8 7 9
2 3 5 5 5 8 12 12 12 13 9 6 5 7 7 5 4 5 3 3 2 2 2 2 2 2 2 1 1 1 1 1 1 1 1 1 1 1 2 3 4 6 7 7 8
2 2 3 3 5 9 11 12 16 11 6 7 10 10 7 8 6 4 4 3 2 2 2 2 1 1 1 1 1 1 1 1 1 1 1 1 1 1 1 2 3 4 5 7 13
2 2 2 3 5 7 10 11 11 10 9 10 12 10 7 8 7 7 4 3 2 1 1 1 1 1 1 1 1 1 1 1 1 1 1 1 1 1 1 2 2 3 4 7 41
2 2 2 3 4 6 10 10 11 12 13 12 10 10 16 11 6 4 3 2 1 1 1 1 1 1 1 1 1 1 1 1 1 1 1 1 1 2 2 2 2 3 4 12 100
2 2 2 3 5 8 10 12 12 13 15 23 20 15 8 6 4 3 2 1 1 1 1 1 1 1 1 1 1 1 1 1 1 1 1 2 2 2 3 3 4 4 5 62 100
2 2 4 5 7 10 12 14 14 18 32 20 11 8 6 4 3 2 2 1 2 2 1 1 1 2 2 1 1 1 1 1 2 2 2 2 2 3 4 5 6 12 35 100 100
2 5 6 9 12 13 18 26 32 22 13 10 8 5 3 2 2 2 2 2 2 2 2 2 2 2 2 2 2 2 2 2 2 3 3 3 4 4 6 7 9 66 99 100 100
5 8 10 14 22 35 38 23 16 12 9 7 6 4 4 3 2 2 2 2 2 2 2 2 2 2 2 3 3 3 4 3 4 4 4 5 6 6 9 9 13 98 100 100 100
10 14 18 27 40 25 19 16 10 10 9 7 6 5 4 3 2 2 2 2 2 2 2 3 3 3 3 3 4 4 4 5 5 4 4 5 6 7 9 16 85 100 100 100 100
18 26 42 30 23 19 17 16 15 12 9 7 5 4 3 3 2 2 2 2 2 2 3 3 3 3 4 4 5 7 7 6 5 5 6 6 6 8 11 96 100 100 100 100 100
44 41 24 22 19 21 21 19 15 12 8 7 6 5 5 4 3 3 3 3 2 3 3 4 3 4 5 6 8 9 10 9 9 8 9 8 7 11 14 100 100 100 100 100 100
32 24 23 23 23 23 21 17 13 11 9 8 7 7 6 5 5 4 4 3 3 3 4 4 4 4 5 6 9 11 16 19 25 19 18 21 9 14 18 81 100 100 100 100 100
27 27 25 25 25 23 19 15 12 10 10 10 11 10 9 8 7 7 6 5 5 4 5 5 5 6 6 7 7 12 21 32 40 46 46 46 45 24 16 24 100 100 100 100 100
30 30 28 30 29 26 21 16 13 13 13 12 13 13 12 13 12 12 12 10 9 8 7 6 6 9 10 8 11 16 23 45 57 72 85 81 68 41 29 23 82 100 100 98 100
34 34 33 32 32 29 26 22 20 18 17 15 14 14 14 12 14 16 15 16 15 14 13 11 9 12 14 13 13 17 19 23 32 44 45 62 61 72 54 46 29 90 100 100 100
38 38 36 36 36 33 28 26 26 26 23 22 21 19 17 17 16 15 16 17 16 16 18 15 13 17 22 26 29 29 32 37 41 39 36 28 22 23 38 44 70 42 78 100 100
42 44 43 41 38 37 35 34 32 33 30 31 28 28 26 25 23 22 22 20 21 24 25 23 22 27 26 30 29 30 32 39 43 46 38 34 34 32 20 25 35 100 100 100 100
47 50 50 50 49 44 46 48 44 40 39 42 40 38 39 39 35 38 39 36 35 29 30 26 36 38 40 41 37 34 32 35 40 40 39 44 46 40 32 31 31 34 40 68 100

GFSSW_250_rhum_111.txt.gz
RH
99 100 97 87 74 65 57 51 35 20 20 33 56 66 73 88 70 45 40 59 50 41 49 48 42 38 35 24 32 18 18 24 29 19 26 22 15 17 22 24 24 22 26 27 40
100 94 98 97 70 59 71 56 37 35 27 18 20 18 14 20 47 56 41 42 37 28 36 35 16 24 23 19 21 20 22 26 29 22 20 22 14 14 15 20 23 24 23 29 38
100 100 100 100 95 72 60 60 48 48 30 23 19 14 12 10 10 13 18 18 22 28 21 15 13 10 12 14 16 14 14 19 29 28 26 18 13 16 12 14 21 20 23 20 32
81 96 92 93 93 83 65 56 54 45 34 26 22 15 14 11 8 8 7 7 9 10 12 9 8 7 8 8 8 9 10 18 18 18 17 15 10 11 11 12 14 20 21 18 20
32 41 52 66 76 68 58 49 50 43 38 30 20 17 14 12 10 8 7 6 5 5 5 5 5 5 5 5 6 6 7 8 12 11 9 9 10 10 9 9 11 12 16 16 17
22 25 35 48 47 48 50 46 50 42 43 30 18 17 13 11 8 8 6 5 6 5 4 4 4 4 4 4 5 5 5 6 7 6 7 7 6 6 9 7 8 9 11 13 14
16 16 18 18 30 44 40 36 37 32 37 28 20 19 14 10 9 8 6 6 6 4 4 4 3 3 3 3 3 3 5 4 4 5 6 4 4 4 6 5 6 6 7 10 10
9 14 16 13 15 22 30 26 26 26 26 21 20 17 14 11 10 8 6 5 4 4 4 3 3 3 2 2 2 2 3 4 3 3 3 2 4 4 4 4 4 5 6 7 8
6 8 9 10 10 12 16 16 16 19 16 14 18 15 15 13 9 7 6 5 5 4 4 3 2 2 2 2 2 2 2 2 2 2 3 2 4 4 3 3 4 3 4 6 6
5 5 6 8 9 10 10 11 10 13 12 12 17 18 16 11 7 7 6 5 4 3 3 3 2 2 2 2 2 2 2 2 2 2 2 2 2 2 2 3 3 3 4 5 4
3 5 6 8 7 7 8 9 11 10 14 18 17 15 9 7 8 8 6 4 3 3 3 2 2 2 2 2 2 2 1 2 2 2 2 2 2 2 2 3 3 3 3 4 5
3 4 4 5 6 5 5 4 6 6 7 8 9 8 8 8 7 5 4 3 3 3 3 2 2 2 2 2 1 2 2 2 2 2 2 2 2 2 2 2 3 3 3 4 5
2 2 2 3 4 4 3 4 4 6 7 8 8 7 7 6 6 4 4 4 3 3 4 3 3 3 2 2 2 2 2 2 2 2 2 2 2 2 2 2 3 3 4 4 5
2 2 2 2 2 3 4 5 6 6 7 8 7 6 6 6 6 6 5 5 5 4 3 3 2 2 2 2 2 1 1 1 1 1 1 1 1 1 1 1 2 2 3 4 6
2 2 3 3 4 5 6 6 7 8 9 8 7 7 9 10 12 8 5 4 3 2 2 2 2 2 2 1 1 1 1 1 1 1 1 1 1 1 1 1 1 2 2 3 6
5 6 6 8 9 9 8 7 8 10 13 13 13 12 8 8 6 4 3 3 2 2 2 1 1 2 2 1 1 1 1 2 1 1 1 1 1 1 1 1 1 1 2 2 5
7 8 10 11 12 16 18 18 15 11 9 6 6 6 5 4 4 3 2 2 2 2 2 2 3 2 2 2 2 2 2 2 2 1 1 1 1 1 1 1 2 2 2 2 3
10 11 11 10 10 9 8 8 7 6 6 5 4 4 4 4 3 2 3 3 3 2 2 3 3 3 3 3 2 3 3 3 2 2 2 2 2 2 2 2 2 2 3 4 5
9 8 8 8 7 7 6 6 5 5 4 4 3 3 3 3 3 4 3 3 3 3 3 4 3 3 3 4 4 3 4 3 4 3 4 4 4 3 4 3 4 4 6 6 6
12 10 10 10 9 8 7 6 6 5 4 4 3 3 3 4 4 4 4 4 4 4 4 5 5 5 4 5 8 8 5 6 7 6 7 7 7 6 6 7 7 8 13 11 13
16 17 17 16 14 11 12 10 8 7 6 4 4 4 4 4 4 4 4 4 5 5 6 6 5 5 8 6 8 11 9 9 13 13 8 10 9 9 11 14 16 16 27 30 21
19 22 20 18 20 16 15 13 10 9 8 6 6 5 5 4 4 5 5 6 6 6 6 5 5 6 9 18 15 16 23 22 26 24 20 42 22 24 19 16 29 48 56 39 32
22 23 22 22 21 22 19 17 15 13 10 9 8 7 6 6 7 6 6 6 7 8 9 10 10 15 19 21 23 28 27 26 34 35 40 46 28 26 20 19 100 100 80 72 70
33 30 28 27 25 23 24 22 20 19 17 16 15 15 14 11 9 7 7 9 9 10 11 12 13 16 17 16 14 18 20 20 22 22 26 22 27 35 17 18 94 100 100 100 99
40 36 34 33 33 33 30 28 30 26 24 24 24 23 22 20 17 14 16 16 18 23 24 25 25 25 24 26 24 32 36 28 18 22 24 21 22 16 19 18 21 100 100 100 93
58 50 44 43 39 38 36 35 36 34 33 34 32 29 28 26 27 25 24 24 24 27 28 29 32 28 28 34 35 42 44 44 41 39 33 34 39 36 25 18 20 46 100 100 100
78 69 59 52 49 46 43 43 45 44 44 42 41 38 34 36 33 30 27 27 34 35 36 34 35 35 35 37 37 38 39 38 40 38 37 38 38 32 25 21 19 22 97 100 99

GFSSW_250_rhum_114.txt.gz
RH
100 100 100 100 97 77 100 98 100 64 57 44 31 24 26 36 51 68 84 94 58 42 44 40 33 30 35 41 37 47 41 51 60 56 56 48 39 21 22 21 21 20 20 25 51
91 100 100 100 95 71 55 66 62 90 69 59 40 23 18 16 23 44 54 56 58 67 49 33 37 32 30 29 35 38 46 51 51 53 60 60 47 39 26 28 22 21 21 21 37
44 68 100 100 100 100 100 87 82 86 79 56 44 39 25 18 14 13 15 29 39 47 35 33 17 22 23 23 20 20 31 47 55 45 31 64 49 64 38 29 21 20 21 23 35
37 54 65 98 100 100 100 100 99 83 88 54 70 45 37 25 16 12 9 8 9 9 24 26 12 10 9 9 10 14 15 19 28 28 24 23 26 30 32 37 31 17 17 20 22
13 32 65 65 69 79 76 72 91 68 67 62 47 47 37 36 17 11 11 9 8 7 7 8 9 9 9 8 7 8 8 11 13 15 13 13 14 14 16 27 26 19 14 15 18
9 14 27 43 51 61 53 64 54 63 56 49 39 41 38 30 18 11 10 9 8 8 7 6 5 5 6 7 7 8 8 6 7 8 8 8 9 9 14 12 15 15 11 13 14
6 14 15 25 30 37 37 44 50 51 63 44 39 38 36 29 18 12 9 8 8 7 6 5 4 4 4 5 5 5 5 6 5 5 6 4 7 8 8 7 8 8 8 10 10
4 6 17 17 25 32 40 37 42 58 41 57 50 34 27 24 21 15 10 8 7 7 6 5 4 4 4 4 3 3 4 4 4 4 4 3 5 4 4 4 5 5 5 6 6
3 4 8 13 19 23 29 29 25 29 28 34 32 24 19 17 16 15 12 9 7 6 5 5 5 4 4 3 3 2 2 2 2 2 2 2 3 3 2 2 3 3 3 4 5
3 3 4 7 10 15 19 18 20 19 15 16 18 18 14 13 17 16 12 9 5 5 5 5 4 4 3 2 2 2 2 1 1 1 1 1 2 2 1 2 2 3 3 3 4
3 4 4 6 8 12 13 15 14 14 16 14 11 12 13 18 23 14 7 5 6 6 6 4 3 3 3 2 2 2 2 2 1 1 1 2 2 2 2 2 2 3 3 3 4
4 4 5 6 7 8 11 12 13 11 10 11 14 15 18 17 8 5 7 7 7 6 4 4 3 3 2 2 2 2 2 2 1 1 1 2 2 2 2 2 2 3 3 3 4
4 5 5 6 8 9 11 10 8 7 9 9 8 7 7 7 7 8 8 7 6 4 4 3 3 3 3 2 2 2 2 2 2 2 2 1 1 2 2 2 2 2 2 2 3
2 3 4 5 6 6 5 5 6 6 6 7 7 8 8 10 9 9 7 6 6 5 4 4 4 4 4 3 3 2 2 2 2 2 2 2 2 2 2 2 2 2 2 2 2
3 3 3 3 4 4 4 5 6 7 8 8 10 9 9 8 7 8 11 7 6 8 7 5 4 3 3 2 2 2 2 2 2 1 1 1 1 1 1 2 2 2 2 2 2
7 7 7 8 8 8 8 8 8 8 8 8 7 10 12 11 12 9 6 5 4 3 3 2 2 2 2 2 2 2 2 1 1 1 1 1 1 1 1 1 1 2 2 3 3
12 13 12 12 11 12 12 11 11 10 12 13 14 11 8 6 4 3 3 3 3 3 3 2 2 2 2 2 2 2 2 2 2 1 1 1 1 1 1 1 1 1 2 2 4
6 6 6 6 7 8 7 7 7 6 6 5 4 4 3 3 4 4 4 3 4 4 5 5 4 3 3 3 3 2 2 2 2 2 2 1 1 1 1 1 2 2 2 2 3
10 8 8 7 6 6 5 5 4 4 4 4 4 3 4 5 4 4 4 5 6 7 6 6 4 4 4 3 3 3 3 3 3 2 2 2 2 2 2 2 2 2 2 3 3
15 11 10 10 8 7 5 5 5 5 5 5 4 4 5 4 5 6 6 7 6 7 9 6 5 4 3 5 4 4 4 3 3 3 4 3 4 5 4 4 4 5 6 6 9
20 16 12 12 10 8 7 6 5 5 6 6 6 4 6 7 8 7 6 8 8 9 9 8 8 6 9 7 8 6 7 5 8 7 6 8 7 6 6 10 8 25 22 29 25
34 25 20 18 13 11 11 10 7 6 6 5 7 8 8 8 7 7 9 10 11 10 10 11 11 12 14 14 14 15 13 11 13 16 12 14 20 28 28 27 38 54 40 49 35
49 40 30 29 22 18 14 12 12 13 15 13 11 11 10 10 10 12 12 13 12 14 14 12 11 13 14 15 18 16 16 16 19 17 16 18 36 46 44 62 40 45 50 55 40
51 54 46 41 35 31 27 25 25 27 26 24 21 19 15 15 14 14 16 16 17 17 18 18 17 15 16 19 18 18 20 22 26 30 24 23 32 46 48 53 51 46 39 46 32
49 50 57 47 43 44 40 34 31 31 31 28 25 22 21 24 25 26 29 32 32 33 32 28 27 28 28 30 31 28 25 28 31 37 33 30 23 23 58 46 41 40 43 58 38
64 63 54 54 58 48 46 42 36 38 36 33 29 28 31 33 31 28 34 36 37 38 36 34 33 34 36 39 40 43 40 35 36 36 34 31 28 26 25 31 48 50 32 40 56
70 64 62 62 56 62 56 49 45 41 42 39 36 35 37 38 36 40 48 49 49 44 44 46 47 50 50 46 47 43 47 48 43 43 45 43 38 37 29 25 34 87 94 68 59

GFSSW_250_rhum_117.txt.gz
RH
73 83 94 92 100 100 86 99 100 100 88 55 47 38 33 26 45 84 58 65 71 57 41 40 46 39 32 30 29 25 35 41 29 32 40 39 40 32 29 28 27 32 37 30 28
45 56 51 90 64 100 97 91 98 98 100 100 76 44 50 38 38 65 61 50 60 40 45 36 33 29 38 30 30 30 31 30 34 32 40 42 37 36 31 37 37 37 42 44 35
26 37 32 36 72 67 93 100 100 100 100 100 92 90 66 49 29 25 24 31 32 24 30 30 27 25 23 25 27 30 32 27 27 36 38 41 42 44 40 47 47 48 48 41 45
15 26 33 34 46 72 91 90 100 79 78 100 100 73 81 54 45 31 23 18 14 11 16 24 26 25 18 20 14 14 19 20 21 26 30 38 41 43 45 59 50 42 46 48 48
3 10 17 22 32 61 90 100 100 99 64 100 89 68 58 60 44 32 25 22 17 12 9 12 18 18 23 18 12 10 10 11 11 13 16 22 34 39 47 36 39 33 24 26 34
2 4 11 16 26 41 76 93 100 95 100 88 93 94 63 64 52 58 34 25 19 14 10 8 7 7 7 8 10 12 10 10 9 10 9 10 17 25 28 20 20 18 11 14 19
2 4 8 13 22 29 52 78 96 79 80 87 93 98 55 49 50 48 34 26 16 13 10 9 8 7 6 5 5 6 6 6 7 7 7 7 8 13 11 10 10 12 10 10 12
2 3 8 13 20 29 36 54 79 85 74 73 63 64 46 49 42 37 27 21 19 16 13 10 8 7 6 6 5 4 4 4 4 4 5 5 8 7 7 7 7 7 6 6 7
3 3 5 10 12 23 28 45 55 84 74 71 68 66 60 51 42 34 28 18 17 16 12 9 7 6 7 6 5 5 4 3 3 2 3 3 5 5 3 3 4 4 4 3 3
3 3 5 6 12 17 29 37 60 67 68 72 61 53 40 33 32 30 27 21 13 12 12 9 7 7 6 6 5 4 3 2 2 1 2 2 3 2 2 2 2 3 3 3 3
3 3 4 6 8 14 19 28 27 38 37 28 32 32 26 21 23 27 20 12 11 12 11 9 8 7 5 4 3 2 2 2 2 2 2 2 2 2 2 2 2 3 4 4 5
4 4 4 5 6 8 13 17 20 22 27 25 28 31 23 24 19 16 18 14 10 9 9 8 5 3 3 3 3 2 2 2 2 2 2 2 2 1 2 1 1 2 2 2 2
4 5 6 7 8 10 11 14 24 30 33 35 32 18 13 12 12 9 8 10 11 9 6 4 4 3 3 3 3 2 2 2 2 2 2 2 1 1 1 1 1 1 2 2 2
3 4 5 6 8 11 13 15 19 19 15 12 11 11 10 8 10 12 12 9 7 6 6 5 4 4 4 4 4 3 3 2 2 2 1 1 1 1 1 1 1 1 2 2 2
5 4 4 4 5 6 7 7 8 9 10 11 11 12 12 11 11 10 10 9 10 9 9 8 7 6 5 5 5 4 3 3 3 2 2 2 2 2 2 1 1 2 2 2 2
13 11 8 7 7 7 8 10 10 10 11 12 11 10 11 9 11 14 16 12 11 8 8 7 6 5 4 4 3 3 2 2 2 1 1 1 1 1 1 1 2 2 2 2 2
6 6 10 15 13 11 11 12 12 13 13 9 12 16 15 16 12 7 7 6 5 4 4 4 3 3 3 3 2 2 2 2 2 2 1 1 1 1 1 1 1 1 1 2 2
9 6 5 5 5 5 6 6 7 8 7 7 6 6 6 5 7 7 6 4 4 4 4 4 3 3 4 4 3 3 3 2 2 2 2 2 1 1 1 1 1 1 1 1 2
16 10 7 6 6 6 6 6 6 6 5 5 5 6 6 7 6 6 5 5 7 9 9 10 9 9 8 8 8 6 5 4 3 3 2 2 2 2 2 1 2 2 2 2 2
34 19 12 8 6 6 5 6 6 6 7 7 7 7 6 7 8 8 8 11 12 15 16 17 16 14 12 11 12 10 8 6 4 4 3 3 3 2 2 2 2 2 2 2 3
45 44 26 14 9 7 6 6 6 5 5 5 6 7 8 12 13 15 15 23 24 22 20 17 14 13 12 11 10 10 12 9 8 6 5 5 5 5 4 4 4 4 5 5 6
43 45 42 31 21 14 13 10 8 7 7 9 13 16 18 20 26 28 27 20 19 19 16 14 14 15 16 14 16 20 29 20 16 9 8 11 9 8 8 9 8 10 19 20 16
53 50 51 48 38 31 24 22 23 18 13 12 13 14 15 19 18 20 25 25 24 20 16 16 16 18 20 21 21 19 23 34 28 23 21 19 17 19 12 20 19 24 22 22 48
45 52 56 52 53 48 40 30 26 25 23 26 27 26 27 28 28 30 29 26 27 29 32 31 31 28 28 28 29 30 31 28 28 29 26 28 25 23 26 29 39 34 35 31 70
46 44 51 61 55 52 52 49 42 32 28 26 30 30 30 33 35 34 35 37 39 42 43 42 43 42 37 39 43 44 40 39 42 40 36 42 43 43 44 41 42 45 44 54 51
52 46 41 53 69 62 52 53 54 48 44 39 39 39 37 36 39 43 43 45 47 48 49 54 53 48 46 44 43 48 49 48 43 40 39 38 40 48 66 82 78 74 68 70 64
60 58 58 48 41 62 67 58 52 49 52 50 47 45 43 40 38 42 46 48 51 53 55 58 58 60 63 60 58 52 53 54 57 54 53 53 51 46 52 72 88 99 100 94 84

GFSSW_250_rhum_123.txt.gz
RH
14 13 17 20 27 35 44 46 100 100 100 79 80 60 55 68 77 70 65 70 54 51 51 72 58 47 38 31 35 38 39 43 41 35 30 33 30 33 33 39 43 36 30 32 28
11 12 14 18 21 33 52 52 79 100 100 100 93 78 66 62 63 68 66 70 62 53 44 47 42 43 38 38 34 37 44 37 32 40 39 27 25 27 31 29 29 32 37 36 33
10 12 13 15 18 32 47 67 63 72 100 100 100 78 87 79 56 47 57 53 60 68 62 54 48 46 42 39 39 31 35 40 33 43 39 37 32 26 28 33 29 21 27 32 32
4 11 11 14 18 26 39 62 100 95 75 100 100 100 76 84 86 75 46 42 41 46 53 56 55 43 39 35 35 39 35 34 36 41 37 38 31 30 27 28 30 26 21 24 25
2 4 8 16 22 26 31 48 95 100 100 99 100 100 100 96 92 91 69 63 40 28 22 31 44 49 44 38 36 33 37 34 39 32 34 37 35 32 30 25 26 27 28 23 25
2 2 2 10 22 26 34 53 84 100 100 82 88 100 89 100 99 100 100 82 59 47 34 22 16 19 26 32 36 32 30 31 29 25 25 22 29 27 25 20 22 21 25 28 18
2 2 2 4 23 27 39 62 70 100 96 66 78 88 68 76 74 86 100 99 100 91 63 49 28 17 11 11 13 17 18 22 19 14 14 15 16 16 16 11 11 15 14 20 23
2 2 3 4 23 32 45 56 86 87 79 86 65 63 85 87 82 71 68 49 78 99 79 42 27 18 19 15 13 12 12 12 10 8 9 9 9 9 7 7 9 10 10 7 11
2 2 2 3 16 38 51 60 75 85 58 63 83 89 83 84 80 79 73 62 57 58 55 50 44 38 27 19 14 14 13 12 10 7 6 5 5 5 4 6 6 5 5 5 6
2 2 2 3 5 26 42 74 74 73 71 75 72 61 78 82 70 60 65 74 65 65 63 62 53 40 29 28 21 20 14 10 9 6 5 4 4 4 3 3 3 3 3 3 4
4 4 3 3 3 12 29 52 80 77 71 64 68 71 74 79 64 58 52 49 47 42 43 42 40 42 43 23 16 11 7 5 4 4 4 3 3 2 2 2 2 2 3 3 3
5 6 5 4 3 4 23 48 68 65 68 72 64 60 50 46 40 31 40 43 43 43 43 38 36 24 14 10 9 6 5 4 4 4 4 3 3 2 2 2 2 2 2 2 2
7 6 6 7 5 6 8 21 28 36 53 52 51 41 34 27 27 46 58 54 48 46 40 32 17 12 9 8 8 6 5 5 4 4 4 4 2 2 2 2 1 1 1 1 2
8 9 8 7 10 10 11 14 17 22 29 36 27 29 37 50 54 59 61 54 36 20 17 12 8 9 9 9 7 6 5 4 4 4 3 3 2 2 2 2 2 1 1 1 1
7 14 11 10 8 10 13 16 19 23 30 42 42 39 46 54 51 49 28 16 11 12 11 11 11 11 12 10 8 8 7 5 5 4 3 3 2 2 2 2 1 1 1 1 1
9 6 9 15 10 9 10 12 16 21 26 21 23 31 45 40 24 14 15 15 16 16 20 18 18 14 10 9 8 6 5 4 3 3 3 2 2 2 2 2 2 1 1 1 1
11 10 8 7 10 14 14 11 10 10 10 14 16 16 15 17 22 29 35 24 18 14 10 9 9 8 8 7 6 5 5 4 4 4 3 2 2 2 1 1 1 1 1 1 1
20 12 11 10 8 8 8 10 13 20 24 22 26 27 34 25 19 15 11 14 17 16 12 13 11 8 8 9 7 6 5 4 5 4 3 3 2 2 2 1 1 1 1 1 1
32 26 19 13 13 12 12 11 11 12 13 16 19 18 15 17 24 26 16 11 12 12 12 12 16 16 17 14 14 14 14 10 14 8 6 4 3 2 2 2 1 1 1 1 1
33 37 28 23 20 15 13 12 13 13 13 13 16 18 16 12 11 13 14 16 17 19 20 23 30 38 32 25 30 33 26 24 20 15 15 9 8 6 3 3 3 2 2 2 2
29 28 41 43 35 28 28 25 22 21 19 14 12 12 10 10 13 15 17 21 24 27 29 30 29 27 27 24 23 33 27 31 24 21 34 25 19 18 9 6 8 7 4 3 3
31 31 29 34 52 47 41 39 38 39 40 37 33 30 33 33 34 35 31 36 40 43 48 48 47 38 29 30 27 29 26 28 25 29 40 45 38 31 27 25 26 15 12 10 6
31 34 30 28 30 44 52 51 48 42 42 42 43 42 36 37 38 39 40 41 41 41 43 47 47 43 36 34 34 39 33 34 34 33 35 44 48 60 51 49 50 43 37 30 35
31 28 41 36 32 29 32 42 49 52 52 48 46 44 44 43 42 44 46 48 49 50 46 43 42 40 40 38 35 34 38 37 30 26 35 44 57 52 51 64 57 64 78 78 62
62 47 29 35 38 36 28 29 31 39 47 55 57 51 50 51 50 49 51 54 56 58 59 60 59 53 48 50 50 48 45 38 38 38 42 43 48 51 53 64 67 82 80 83 85
73 61 50 42 29 36 38 43 30 28 28 38 44 51 55 54 52 50 51 52 54 54 54 55 57 62 65 67 67 61 62 61 56 50 44 36 39 43 45 51 60 80 97 100 100
81 76 54 50 39 32 37 36 37 38 27 27 28 34 43 45 49 52 54 53 51 50 49 50 53 56 58 59 62 65 73 72 65 65 62 54 49 47 43 46 52 55 61 80 94

GFSSW_250_rhum_126.txt.gz
RH
11 19 26 30 36 40 35 62 55 74 60 72 57 64 60 58 76 74 84 65 78 63 63 65 70 67 60 52 44 46 57 60 58 60 62 60 59 52 62 60 42 41 40 38 35
10 12 24 29 35 38 30 55 51 41 61 76 86 73 56 55 56 57 67 86 91 79 72 67 57 70 62 57 56 61 44 43 45 42 42 44 45 51 55 51 50 42 40 38 33
6 11 14 24 27 34 32 44 42 40 61 69 81 90 99 63 61 41 62 72 80 86 70 71 66 49 54 51 62 66 53 56 48 38 39 37 38 33 40 39 38 33 40 41 34
3 9 12 17 19 29 27 34 35 52 78 69 71 95 100 100 91 59 56 60 64 64 77 78 63 56 54 47 44 40 42 47 42 46 42 34 35 33 32 25 23 25 26 23 26
2 4 6 12 22 20 20 30 30 54 81 72 72 84 100 100 99 75 79 62 52 49 51 55 56 56 47 45 43 36 30 30 34 31 27 28 30 30 28 24 19 20 19 22 25
2 2 3 11 16 18 20 27 32 34 49 54 83 70 74 99 100 100 97 88 67 53 46 44 42 46 48 45 42 41 31 27 27 25 26 24 22 20 27 29 19 18 28 27 22
2 2 2 9 16 20 21 28 30 34 39 47 60 92 86 73 98 100 100 99 76 66 48 38 32 30 30 30 35 31 32 36 26 22 25 20 20 19 16 17 23 16 20 28 24
2 2 2 5 16 19 26 31 30 35 38 52 70 89 100 96 76 84 99 100 91 83 71 48 38 24 24 19 18 20 21 22 22 19 16 18 26 19 17 16 17 16 14 12 17
2 2 3 5 24 23 26 31 31 38 44 52 61 64 74 79 82 76 62 68 74 71 65 55 54 28 21 14 13 12 12 11 10 9 8 9 11 13 12 13 12 10 10 8 7
2 2 2 7 24 24 25 31 31 43 51 46 56 75 95 98 94 76 77 77 70 47 45 52 44 36 28 27 25 20 15 13 11 10 10 10 8 7 6 7 6 5 5 6 7
2 3 2 4 17 27 26 25 34 39 39 46 61 95 100 100 100 99 82 68 66 51 48 43 34 26 28 24 22 18 22 23 10 8 7 5 5 5 4 4 4 4 4 3 3
4 3 3 4 8 18 26 32 35 42 46 51 72 87 91 79 78 80 73 62 53 50 43 49 50 45 43 40 44 32 21 16 8 6 6 5 5 4 3 2 2 2 2 2 2
8 6 5 4 5 13 22 27 31 35 45 47 50 60 58 63 65 66 53 44 54 52 58 56 67 60 47 41 20 17 11 9 8 6 5 4 4 3 3 3 2 2 2 2 2
6 8 9 8 9 12 18 24 29 36 41 44 54 53 57 58 58 54 52 55 66 74 77 71 40 26 15 13 13 12 9 7 7 6 5 4 4 3 3 2 2 2 2 1 1
11 10 8 11 10 13 18 23 29 36 42 42 41 46 48 49 51 61 73 63 64 48 32 25 16 14 12 12 11 10 9 8 7 7 6 5 4 4 3 2 2 2 2 1 1
10 8 13 10 10 15 16 20 23 39 48 49 47 52 64 82 91 87 71 70 47 20 17 15 16 16 16 17 12 10 8 7 6 6 5 4 4 3 3 2 2 2 2 1 1
17 12 10 9 14 13 13 17 20 27 31 36 50 68 70 74 58 49 29 19 19 19 16 13 11 11 11 16 16 15 11 10 11 8 6 5 4 3 2 2 2 2 1 1 1
32 25 22 12 11 10 10 18 20 20 20 21 21 24 26 26 25 23 21 12 16 14 12 16 17 20 19 16 12 9 10 10 10 8 8 8 4 3 2 2 2 1 1 1 1
25 34 34 27 23 20 16 12 14 13 14 16 21 21 21 29 35 34 41 35 31 28 29 26 21 18 20 20 19 17 19 21 19 17 16 15 8 5 4 2 2 2 1 1 1
24 27 27 39 37 31 31 27 24 22 21 20 22 24 30 31 25 18 21 23 21 18 16 15 16 20 23 21 24 20 23 25 29 28 31 22 19 27 10 8 5 3 2 2 2
23 25 24 25 29 45 41 39 39 36 32 28 28 26 24 22 28 27 27 29 32 34 33 29 26 24 28 23 21 20 23 31 33 38 39 43 49 52 26 20 12 4 4 4 4
28 28 31 27 23 28 32 49 46 45 47 47 47 48 46 44 39 35 38 42 44 45 43 40 37 38 38 35 35 34 31 28 27 39 38 44 50 39 27 26 18 22 23 22 17
36 32 33 34 29 29 30 29 32 47 51 50 52 51 51 51 50 51 52 54 56 50 51 53 53 54 52 48 43 43 46 40 40 37 34 32 46 50 49 53 38 32 33 42 31
40 42 37 26 33 33 25 28 26 27 30 39 49 52 54 54 55 57 58 58 58 59 61 59 62 65 65 62 61 57 52 45 44 42 41 44 42 55 58 69 85 92 72 81 80
46 40 44 37 24 29 42 36 33 31 30 30 30 32 42 48 52 58 57 55 54 56 54 54 54 57 62 66 66 64 64 64 59 52 51 51 46 47 56 56 57 68 85 92 100
60 52 50 52 54 48 32 35 48 43 32 34 29 32 32 28 31 45 47 49 53 55 55 55 56 54 52 49 47 50 49 58 65 70 68 63 57 53 52 52 54 56 63 78 97
83 74 53 50 55 67 66 50 43 46 46 40 43 44 36 35 32 31 31 42 46 47 47 46 46 50 50 51 50 48 46 45 44 48 56 68 76 73 68 66 61 56 54 56 60